GFSMA_sfc_30mbdewp_000.txt.gz
Dewpoint
60 59 48 44 42 39 36 33 31 31 27 27 26 30 31 27 36 38 40 47 45 49 52 50 50 49 49 53 54 53 54 53 53 53 52 54 54 57 57 58 61 62 62
50 43 43 40 37 36 30 27 29 28 24 24 20 27 30 26 32 30 33 37 39 45 43 43 44 43 47 48 48 49 49 49 49 49 49 51 52 51 52 56 57 57 57
40 41 37 33 31 29 26 25 24 28 22 21 17 25 28 26 23 25 26 34 30 36 37 38 40 41 44 44 45 46 45 46 45 46 49 50 49 49 51 55 55 56 56
37 36 32 29 28 27 25 23 23 22 23 20 17 22 26 27 23 21 23 29 26 28 30 33 35 36 38 38 40 41 42 42 44 47 48 47 46 48 49 50 50 51 52
32 31 28 27 26 25 23 22 21 23 25 19 19 22 25 26 22 20 22 25 22 26 27 27 31 33 34 35 35 36 39 38 37 38 41 43 42 44 44 45 46 46 47
29 28 26 24 23 22 20 19 19 21 27 24 23 21 26 32 24 19 22 23 22 23 26 22 26 28 32 32 32 32 33 33 35 39 40 40 41 43 44 44 44 44 44
26 26 25 23 22 21 20 20 20 18 17 25 22 20 25 28 28 25 17 22 20 20 24 21 24 26 28 31 27 27 29 30 35 39 38 39 40 41 42 42 43 42 42
25 24 22 21 20 18 18 18 17 15 17 23 15 23 13 14 19 12 19 20 16 20 21 19 21 23 26 26 25 26 25 28 35 37 38 39 41 40 40 40 40 41 41
23 21 20 19 19 18 16 18 17 16 14 16 24 14 6 9 19 21 17 19 12 19 18 21 20 21 25 25 23 24 27 28 31 34 37 38 38 38 38 38 39 39 39
21 20 19 18 18 17 14 16 16 16 17 14 17 17 18 19 11 14 16 11 17 14 18 18 17 22 25 22 24 25 27 28 30 31 33 35 36 36 37 37 38 38 38
19 18 17 16 15 16 14 13 13 13 16 15 15 16 18 17 21 15 9 12 14 14 14 15 19 17 18 22 22 25 30 26 28 29 32 33 34 35 36 36 36 37 36
17 15 15 13 13 13 12 13 13 13 14 13 14 14 15 14 14 14 14 14 14 14 14 15 15 18 21 21 26 26 28 26 25 29 30 31 32 33 33 34 34 34 35
14 13 12 10 11 11 12 13 13 13 14 13 13 13 16 16 17 17 17 16 15 15 14 15 16 18 19 21 22 28 26 24 25 26 28 30 30 30 31 31 32 32 32
14 12 11 10 10 11 12 13 14 14 14 14 13 13 14 15 17 18 18 18 16 14 14 16 19 19 21 22 25 23 22 23 23 24 26 27 27 28 28 28 28 29 30
12 10 9 10 11 12 12 13 14 13 14 14 14 14 14 15 18 20 20 21 20 17 15 18 20 22 24 24 25 23 23 24 23 23 24 25 28 27 25 25 25 25 26
9 9 10 11 12 12 13 13 13 14 14 15 15 14 14 17 19 21 21 21 22 21 20 20 21 23 24 24 24 24 25 24 24 24 26 25 22 21 22 23 23 24 25
9 10 11 12 12 13 14 13 13 14 15 15 16 16 16 18 20 21 21 21 22 23 22 22 22 24 23 21 21 23 25 26 27 29 23 20 20 21 22 23 24 27 29
11 11 12 13 13 14 13 12 14 16 16 16 16 17 17 18 20 21 21 21 22 23 22 22 24 22 21 22 23 26 25 26 27 21 20 20 20 20 22 25 28 27 28
11 12 13 13 13 13 12 12 16 17 17 17 17 17 18 19 20 21 21 21 22 23 23 23 21 22 22 26 24 25 25 24 20 19 19 19 20 21 24 24 22 24 25
11 13 14 13 13 12 11 14 19 19 18 17 17 18 19 19 20 21 21 20 20 20 19 20 21 24 25 26 22 18 16 17 18 19 21 22 20 20 20 20 21 21 21
14 15 13 13 13 11 10 19 20 21 18 18 18 18 19 21 21 20 19 19 20 21 23 26 26 24 20 16 16 17 17 19 21 20 18 18 18 19 20 21 20 20 21
14 14 13 13 12 12 17 20 21 21 19 18 18 19 20 21 20 22 22 22 24 30 26 22 21 17 16 16 17 19 22 20 17 19 19 21 21 19 19 19 19 21 22
13 13 12 12 12 12 18 19 20 21 19 19 19 20 20 20 22 21 24 25 30 23 21 19 16 16 16 19 25 23 21 21 19 20 21 20 19 17 18 17 19 20 22
13 12 12 12 12 12 19 19 20 21 20 20 20 20 20 20 21 23 26 28 21 20 18 17 17 21 25 21 18 19 21 23 22 18 17 17 17 16 17 18 19 20 21
12 12 12 12 13 15 18 19 21 20 20 20 20 21 22 23 23 24 24 20 18 17 16 20 25 20 18 19 20 22 21 19 16 15 16 16 16 17 17 18 19 21 20
12 12 13 14 16 15 18 20 21 21 21 21 21 23 23 22 21 26 19 17 17 16 23 23 15 16 17 18 19 18 20 18 17 16 14 17 18 19 17 17 17 18 19

GFSMA_sfc_30mbdewp_003.txt.gz
Dewpoint
62 55 42 41 38 35 31 30 30 25 22 22 21 28 26 31 30 34 36 45 48 48 49 50 49 49 53 52 52 53 53 53 53 53 55 57 57 57 56 58 58 60 62
52 43 39 37 34 29 27 26 26 25 19 19 17 24 25 28 26 26 34 32 42 42 44 45 45 48 47 49 50 50 49 50 49 49 49 52 52 52 52 54 56 57 58
43 39 34 30 29 28 24 23 22 25 18 16 15 20 24 27 22 25 31 28 31 35 38 39 39 41 42 44 45 46 46 46 48 50 51 50 49 50 52 53 53 54 54
38 33 30 28 27 26 24 22 19 21 19 17 17 19 22 28 20 24 26 25 28 28 28 33 32 34 36 37 40 41 42 43 42 42 42 44 47 47 47 48 49 49 49
32 29 28 28 25 23 21 19 18 20 18 18 17 17 23 28 21 23 21 25 25 25 26 25 30 30 30 32 35 36 37 38 38 38 40 45 43 42 43 45 45 46 47
29 28 26 24 22 20 18 17 16 18 20 20 19 17 29 34 27 24 18 20 23 21 25 24 24 22 26 30 32 32 32 34 35 37 41 42 42 42 43 44 44 45 45
28 27 24 22 21 19 18 16 18 16 17 22 15 16 22 24 28 27 15 21 19 20 23 20 18 18 20 29 31 31 28 30 32 35 40 40 42 42 42 43 42 43 43
25 24 22 21 20 18 18 17 18 15 17 22 14 19 12 12 17 9 22 20 17 16 18 13 17 16 18 20 25 26 27 27 29 33 36 38 40 41 42 41 41 41 41
23 21 21 19 19 20 18 18 18 17 14 18 18 12 7 8 13 17 13 21 11 17 12 17 16 15 16 19 21 22 26 27 29 32 34 37 38 38 38 39 39 40 40
21 20 20 19 18 17 16 16 16 17 18 15 17 14 15 15 9 9 14 10 16 12 15 15 14 15 15 16 19 25 28 31 29 31 34 35 36 36 37 37 37 38 38
20 19 17 17 16 16 15 16 16 16 17 15 15 14 15 15 20 14 6 10 14 14 15 14 15 15 15 18 21 24 26 26 27 30 32 33 35 36 35 36 36 37 37
17 16 15 15 15 15 15 17 17 17 16 16 16 15 14 12 11 12 12 14 14 13 14 15 14 15 17 19 22 24 24 25 27 29 31 32 32 34 35 36 37 37 39
15 14 13 12 13 16 16 17 17 16 16 15 15 14 16 15 15 16 17 15 14 14 13 13 15 17 19 21 19 22 24 25 25 27 29 30 30 30 31 33 34 37 37
14 13 12 12 13 14 15 15 16 16 16 16 16 15 15 15 16 18 18 17 15 11 10 11 15 18 19 20 23 23 21 22 22 24 25 27 25 25 26 32 32 32 31
12 11 12 12 14 14 14 15 14 14 15 16 16 16 15 16 17 19 20 19 17 13 14 13 16 18 20 21 21 20 20 21 22 22 20 21 23 27 29 28 25 25 26
10 11 12 13 14 14 14 14 14 15 15 16 16 16 16 17 18 20 21 20 20 19 17 17 19 20 21 21 21 20 20 22 22 23 23 23 24 23 23 24 24 24 26
10 11 12 13 14 13 13 12 13 15 16 17 17 17 17 18 18 20 21 21 20 20 20 20 21 22 20 20 19 21 23 23 25 23 22 22 22 22 25 26 26 27 27
11 12 13 14 13 13 11 11 15 17 17 17 17 18 18 18 19 20 20 20 20 21 21 21 21 21 19 20 22 24 25 21 20 21 21 21 21 21 22 24 27 27 28
12 14 14 13 12 12 10 12 16 18 18 18 18 17 17 18 18 18 20 20 20 20 21 22 21 20 22 24 26 22 18 16 16 17 19 20 21 22 23 24 24 25 25
14 14 13 13 12 11 10 14 19 19 20 19 19 18 18 18 18 20 21 20 20 19 20 21 23 26 23 21 19 16 15 17 18 19 21 21 21 20 21 21 22 22 23
15 14 13 12 12 11 10 20 21 20 20 19 19 18 19 21 23 22 20 21 21 22 26 28 24 21 19 16 15 17 18 19 21 20 19 19 19 20 21 21 21 21 21
14 13 12 12 12 11 18 21 21 20 20 19 19 19 20 22 22 23 22 22 25 29 27 24 21 17 14 15 17 20 22 20 18 18 18 19 20 19 20 20 19 21 22
13 11 11 12 11 12 18 20 20 20 20 20 20 20 20 21 23 22 23 25 31 24 21 20 16 15 17 19 25 23 21 20 19 20 20 19 19 18 18 17 19 20 21
11 11 11 12 13 13 19 19 21 20 20 20 21 21 21 21 23 23 24 29 23 19 17 18 18 21 25 22 20 19 21 23 21 19 17 17 17 17 17 18 19 20 21
11 11 12 13 14 16 18 20 21 20 20 20 21 21 22 22 21 21 26 22 17 16 17 20 25 22 19 19 20 21 21 19 17 16 16 16 17 17 18 19 20 20 21
12 12 13 15 17 15 18 20 20 20 20 20 21 21 22 21 20 24 20 17 17 17 24 23 15 14 16 16 19 18 19 18 18 16 14 18 19 19 17 14 16 19 20

GFSMA_sfc_30mbdewp_006.txt.gz
Dewpoint
61 57 49 46 43 40 37 34 28 23 21 21 19 22 24 24 27 31 36 46 46 48 49 49 51 51 50 52 53 52 52 52 52 51 51 53 55 54 54 54 57 59 59
59 46 41 39 36 30 24 23 23 23 20 18 18 18 21 23 25 28 32 36 41 42 43 43 43 44 45 46 48 48 48 48 50 51 52 53 53 52 53 52 55 57 57
50 41 36 32 28 26 24 23 20 21 20 18 18 18 19 22 23 26 28 28 30 36 37 37 35 36 38 39 41 43 43 44 45 45 45 46 50 50 50 50 52 52 53
42 35 31 28 27 25 23 21 18 19 19 19 18 17 19 22 21 22 24 23 25 24 26 32 32 31 31 32 35 38 39 38 41 41 41 42 43 45 46 46 47 47 48
34 30 29 27 24 22 21 17 17 18 19 18 15 12 22 25 22 21 21 22 24 23 24 23 26 23 26 31 33 35 36 36 37 38 39 41 44 45 44 44 45 46 47
31 29 27 24 22 22 18 18 18 19 18 16 16 15 26 30 26 27 24 17 20 20 22 22 17 18 19 25 31 33 33 33 34 35 36 38 44 43 43 44 44 45 45
29 28 25 23 22 20 19 17 18 17 17 17 13 16 18 20 28 24 17 18 18 18 16 15 16 17 16 20 22 27 31 31 33 33 34 37 40 41 42 43 43 43 43
29 27 25 23 21 20 20 19 19 16 16 17 14 17 13 13 16 14 18 15 15 14 15 14 17 15 16 17 18 25 25 29 32 34 35 36 37 39 40 41 42 42 42
24 25 23 21 22 22 20 19 18 15 13 16 16 13 10 10 11 13 14 17 13 13 15 17 16 15 16 16 17 19 24 30 32 34 35 36 38 39 39 39 39 39 40
22 21 21 20 19 19 19 14 15 16 16 15 16 13 12 12 9 10 13 12 14 14 16 16 15 15 15 16 18 20 24 27 29 31 33 35 37 38 38 38 38 40 40
21 20 19 18 17 17 17 16 17 16 16 15 15 13 13 14 15 15 11 13 15 16 16 15 15 14 15 16 18 20 22 25 29 31 33 34 34 35 36 36 36 38 41
19 17 17 17 16 16 17 17 19 19 17 15 14 14 14 13 13 13 13 14 15 15 15 14 14 14 15 18 19 20 23 26 28 29 31 32 32 33 33 34 35 37 38
17 16 15 14 15 17 18 18 18 17 16 15 14 14 15 15 15 15 15 15 14 14 11 12 12 12 15 18 17 21 24 25 24 26 28 29 29 29 30 30 30 31 31
17 15 14 13 13 14 16 17 17 17 16 15 17 17 16 16 17 16 16 16 14 10 9 7 11 13 15 17 20 21 21 21 22 24 25 25 25 24 25 26 27 29 32
15 14 13 13 14 14 15 16 14 13 14 16 17 17 17 17 17 17 17 17 16 12 10 11 12 14 16 18 18 19 19 19 21 23 24 25 25 25 25 26 26 28 29
12 13 13 13 14 15 15 14 13 14 15 16 16 17 16 16 16 17 18 17 17 16 14 13 14 15 17 17 18 19 19 22 23 23 23 23 23 24 24 24 25 25 26
12 12 12 12 14 14 13 12 13 15 16 17 17 17 17 16 15 15 16 16 16 16 16 16 16 17 17 18 18 20 21 22 22 20 20 20 21 22 24 25 26 26 26
11 11 12 14 13 12 11 11 14 16 17 17 17 17 17 13 13 14 15 15 15 16 16 17 18 18 18 19 22 21 20 17 15 14 17 20 22 22 23 24 25 26 27
12 13 14 13 12 12 11 11 14 16 17 18 17 17 14 13 13 13 14 16 18 17 18 19 19 20 22 24 22 19 16 14 14 17 18 19 21 22 23 24 24 24 24
14 14 13 13 13 11 11 12 17 18 18 18 19 18 15 15 16 17 18 18 17 19 18 19 22 27 24 21 18 15 14 16 17 18 20 20 21 21 21 21 22 23 23
14 13 13 12 12 12 10 19 20 20 18 18 17 17 16 18 22 23 21 20 20 21 24 26 27 23 20 16 13 15 17 20 20 20 19 19 18 19 21 21 21 21 21
14 13 12 12 12 10 18 21 22 19 17 17 16 16 17 20 19 21 21 21 22 24 29 26 22 18 13 13 16 19 22 21 19 18 18 19 20 19 20 20 20 20 21
13 12 11 11 11 11 18 21 21 20 18 17 18 18 18 17 20 19 21 22 26 30 23 20 16 13 15 18 25 25 21 20 20 20 20 19 19 18 19 18 19 21 22
11 10 11 11 11 11 20 20 21 19 17 17 18 18 18 18 19 22 22 27 25 20 15 15 16 19 23 25 21 19 20 21 22 19 18 18 18 17 19 20 20 22 23
10 10 11 11 10 11 16 20 21 18 16 17 17 17 19 20 20 21 25 26 17 14 15 17 22 25 20 19 19 20 22 21 19 17 17 17 17 18 19 20 19 18 20
11 10 10 10 12 11 14 19 20 18 17 16 16 17 18 21 20 25 22 17 16 15 20 24 17 15 15 16 18 18 20 21 19 18 16 19 20 19 18 16 17 21 22

GFSMA_sfc_30mbdewp_009.txt.gz
Dewpoint
57 58 55 52 48 44 40 35 28 26 24 23 21 20 22 22 25 28 41 47 47 48 48 48 49 48 49 49 50 49 50 51 51 52 53 54 55 54 54 54 54 57 58
59 53 48 45 41 34 28 26 25 25 23 20 19 18 20 21 24 27 33 40 41 42 42 41 40 40 40 41 43 44 45 45 47 47 48 48 49 52 52 52 53 55 54
54 48 42 38 33 29 27 25 22 22 22 20 20 19 19 21 23 26 28 30 38 37 36 36 35 35 35 36 36 38 39 41 41 43 43 43 44 45 46 49 49 50 51
50 42 38 35 30 27 26 23 21 22 22 21 20 16 18 21 22 23 25 24 27 25 34 30 30 30 30 34 37 38 39 39 39 40 40 41 42 43 47 47 46 46 47
41 34 33 31 28 26 25 22 23 23 22 20 17 15 25 26 23 21 22 23 25 24 26 25 24 25 24 27 33 35 37 38 38 38 39 39 40 41 46 46 45 46 46
35 36 32 28 28 27 25 25 24 23 21 19 16 17 25 29 25 26 27 16 21 20 22 22 21 21 22 23 26 29 34 36 36 37 38 38 39 40 42 44 44 45 45
34 33 30 28 28 27 26 25 24 22 20 19 18 21 21 20 28 30 17 18 17 16 17 18 20 21 19 21 22 26 30 32 35 37 38 39 39 40 40 41 42 43 43
32 32 30 29 28 27 26 25 23 20 20 20 17 20 17 18 18 16 19 17 16 16 17 18 20 18 19 21 21 24 25 30 34 36 37 38 39 40 40 41 41 42 42
31 31 29 28 28 28 26 24 22 19 19 20 18 16 15 15 14 16 17 17 18 16 17 20 19 18 18 19 20 21 23 27 31 34 35 36 37 38 39 40 40 40 41
29 28 27 27 26 26 24 18 19 19 19 18 18 15 15 14 13 13 16 18 16 15 18 19 18 18 17 17 19 19 23 27 30 33 36 36 37 38 38 38 38 38 38
27 26 25 25 24 23 21 21 20 18 18 17 17 17 16 16 16 16 16 17 18 19 19 18 17 17 16 18 19 21 23 25 29 32 33 34 35 35 36 36 36 36 37
25 23 23 23 22 22 22 21 21 21 19 18 17 17 17 17 16 17 17 17 17 18 17 17 16 16 16 16 19 20 22 25 28 30 31 32 33 33 33 34 34 35 36
23 22 22 21 21 21 21 21 21 20 19 17 17 16 17 17 18 17 18 18 18 18 16 14 13 13 13 17 18 20 23 24 25 27 29 30 30 29 29 29 30 30 31
23 21 20 19 19 18 18 19 20 20 18 18 19 20 19 19 19 19 19 18 17 16 15 11 13 13 16 16 18 20 20 21 22 24 26 27 27 27 27 28 28 28 29
22 19 18 17 16 16 17 18 17 16 16 17 19 19 20 19 19 19 19 19 18 16 15 14 13 16 17 17 18 19 19 20 22 24 24 25 25 26 26 26 26 27 28
18 18 17 17 16 16 16 16 16 15 15 17 18 18 18 18 18 18 18 18 18 17 16 16 16 16 17 18 19 19 20 22 23 23 23 23 23 23 23 24 25 27 29
17 16 16 15 15 16 15 14 14 15 16 17 18 19 19 19 17 16 16 16 17 17 16 17 18 19 19 19 19 21 24 22 22 21 20 19 20 22 24 25 26 27 27
15 14 14 14 15 14 12 12 13 15 16 17 17 19 19 15 14 14 15 15 16 16 18 18 19 20 20 19 22 26 23 20 18 16 18 20 22 22 23 24 25 26 26
14 14 15 15 13 13 12 12 12 14 16 17 18 17 17 16 13 14 15 17 19 19 20 19 19 19 21 26 26 21 19 18 16 17 19 20 21 22 23 24 24 24 24
15 15 15 14 13 12 13 12 15 18 18 19 19 18 17 17 16 17 20 21 20 20 20 20 21 24 27 24 20 17 16 18 19 20 21 21 21 21 22 21 22 23 24
15 15 14 13 13 12 10 18 19 20 19 18 17 16 16 17 19 21 22 23 22 21 23 25 25 27 21 18 16 16 18 20 22 23 20 20 20 20 21 21 21 21 22
15 14 13 12 12 10 19 22 23 20 18 16 16 15 16 19 19 19 21 21 21 23 25 28 26 20 19 15 17 20 22 25 19 20 19 19 21 21 21 21 20 21 22
14 13 12 11 10 11 18 21 22 21 18 17 18 19 19 17 19 19 19 20 24 25 27 21 19 16 16 18 22 24 23 20 20 20 20 20 21 20 20 19 20 22 23
12 11 10 10 11 12 18 19 21 20 16 16 18 17 17 17 19 21 22 26 26 25 20 16 17 18 21 26 29 24 21 21 21 21 20 19 19 18 19 20 21 22 24
10 9 10 11 10 9 15 18 21 19 16 16 16 16 17 18 19 21 22 26 23 18 17 17 19 22 22 19 19 19 21 21 20 19 19 19 18 20 20 20 21 19 21
10 10 10 9 9 10 11 16 20 18 17 16 16 17 17 19 20 21 23 20 19 17 18 22 22 18 16 16 17 18 20 23 21 19 18 19 21 21 18 17 19 20 22

GFSMA_sfc_30mbdewp_012.txt.gz
Dewpoint
58 58 55 53 47 40 35 30 28 28 26 23 21 20 21 23 25 40 46 48 47 48 47 46 46 45 44 45 45 46 47 47 48 49 49 50 50 52 53 54 54 56 56
58 51 48 44 37 31 29 27 24 25 24 22 22 21 21 23 25 30 40 43 42 41 41 40 39 39 39 40 40 40 41 43 43 43 44 44 45 46 48 48 51 52 52
52 48 44 38 32 30 28 25 24 26 25 24 23 22 20 21 24 27 32 38 39 39 37 35 34 34 34 37 40 40 40 41 41 42 42 43 43 44 45 46 49 48 47
49 44 40 34 31 29 27 25 25 26 25 23 21 18 21 23 24 25 25 28 27 32 35 30 27 27 28 31 36 37 39 41 41 41 41 42 42 42 43 45 47 47 47
42 38 35 31 29 28 26 26 26 25 22 21 19 17 28 29 25 23 23 25 25 23 25 24 25 27 25 27 31 33 36 38 39 39 40 41 42 42 42 43 46 46 46
37 36 33 30 29 29 28 27 25 25 21 21 20 22 26 28 25 26 23 21 21 20 21 20 22 22 24 26 28 30 33 35 37 40 40 41 41 42 42 43 43 44 44
38 33 31 31 31 28 27 26 26 22 21 21 21 22 24 27 30 31 18 19 19 18 19 19 21 21 22 22 23 26 29 32 36 38 39 40 40 40 41 43 43 43 43
35 33 32 31 29 28 27 25 22 23 22 21 17 22 18 22 20 18 20 18 17 18 18 20 20 19 20 20 23 23 25 29 33 36 37 39 40 40 41 41 41 41 42
32 33 31 31 31 30 26 24 22 21 21 22 17 17 14 17 15 20 20 18 19 17 18 21 20 19 18 19 22 23 23 27 32 35 36 38 38 39 39 40 40 40 40
32 31 31 30 29 28 24 21 21 20 22 19 21 18 16 15 14 13 20 19 21 19 20 20 19 19 18 19 22 22 22 26 30 32 35 36 37 37 38 38 38 38 38
30 29 29 28 27 24 21 22 22 20 20 20 19 18 18 19 18 16 16 18 19 20 20 20 18 18 17 17 18 19 22 25 28 31 33 34 35 35 35 36 37 37 38
28 28 28 26 25 24 23 23 22 22 20 19 19 19 18 18 18 18 18 18 18 19 20 19 18 17 18 18 20 21 22 24 26 29 30 32 33 33 33 33 32 32 34
26 27 26 25 24 24 24 23 23 22 20 19 18 19 19 19 20 19 19 19 19 19 19 18 16 16 15 18 19 21 22 23 24 26 28 30 30 30 30 30 31 32 33
25 27 24 23 22 22 22 22 22 21 20 20 19 21 21 21 22 21 20 19 18 18 18 16 18 16 18 18 20 19 20 22 22 24 27 28 27 27 27 27 28 29 29
24 24 22 20 19 19 19 20 20 19 17 19 19 21 21 21 21 21 21 20 18 16 16 17 16 18 18 18 20 21 20 21 22 25 25 25 24 25 25 26 26 26 27
21 21 19 18 18 18 17 18 17 16 16 18 20 18 19 20 20 20 19 19 19 18 16 16 17 18 19 19 20 21 20 21 26 26 23 23 23 23 23 25 26 28 29
20 19 18 17 17 17 16 15 15 16 16 18 19 19 20 20 20 18 17 16 17 17 17 16 18 20 20 20 21 20 23 26 25 23 21 22 21 23 24 26 27 26 28
18 18 17 17 17 15 13 13 13 15 16 17 18 18 19 18 17 16 15 16 17 18 18 19 20 20 20 20 21 26 27 23 20 20 19 20 22 23 24 25 25 27 27
16 16 16 16 14 14 13 12 13 14 16 17 18 18 18 18 17 16 16 19 21 21 22 21 20 21 21 24 28 25 21 19 18 18 20 20 22 24 24 24 24 25 25
16 17 16 15 14 14 13 14 17 19 20 20 20 20 19 17 17 17 20 21 22 22 22 21 22 24 24 29 22 19 17 18 19 21 22 24 22 22 23 22 23 24 24
16 15 15 14 14 13 16 19 22 22 21 19 18 18 17 20 20 21 21 22 23 22 22 23 23 25 24 20 20 17 17 18 21 23 21 20 21 20 20 22 23 23 23
15 15 14 13 13 12 20 23 24 22 21 19 18 18 18 21 20 20 20 21 21 22 23 25 27 20 20 17 17 18 20 22 21 21 20 19 20 20 21 22 21 22 23
15 13 12 11 11 18 21 21 22 22 21 20 19 18 19 18 20 20 21 21 22 25 24 23 20 18 17 18 21 23 25 25 21 21 20 20 21 20 20 19 21 23 24
13 12 11 11 13 17 19 20 22 21 19 18 18 17 17 17 18 20 21 23 25 26 26 21 18 18 20 22 26 25 21 21 21 21 21 20 20 19 19 20 22 22 24
11 11 12 12 10 12 17 17 20 20 19 18 18 17 18 19 20 20 23 23 24 21 20 19 19 22 23 21 20 19 20 20 20 19 20 20 19 20 20 20 20 22 21
11 11 10 10 13 10 13 16 19 20 19 19 19 19 20 20 21 21 21 22 20 19 19 21 22 20 19 18 18 18 21 20 20 19 18 21 20 21 17 17 18 19 21

GFSMA_sfc_30mbdewp_015.txt.gz
Dewpoint
57 59 60 60 45 38 31 28 27 25 24 22 21 20 22 24 40 45 49 50 49 47 46 44 44 43 43 43 43 43 44 45 45 45 46 46 46 47 49 50 51 54 54
58 56 50 41 33 29 28 25 24 24 24 24 22 22 21 24 30 41 42 46 42 39 39 38 38 38 38 40 42 43 43 44 43 44 44 44 44 45 45 47 48 50 50
51 47 40 33 30 28 25 24 26 26 24 23 21 18 22 22 24 37 38 40 40 40 36 33 33 33 34 37 39 40 41 43 43 43 43 43 44 44 45 45 46 48 49
50 44 37 32 31 28 25 25 25 25 22 21 19 18 24 24 25 26 33 33 33 35 33 31 29 30 31 33 36 37 39 41 41 41 43 43 44 44 44 45 45 47 48
46 42 35 30 28 27 27 26 26 23 20 19 19 19 29 29 24 24 24 26 26 25 24 29 30 27 28 31 33 35 36 37 39 42 42 43 43 44 45 45 45 45 46
41 37 32 29 29 27 27 26 25 24 21 20 21 24 26 29 25 27 20 23 21 21 20 20 21 22 27 26 28 29 33 36 38 39 41 41 42 42 43 43 43 44 44
37 33 30 29 30 27 27 25 24 21 20 21 19 23 25 27 29 30 20 19 17 20 19 20 21 20 21 24 23 26 29 32 35 38 39 40 41 41 41 41 42 43 43
36 32 31 31 29 28 25 23 24 23 22 21 17 24 17 22 18 20 21 18 18 19 19 21 20 19 18 18 24 23 24 28 31 35 38 39 39 39 40 40 40 41 41
33 32 32 30 30 29 25 22 22 22 20 21 18 17 13 16 16 20 20 19 18 19 21 21 20 20 18 18 21 24 24 25 29 34 36 37 37 38 38 39 39 39 40
33 32 31 31 30 27 23 22 22 22 22 18 21 19 17 16 11 9 18 20 21 19 20 21 20 19 19 19 21 24 22 23 29 32 33 35 36 36 37 37 37 37 39
32 32 31 30 28 24 22 21 20 19 21 20 19 18 18 20 19 16 15 18 19 19 20 20 19 19 18 18 19 21 23 25 27 29 31 33 34 34 35 35 35 36 37
32 31 30 29 25 22 23 22 22 20 20 19 20 19 18 17 17 17 18 18 18 19 20 20 19 17 18 19 20 23 23 25 26 27 28 31 32 32 33 33 34 33 34
31 29 28 26 25 24 24 24 22 21 20 19 18 19 20 19 21 20 20 19 19 20 19 19 18 18 18 19 21 22 23 23 24 26 28 30 30 31 30 30 30 30 30
30 28 27 26 26 25 24 24 23 21 20 20 19 21 21 21 22 22 20 19 18 18 18 17 18 18 19 19 21 21 22 22 23 24 26 28 28 28 27 28 29 28 29
29 26 26 24 24 24 23 22 21 16 17 20 19 21 21 22 22 21 21 20 18 16 15 17 17 18 19 19 21 22 21 22 23 24 27 27 26 25 26 26 27 27 29
27 26 25 24 21 20 20 20 18 17 16 18 20 19 19 21 20 21 20 19 18 17 15 16 17 18 19 21 22 22 21 22 25 27 26 23 24 25 25 25 26 28 28
27 23 21 20 20 18 18 18 17 17 16 17 19 19 20 20 20 18 17 16 16 18 16 18 19 21 21 21 21 21 22 26 26 23 22 23 23 24 25 26 26 27 27
25 24 20 19 18 16 15 14 14 15 16 17 18 18 19 19 17 17 16 16 18 20 20 19 22 22 21 21 22 23 25 25 22 20 20 21 23 24 24 26 26 26 26
23 22 19 17 15 14 13 13 13 15 17 18 18 18 18 19 18 17 17 18 20 20 22 22 22 22 22 24 25 27 23 21 20 19 19 21 23 25 25 25 25 25 26
21 17 17 16 15 14 14 17 20 21 21 21 20 20 19 18 18 17 18 19 21 22 23 22 22 23 24 25 26 21 20 19 18 18 20 23 25 23 23 23 24 24 25
17 16 15 15 15 16 17 20 22 22 21 20 19 18 18 21 22 21 21 22 22 22 22 22 23 24 24 19 19 19 18 18 19 22 23 23 21 21 21 22 22 23 24
16 15 14 14 12 18 24 25 24 22 21 20 19 19 19 21 20 21 20 20 21 22 22 24 24 22 21 19 18 18 19 21 21 23 21 21 21 20 21 22 22 23 24
14 14 13 13 16 23 23 23 23 22 20 19 19 18 19 19 20 19 21 21 22 23 25 24 23 21 19 19 20 22 25 25 22 21 21 20 21 20 21 20 21 23 24
14 12 11 13 16 22 22 21 23 20 20 19 18 18 18 18 19 22 21 22 24 25 25 25 22 21 20 22 25 22 21 21 21 20 20 19 20 19 20 20 21 22 24
14 11 13 12 16 20 17 19 21 20 19 19 19 20 21 20 21 21 22 22 22 23 22 21 21 23 23 21 20 20 19 18 18 17 18 18 19 20 20 20 20 22 21
12 12 11 10 14 10 14 15 18 20 19 20 20 21 22 21 22 22 23 23 20 19 19 20 22 20 18 19 19 19 19 19 19 17 17 19 20 20 18 17 18 19 20

GFSMA_sfc_30mbdewp_018.txt.gz
Dewpoint
60 61 61 62 60 53 34 29 27 25 23 22 22 20 23 38 44 49 52 52 49 47 46 45 44 43 43 44 44 45 45 46 46 46 46 46 46 46 47 48 49 51 52
59 59 59 57 43 33 28 25 25 24 24 23 21 20 23 31 42 44 46 45 43 41 40 38 38 38 40 42 42 43 44 45 45 45 45 45 46 46 46 46 47 48 49
57 56 52 39 31 28 24 26 26 25 23 21 20 18 23 24 39 39 41 40 42 40 35 35 36 36 37 39 41 41 42 43 43 44 45 45 45 46 46 46 46 47 49
53 48 39 32 29 26 25 26 26 22 21 19 18 17 25 24 32 37 37 34 37 33 35 33 31 32 34 36 38 39 40 40 41 44 44 45 45 45 45 46 46 46 46
49 42 35 32 28 26 27 26 25 22 17 18 19 22 30 27 25 28 29 26 29 25 27 31 30 29 30 32 33 33 35 38 40 41 43 43 43 43 43 44 44 44 45
46 39 34 29 28 27 27 26 24 22 20 20 23 25 25 27 25 24 25 23 22 20 20 21 21 26 28 27 27 29 33 36 37 39 40 41 41 42 42 42 42 43 43
43 36 31 29 28 27 27 25 23 19 18 21 21 24 25 26 29 24 21 21 19 20 20 21 21 21 21 26 24 27 28 31 33 36 38 40 40 40 40 41 41 41 41
39 34 31 29 29 28 26 25 24 22 21 20 19 24 19 21 20 21 20 19 19 20 21 21 20 20 19 19 24 23 23 27 30 33 37 38 38 39 39 39 40 40 40
36 33 32 30 29 28 26 24 24 23 19 19 19 18 17 15 17 20 20 19 20 20 20 21 20 20 19 19 22 24 25 24 27 32 35 36 36 37 37 38 38 38 39
35 33 32 30 30 29 24 22 23 23 22 18 20 19 17 16 9 9 18 20 21 19 20 21 20 20 18 19 22 25 26 26 28 31 33 35 35 35 36 36 37 37 39
35 34 32 31 30 27 24 22 21 22 21 21 20 19 19 20 18 15 12 16 20 20 21 20 20 18 19 20 21 25 26 27 29 31 32 33 34 34 35 35 36 37 37
34 34 33 32 29 25 23 22 21 21 20 19 19 19 18 16 18 17 17 18 18 19 20 20 19 18 19 19 20 23 25 26 28 29 31 31 32 33 33 33 34 33 34
34 34 33 30 27 25 25 23 22 20 19 18 18 19 20 19 20 20 19 19 19 20 19 19 18 19 18 19 20 22 24 25 26 28 29 31 31 31 31 31 31 31 30
36 35 32 29 28 27 25 24 22 21 20 20 19 20 21 22 22 22 20 19 17 18 19 16 19 18 19 19 22 23 23 24 24 25 28 29 29 29 29 28 28 29 29
37 34 30 29 28 26 25 23 22 20 20 20 20 21 21 23 22 22 22 21 17 15 15 16 16 18 19 20 22 22 22 22 24 26 28 28 27 26 27 27 28 29 29
36 32 29 28 27 24 23 24 22 19 18 20 21 20 20 21 21 21 21 20 20 17 14 17 16 18 20 22 22 22 22 24 25 26 26 25 25 26 26 27 27 27 29
32 28 28 27 25 23 22 20 19 17 16 18 20 19 19 20 20 20 18 17 16 17 16 18 19 21 22 22 22 22 23 24 25 25 24 24 24 25 26 26 26 27 28
29 28 28 25 23 23 22 17 17 17 16 17 18 19 19 20 18 18 17 16 17 18 19 18 21 22 23 23 22 23 25 25 26 23 23 23 24 24 25 27 27 26 26
27 27 27 26 25 22 16 15 16 16 17 17 18 18 18 19 18 18 18 17 18 20 20 21 22 23 22 23 24 25 26 23 22 21 21 22 23 25 26 26 26 26 26
28 25 25 22 22 20 14 16 18 20 21 21 20 19 19 19 18 18 18 18 19 21 22 22 22 22 23 24 26 22 19 19 19 19 21 23 25 25 24 24 25 25 25
25 22 23 20 19 19 21 22 22 21 20 19 19 18 19 19 24 22 21 22 22 22 21 21 21 23 23 22 20 19 18 19 20 22 22 23 23 22 22 23 23 23 24
26 26 25 25 23 27 28 26 23 21 20 18 18 19 19 22 22 20 21 20 21 22 22 22 24 24 23 21 20 19 19 20 20 22 22 21 21 20 21 21 22 24 25
30 29 24 18 22 26 25 25 25 20 19 19 18 18 18 18 21 19 21 22 22 24 24 24 23 23 22 21 21 21 23 24 21 22 20 19 20 19 20 20 22 23 24
22 20 18 19 23 24 25 24 23 20 19 19 19 19 19 20 20 22 22 23 23 24 24 24 24 23 23 22 25 24 21 21 20 19 19 17 18 18 19 20 21 23 24
29 27 25 21 23 23 21 22 22 19 19 19 20 20 22 22 23 23 23 22 23 23 24 22 22 23 24 23 21 21 20 19 17 17 18 18 18 18 18 18 20 22 22
25 17 12 13 15 14 18 17 21 19 18 19 20 21 22 22 22 23 24 23 21 19 19 21 19 17 18 18 20 20 19 19 18 17 17 18 19 19 17 18 18 19 19

GFSMA_sfc_30mbdewp_021.txt.gz
Dewpoint
62 62 62 62 60 53 42 30 26 24 22 22 21 22 32 44 48 51 52 51 50 48 46 45 44 43 44 45 45 46 46 47 47 47 46 47 48 48 48 48 48 49 51
60 61 61 60 57 44 30 26 25 24 23 22 20 21 28 42 45 47 46 46 45 42 40 40 40 40 42 43 43 44 45 45 45 46 47 47 47 47 47 48 48 48 48
59 60 59 56 46 31 26 26 25 24 22 20 18 21 23 37 40 42 41 42 41 40 38 39 38 38 41 41 41 42 42 43 44 46 46 46 46 46 46 47 47 48 47
59 57 55 48 32 26 26 26 25 22 20 18 17 19 25 27 38 39 37 37 36 34 36 33 33 33 34 37 37 38 39 40 43 43 45 44 44 44 45 45 45 45 46
55 53 49 39 29 27 27 26 25 21 16 19 19 28 30 27 34 35 32 32 31 29 31 32 32 30 31 31 32 33 36 39 39 41 42 42 43 43 43 43 43 44 44
51 47 40 32 29 28 27 26 23 21 19 20 24 25 29 26 26 28 27 25 23 20 21 21 21 26 29 28 28 31 33 34 36 37 40 41 41 41 41 42 42 42 42
48 42 35 30 29 28 27 25 21 17 18 23 24 24 26 26 28 22 24 21 20 20 21 21 21 21 20 27 27 28 26 30 33 34 36 39 40 40 40 40 40 41 41
46 40 35 31 30 28 26 25 23 21 19 20 20 24 22 22 20 22 20 20 20 22 20 21 20 19 19 20 24 29 24 27 30 33 36 38 38 39 39 39 40 40 40
45 41 35 33 30 29 27 26 24 22 17 19 21 20 17 15 19 20 20 20 20 20 20 21 20 19 18 20 24 26 30 28 30 33 35 37 37 38 38 38 39 39 39
45 40 35 32 30 31 28 26 25 24 21 17 19 18 18 19 11 12 18 20 21 19 20 20 20 18 20 22 25 29 30 30 31 33 35 36 37 37 37 37 37 38 38
43 39 35 32 32 32 29 25 24 24 22 21 19 18 19 20 18 13 11 16 20 20 21 20 19 18 19 19 20 25 26 28 30 32 33 34 35 36 36 36 36 36 36
41 39 35 34 33 32 28 24 24 23 22 22 20 19 18 16 17 17 16 17 17 19 21 20 19 19 19 19 20 24 25 27 28 30 32 33 34 34 34 34 34 35 33
40 38 37 36 33 30 29 27 23 22 21 19 18 19 20 19 20 19 18 18 17 20 19 20 19 19 18 19 22 24 26 25 26 28 30 32 33 32 32 33 33 33 32
42 39 39 36 33 30 28 26 24 22 21 20 19 20 21 21 22 21 20 18 16 18 18 16 19 18 19 20 23 24 23 24 24 26 29 30 30 30 30 30 30 30 30
41 40 37 34 32 30 29 27 25 21 21 21 21 21 22 23 23 23 22 21 17 14 15 15 15 18 19 20 23 24 22 23 27 28 28 27 28 28 28 28 29 29 30
39 37 34 33 32 30 28 26 24 22 22 23 23 22 21 22 21 22 21 21 20 17 14 16 16 17 19 21 23 24 23 26 26 25 26 27 27 27 27 27 28 28 28
39 36 34 32 29 28 27 26 24 21 21 21 21 20 19 21 21 21 21 19 17 18 15 16 18 19 21 22 23 23 23 24 25 25 26 26 26 27 27 27 27 28 28
38 34 30 28 27 26 25 25 25 28 27 22 19 20 20 21 20 20 18 17 17 17 17 16 19 21 22 23 23 23 24 25 25 25 25 25 25 25 26 27 27 27 27
34 31 29 27 27 29 30 30 29 26 20 18 18 19 19 19 19 19 19 18 18 18 19 20 21 22 23 23 23 24 25 25 23 22 22 22 24 26 27 26 26 26 27
31 28 28 27 27 28 28 28 28 24 21 20 21 20 20 20 19 19 18 17 18 19 20 21 22 22 22 23 25 23 21 20 20 20 21 24 25 24 24 25 25 26 26
29 27 26 27 28 30 30 30 28 24 20 19 19 19 19 20 22 23 22 21 21 22 22 21 21 21 23 24 22 21 20 20 20 22 22 22 23 22 22 23 23 23 24
27 28 29 29 30 31 32 30 25 22 19 18 17 19 19 21 21 24 23 23 22 22 21 21 21 23 24 23 22 21 21 21 20 22 21 21 21 20 20 21 22 24 25
31 30 30 30 32 34 33 30 26 21 19 18 18 18 18 18 22 19 21 23 23 24 24 24 23 23 22 22 22 22 22 23 21 21 21 19 19 19 19 19 21 23 24
29 29 30 31 31 32 32 31 26 19 18 19 19 19 19 20 21 23 23 23 23 24 24 24 24 24 24 24 24 26 24 21 21 20 19 17 18 18 18 19 21 22 24
31 30 31 31 31 32 31 29 22 19 18 18 20 20 22 23 24 24 23 23 24 25 24 23 22 23 24 23 21 21 20 20 18 17 18 18 18 17 18 18 19 21 22
32 31 30 30 30 24 23 20 23 19 18 18 20 21 22 22 22 23 24 23 21 20 20 21 20 17 17 17 20 20 19 18 18 17 17 18 18 19 17 18 17 19 19

GFSMA_sfc_30mbdewp_024.txt.gz
Dewpoint
63 63 63 63 61 55 47 32 25 23 22 21 21 26 43 48 50 51 51 52 51 49 47 45 45 45 46 45 46 47 47 47 47 48 49 48 48 49 49 49 49 49 50
62 62 62 61 59 49 36 28 25 24 23 21 20 25 40 45 48 47 45 48 46 43 42 43 42 43 44 44 44 45 45 45 47 48 47 48 48 48 48 48 49 49 49
60 61 61 60 57 41 28 26 25 24 21 20 19 22 33 41 44 42 42 41 41 42 41 40 39 41 40 42 43 43 42 43 45 45 46 46 46 46 46 46 46 47 47
60 60 59 58 49 32 27 26 24 22 20 19 17 23 24 37 39 39 38 37 34 35 36 35 34 35 36 37 37 37 38 41 42 43 44 44 44 44 44 44 45 45 45
59 58 58 53 38 29 28 26 24 21 17 19 20 29 27 32 37 37 33 33 32 31 30 35 35 32 32 33 34 35 37 39 39 39 41 42 43 43 43 43 43 44 44
58 57 54 47 32 28 28 26 24 21 19 21 26 28 28 27 30 32 27 27 22 21 21 21 21 26 32 31 31 32 32 33 35 37 38 40 41 41 41 42 42 42 43
55 53 49 41 31 29 28 25 21 18 20 25 25 26 25 27 26 23 25 22 20 21 21 21 21 21 20 28 29 32 29 30 32 35 36 38 40 40 41 41 41 41 42
53 50 47 40 31 30 28 25 21 18 18 23 22 24 24 24 22 22 21 21 20 21 21 20 19 18 19 20 29 32 31 30 32 34 36 38 39 39 40 40 40 40 41
51 50 46 39 33 32 29 26 24 20 16 20 22 22 19 17 22 21 20 20 21 20 21 20 19 18 19 24 28 31 31 32 34 35 37 38 39 39 39 39 40 40 40
51 48 46 40 35 33 31 28 26 24 19 16 19 19 18 22 16 15 19 20 20 19 20 20 19 19 20 20 24 28 29 30 32 34 35 37 37 37 38 39 39 39 39
51 48 45 40 36 34 33 30 27 25 23 20 19 18 18 19 17 13 12 18 21 21 21 20 19 19 19 19 20 26 27 28 30 32 33 35 37 37 37 37 37 37 37
50 48 44 40 40 37 34 31 31 27 24 23 21 20 18 17 16 15 14 16 17 18 21 21 19 19 19 19 22 25 26 28 29 30 33 35 35 35 36 36 36 36 36
48 45 42 42 41 39 36 34 31 28 26 23 21 20 21 19 20 19 17 17 16 19 19 20 20 19 19 20 23 24 27 26 27 29 31 34 34 33 33 33 33 34 33
49 47 43 42 41 37 35 33 31 29 26 23 20 21 21 21 21 20 18 17 15 17 18 16 19 19 19 20 23 25 24 25 25 28 30 31 31 30 30 31 31 31 31
50 45 44 42 39 36 33 32 31 27 25 22 21 22 22 24 23 23 22 19 14 8 13 15 15 18 19 19 22 25 24 25 26 27 27 27 28 29 29 30 30 30 30
46 44 43 40 38 35 33 31 27 24 23 26 28 26 25 23 23 23 22 21 19 16 13 16 16 17 18 19 23 25 24 26 25 26 26 26 28 28 28 29 29 28 29
44 43 41 39 37 34 30 29 26 25 24 24 24 23 23 23 23 22 22 21 20 19 16 17 17 18 19 21 22 23 24 23 24 25 25 26 28 28 28 28 28 28 28
40 40 39 37 34 30 27 25 24 25 26 26 26 26 26 24 22 21 20 18 17 18 17 16 18 19 21 22 23 23 23 24 25 25 26 26 26 26 27 27 27 28 29
39 37 36 33 30 28 27 28 28 30 32 32 31 30 26 21 20 20 19 19 19 18 18 18 19 22 22 23 23 23 24 25 25 23 23 24 24 26 27 27 27 27 27
35 33 30 29 29 29 30 30 29 27 26 26 25 23 21 20 20 20 19 18 18 18 19 20 21 22 22 23 24 24 22 21 21 21 22 24 25 25 25 25 26 26 26
33 32 33 33 34 33 32 31 31 30 30 29 26 24 23 23 24 23 19 21 21 21 21 21 21 21 21 23 24 23 22 21 21 22 22 23 23 23 22 23 23 23 24
31 32 32 33 33 35 36 33 28 26 26 26 26 27 25 24 21 24 25 25 25 23 21 21 21 22 23 24 23 22 21 21 20 22 21 21 21 20 20 21 22 24 25
33 33 34 33 34 35 35 34 32 30 29 28 24 19 18 19 23 20 21 23 23 24 24 24 24 23 22 22 22 22 22 23 22 22 21 20 20 19 19 19 21 23 25
33 33 33 34 35 36 34 33 31 27 20 19 20 19 22 21 23 24 24 23 24 24 24 25 25 24 24 24 24 26 25 23 21 21 21 18 18 18 19 19 21 22 24
32 32 32 32 32 32 34 32 27 21 18 18 20 21 22 22 24 24 23 23 24 25 24 23 23 24 24 23 21 20 20 20 17 17 18 18 18 17 18 18 19 22 22
31 31 31 31 33 31 32 32 26 19 17 18 20 21 22 22 22 23 24 24 21 20 20 21 20 17 17 17 20 20 19 18 18 17 17 17 18 18 17 18 17 19 18

GFSMA_sfc_30mbdewp_027.txt.gz
Dewpoint
65 65 65 65 63 58 50 35 28 26 24 24 26 37 45 50 52 52 53 53 53 50 48 47 47 47 47 47 48 48 47 48 49 49 49 50 49 49 50 50 50 50 50
65 64 64 64 62 57 47 35 28 27 25 24 25 37 44 49 50 48 48 48 48 46 45 44 45 46 46 45 46 45 45 46 48 48 48 48 47 47 48 48 48 48 49
62 64 64 63 61 52 40 30 27 26 25 22 24 31 41 46 46 44 44 43 42 45 44 42 44 41 42 43 43 41 42 43 45 46 46 46 46 46 46 46 46 46 46
60 62 62 62 59 45 34 30 28 26 25 23 23 26 36 42 42 40 40 38 39 39 38 37 37 38 38 38 38 38 39 42 42 43 44 44 44 45 44 44 45 45 45
61 60 61 61 55 43 33 30 27 26 23 23 24 29 28 38 39 36 36 34 36 35 36 39 37 35 35 35 36 37 38 38 38 39 40 42 43 43 43 43 43 44 44
61 60 59 59 50 42 34 30 28 24 23 23 26 29 29 33 37 35 32 29 29 27 24 25 27 28 34 34 34 35 33 33 35 37 38 39 41 42 42 42 42 43 43
60 60 58 55 48 42 35 30 27 24 24 29 29 28 28 29 30 31 28 26 24 23 24 24 23 23 22 28 31 32 33 31 34 35 37 38 40 41 41 42 42 42 42
59 59 57 53 46 40 33 29 26 23 24 29 27 29 26 25 25 24 26 24 22 23 23 22 21 21 22 22 31 32 32 33 34 36 38 39 40 40 41 41 41 41 42
59 58 56 53 45 40 35 30 26 25 23 27 27 27 24 24 25 24 23 23 22 22 22 22 21 20 22 26 30 33 34 33 34 36 37 38 40 40 40 40 40 40 41
59 57 55 53 48 42 38 32 29 26 25 25 24 23 22 26 24 21 22 22 22 21 21 22 20 21 21 21 26 30 30 31 32 33 35 37 37 39 39 39 40 39 40
59 56 55 52 48 42 41 36 30 28 24 25 23 22 21 21 19 20 21 21 21 22 21 21 20 20 20 21 22 27 28 29 31 32 34 36 37 38 38 39 39 39 38
57 55 53 52 50 46 44 40 35 31 27 24 24 23 22 20 19 18 18 19 21 21 22 22 20 20 20 20 21 26 27 28 28 30 33 35 36 37 37 37 37 37 37
55 53 51 50 48 45 45 41 38 36 33 30 26 23 23 22 22 21 20 20 18 20 20 21 21 20 20 20 22 25 27 26 28 29 32 35 35 35 34 34 34 34 35
55 54 51 49 48 46 44 41 40 38 36 33 27 24 23 22 22 21 20 19 17 17 18 17 21 20 20 20 22 25 23 26 26 28 30 31 31 30 30 31 32 32 33
54 53 50 48 47 46 43 40 39 36 33 29 26 26 25 25 26 25 25 20 16 12 12 17 17 20 20 20 20 23 24 25 27 27 27 27 28 29 29 30 31 31 31
52 49 48 47 46 44 42 40 37 32 28 27 28 26 29 30 29 26 24 21 19 15 10 17 17 18 19 17 20 24 24 27 25 26 26 27 27 28 29 30 30 30 30
49 47 46 45 43 41 39 39 36 29 26 27 29 29 27 26 26 26 27 26 24 22 17 18 17 18 18 19 21 23 24 24 23 25 26 26 28 29 29 29 30 30 30
46 45 43 42 41 38 37 34 29 27 27 28 30 30 30 30 28 27 25 24 22 23 19 17 19 19 19 21 23 23 23 23 23 23 25 27 28 28 28 29 29 29 29
43 41 40 39 36 34 32 29 29 30 32 32 33 33 31 30 28 25 23 24 27 27 22 20 17 20 21 23 23 23 24 25 24 23 23 24 25 27 28 28 29 29 29
39 38 35 32 30 30 30 31 31 31 30 29 28 27 28 28 29 30 30 30 29 26 22 23 23 22 23 23 24 23 23 22 21 21 22 24 25 25 25 26 27 27 27
33 32 32 32 32 32 32 32 32 32 31 30 30 30 30 31 32 32 30 29 28 26 26 26 24 23 22 22 22 23 22 21 21 23 22 21 21 21 22 23 24 24 25
34 34 34 34 35 37 37 36 33 32 31 30 29 30 30 30 30 31 32 31 31 29 26 25 24 22 23 23 23 22 21 22 21 21 21 20 21 20 20 21 22 24 26
35 35 36 36 36 37 36 34 32 31 30 30 29 26 27 27 29 28 25 24 25 25 24 25 24 23 23 23 24 24 24 24 22 22 21 20 19 19 20 19 21 23 25
35 35 35 36 36 36 36 34 31 27 26 26 26 27 27 26 24 26 26 26 25 25 25 25 26 25 24 25 25 27 25 22 20 19 19 18 18 18 18 19 21 22 24
32 32 32 32 32 33 33 32 28 26 26 26 24 21 23 23 23 23 23 24 25 25 23 23 23 25 24 23 22 20 20 20 18 17 18 17 18 17 17 18 19 21 22
31 31 31 32 33 32 33 30 24 19 21 22 21 21 22 22 22 24 25 27 22 20 20 22 20 18 17 16 20 19 20 20 19 17 17 18 18 18 17 16 17 18 19

GFSMA_sfc_30mbdewp_030.txt.gz
Dewpoint
61 61 62 64 62 61 56 49 41 35 31 29 28 33 37 42 44 46 51 55 54 51 49 49 50 49 49 50 49 48 48 50 49 50 50 49 49 49 49 49 50 50 50
60 61 63 64 64 61 57 49 41 36 33 30 27 33 38 42 43 44 47 49 50 48 47 46 47 48 47 47 46 46 46 48 47 48 48 47 48 48 48 48 47 48 48
59 60 61 63 64 61 57 48 40 35 32 28 27 32 37 40 42 42 43 43 44 48 45 45 47 44 44 45 43 41 43 45 45 46 46 46 46 46 46 46 46 46 46
59 59 61 62 63 61 54 46 40 35 33 29 27 28 35 39 39 39 40 39 39 41 41 42 40 41 40 39 39 38 40 42 42 42 43 44 45 44 45 45 45 45 45
60 58 59 61 61 59 51 45 40 37 33 30 27 27 31 35 37 36 36 36 37 36 35 38 38 37 36 37 37 37 38 38 37 39 40 41 42 43 43 44 44 44 44
61 60 58 59 60 58 51 45 40 35 33 30 23 26 28 33 36 34 33 32 33 34 32 30 33 32 36 36 35 35 35 34 35 37 38 39 41 42 43 43 43 43 43
62 61 61 59 59 56 53 46 41 34 31 29 29 29 28 30 34 34 32 30 29 28 26 25 25 24 25 28 31 33 34 32 34 37 38 39 40 41 42 42 43 43 43
62 62 61 60 59 56 54 47 39 35 33 31 31 30 27 26 28 32 31 29 27 26 25 24 24 23 24 22 31 32 32 34 35 37 39 40 41 41 42 42 42 42 42
62 62 61 61 58 55 53 48 40 37 34 31 31 30 29 27 27 28 29 29 26 25 24 24 23 22 22 24 28 32 34 33 34 35 37 38 40 40 41 41 41 41 42
62 62 61 61 58 55 52 48 42 38 37 33 30 29 28 31 27 26 26 26 26 24 24 24 22 21 23 23 27 30 30 31 32 34 37 37 38 39 40 40 41 41 41
62 62 61 60 58 54 53 51 44 39 37 38 33 28 26 25 26 27 27 25 24 24 23 23 22 21 22 22 22 26 29 29 31 32 34 36 38 39 39 39 40 40 40
61 61 60 59 58 56 53 52 47 41 37 36 34 30 27 25 23 22 23 25 25 24 23 23 22 22 21 21 22 27 27 28 29 31 33 35 37 38 38 38 38 38 38
58 59 59 58 57 57 55 51 48 45 41 35 34 32 31 28 25 24 24 23 23 22 22 23 23 22 22 21 21 25 25 28 28 29 32 34 35 35 35 35 36 36 36
58 58 57 57 57 56 55 52 49 46 42 39 38 33 30 28 26 24 22 22 22 20 20 19 22 22 21 21 21 25 21 23 28 28 30 31 31 31 31 32 33 34 34
58 58 57 56 55 55 54 52 50 48 45 43 40 35 30 30 27 27 26 24 26 22 20 18 18 20 20 20 21 20 19 23 26 28 29 29 29 29 30 30 31 32 32
55 55 56 55 53 52 51 50 48 47 43 40 36 33 32 31 29 29 26 24 22 19 13 18 19 20 21 19 19 20 21 24 25 26 28 28 28 29 29 30 30 31 31
53 53 53 52 50 49 47 46 44 42 37 35 35 35 33 31 28 29 30 30 29 28 25 24 23 25 24 23 26 26 23 21 22 23 25 27 27 28 29 30 30 31 31
51 50 49 48 47 46 44 43 39 37 37 36 35 34 33 32 32 31 30 30 30 29 28 22 28 29 29 29 29 27 25 23 23 23 25 27 27 28 29 29 30 30 30
47 47 46 45 43 42 40 38 34 33 34 34 34 34 33 33 31 30 28 28 29 31 30 30 29 26 27 29 30 29 27 23 23 23 23 21 23 26 28 29 29 29 29
43 43 41 39 37 35 32 32 33 33 34 34 34 33 31 30 30 30 31 31 31 31 30 28 24 26 27 28 27 23 22 22 21 20 20 23 24 25 26 27 27 28 28
34 34 33 33 32 32 32 32 32 31 31 30 31 32 32 33 33 32 32 31 30 28 27 28 27 26 24 21 20 21 21 20 20 21 20 21 20 20 21 22 23 23 25
35 35 35 34 35 35 35 34 33 33 32 32 31 31 31 32 32 33 34 32 32 31 29 27 26 23 21 22 20 20 21 21 20 21 20 20 20 20 20 20 21 23 25
36 37 37 37 37 38 38 37 34 32 32 31 30 29 29 30 29 28 29 29 28 27 27 26 24 21 20 21 24 25 23 22 21 21 20 19 19 19 20 19 21 22 24
36 36 35 36 36 37 36 34 31 30 29 28 26 26 26 27 26 25 24 27 26 25 24 24 23 23 23 22 23 24 23 22 19 19 19 19 18 18 19 20 21 22 23
32 31 32 32 31 31 33 32 30 29 27 27 27 25 23 22 22 24 23 25 23 23 23 23 23 24 25 24 23 21 19 20 20 18 19 18 18 18 19 20 20 20 22
31 32 31 31 32 30 32 30 25 23 22 22 22 21 22 21 23 24 24 25 22 20 18 20 19 18 17 15 17 19 20 21 20 20 19 19 19 19 19 18 18 19 20

GFSMA_sfc_30mbdewp_033.txt.gz
Dewpoint
63 63 64 63 61 60 57 53 47 41 38 35 33 34 37 40 43 45 55 56 55 52 51 51 52 50 51 51 49 49 50 49 50 50 49 49 49 50 50 49 49 50 50
59 59 61 63 63 62 59 55 49 42 38 36 33 33 36 40 41 43 51 52 52 50 49 49 49 49 49 49 47 46 47 48 49 48 48 48 48 48 48 48 48 48 48
58 58 59 63 62 63 60 57 49 42 39 36 33 33 37 39 41 42 45 48 47 48 47 48 49 46 47 47 44 42 44 46 45 46 46 46 46 46 46 46 46 47 47
59 57 58 61 62 63 62 57 49 42 40 37 34 32 35 38 40 39 41 42 43 44 45 47 44 44 42 40 40 39 41 42 42 42 42 44 44 45 45 45 45 45 46
59 58 58 60 62 62 61 57 50 44 41 38 35 32 33 37 38 37 38 38 39 42 41 41 42 40 39 39 38 38 39 39 38 39 40 40 41 43 44 44 44 44 45
62 60 59 58 61 62 60 55 50 45 43 39 33 30 31 34 36 36 35 35 36 37 36 38 40 36 38 38 36 35 36 35 36 37 38 39 41 42 43 44 44 44 45
62 62 61 59 59 60 59 54 50 45 42 39 31 31 31 30 35 35 34 33 33 35 34 32 33 31 33 32 30 32 34 34 35 36 39 40 41 42 43 43 44 44 44
63 63 62 61 59 59 59 55 50 45 40 37 36 36 33 30 29 33 34 32 31 32 29 28 28 27 27 28 35 32 33 34 36 38 40 40 41 42 42 43 43 43 43
64 63 63 62 61 60 59 56 51 46 42 38 39 38 36 33 30 30 33 33 30 29 28 28 26 25 26 26 32 32 35 34 34 35 37 38 40 41 41 42 42 43 43
62 64 62 63 62 61 59 57 53 47 45 39 38 37 34 35 31 29 30 32 31 28 28 28 26 25 24 27 30 33 32 31 32 34 37 38 38 40 41 41 42 42 42
62 62 62 62 62 61 60 58 54 47 47 44 40 36 34 29 31 32 28 28 29 28 27 27 26 25 25 25 26 30 30 29 31 33 34 36 38 39 40 40 41 41 41
61 62 62 62 62 61 60 57 55 49 48 47 43 37 33 32 28 27 29 29 27 27 27 26 26 25 25 24 26 30 28 28 30 31 33 35 37 38 38 39 39 39 39
59 60 61 61 61 60 59 57 56 51 50 47 46 43 36 36 30 28 29 27 28 26 26 26 25 25 24 24 25 25 28 28 29 31 32 33 34 34 35 35 36 37 37
56 58 59 60 60 59 59 58 57 54 51 49 47 44 39 37 33 33 34 27 23 23 22 23 25 25 24 24 25 26 23 25 25 29 32 31 32 32 32 33 34 34 35
54 55 58 58 58 58 58 57 56 53 51 50 46 43 41 37 34 33 33 34 37 31 25 20 21 22 23 23 23 23 21 20 23 28 30 30 31 31 31 31 32 33 33
50 53 55 56 57 56 56 55 54 52 51 49 47 41 36 34 34 32 31 31 31 31 25 25 24 24 24 24 24 25 22 24 26 27 27 28 29 30 30 30 31 31 32
49 51 53 53 53 53 52 51 50 49 47 41 39 37 36 35 35 35 34 34 33 33 30 28 29 30 29 30 32 32 31 27 25 25 26 27 29 30 30 30 30 31 31
49 50 50 50 50 49 48 47 45 43 40 38 37 36 36 36 35 34 33 32 31 32 32 31 31 31 31 32 32 30 29 28 27 27 28 28 29 29 27 28 29 30 31
48 48 47 47 46 45 44 43 40 39 38 38 37 36 35 34 33 33 32 32 32 32 32 31 31 31 31 30 29 29 29 29 27 24 24 23 23 24 26 28 29 30 30
43 43 41 41 39 38 35 35 36 36 35 35 35 35 35 34 33 33 32 32 32 31 31 30 30 29 27 27 28 27 24 24 23 22 22 22 23 24 26 26 26 27 28
35 35 35 34 34 34 34 35 34 33 33 33 33 34 33 33 33 33 32 32 31 31 30 30 29 27 26 26 24 22 22 22 22 23 22 22 22 23 23 23 23 23 24
37 36 36 35 35 35 36 35 34 33 33 32 31 32 34 34 35 35 34 34 32 30 30 29 27 26 22 21 22 22 24 24 22 23 21 21 23 22 22 22 22 23 24
37 38 38 38 37 37 37 36 34 33 32 31 31 31 31 32 31 31 31 32 31 30 29 29 26 23 22 22 25 25 24 24 23 22 22 20 21 21 22 21 21 23 24
34 33 33 34 35 36 36 35 32 30 29 30 30 30 29 28 27 25 24 26 26 26 26 25 25 24 24 24 24 23 24 23 22 21 21 20 21 20 21 21 22 23 24
31 31 32 31 31 32 34 33 31 30 29 29 28 28 24 22 24 25 24 25 25 23 24 25 24 23 24 25 24 24 23 21 20 21 21 21 20 21 21 21 22 22 22
32 32 31 31 31 31 31 30 30 29 28 24 22 21 21 22 23 24 25 24 23 21 19 20 20 19 18 17 16 18 20 21 22 21 21 20 21 22 22 21 21 22 22

GFSMA_sfc_30mbdewp_036.txt.gz
Dewpoint
62 63 63 60 59 61 60 57 53 45 41 37 35 35 37 40 43 56 56 58 56 55 54 54 54 53 53 51 50 51 50 51 51 50 50 50 50 50 50 50 50 50 50
63 63 63 64 62 61 60 56 52 45 40 37 35 34 36 40 43 55 54 54 54 53 51 52 51 51 52 49 49 49 49 49 49 48 49 48 48 48 48 48 48 49 49
61 62 62 63 63 63 61 59 53 46 41 37 36 33 37 40 42 46 53 51 51 51 50 50 50 49 50 49 46 46 47 47 47 46 46 47 47 47 46 47 47 47 47
59 59 59 62 63 63 63 60 54 46 42 38 36 34 37 39 41 42 48 49 47 47 47 50 49 47 47 44 42 42 44 44 43 42 42 43 44 45 45 46 46 46 46
60 59 59 61 62 62 63 61 56 46 42 40 37 34 35 38 40 40 41 44 45 45 45 46 46 45 42 41 41 41 43 42 39 40 40 41 41 43 44 45 45 45 46
61 60 59 59 62 61 62 61 55 48 44 42 37 34 33 37 38 38 38 39 40 44 42 42 42 40 41 40 40 39 38 37 37 38 39 40 41 42 43 44 45 45 45
62 62 61 60 62 61 61 61 55 49 46 42 35 32 33 32 34 38 36 36 37 38 40 40 40 37 39 40 36 33 33 36 36 37 39 40 42 43 44 44 44 44 44
64 63 62 61 60 61 61 60 54 49 45 41 33 33 32 32 30 33 36 35 34 36 35 36 36 35 33 34 30 35 35 36 37 38 40 41 41 42 43 43 43 44 44
64 64 63 63 62 60 60 60 55 50 45 41 38 37 37 35 30 31 33 35 33 33 33 29 29 28 30 31 38 33 33 37 38 37 37 39 40 41 42 42 43 43 43
63 63 63 63 63 62 61 60 57 52 46 41 39 40 38 36 31 29 32 34 32 31 31 30 27 27 26 32 32 35 36 33 33 34 36 38 39 40 41 42 42 42 42
63 62 62 62 63 63 62 61 59 54 48 45 42 41 41 35 34 33 29 30 32 31 29 29 28 27 25 28 31 37 35 31 31 33 35 36 38 39 41 41 42 42 42
60 62 62 61 62 63 62 61 60 57 51 49 44 44 41 39 34 32 32 29 29 30 29 29 28 27 26 26 28 33 32 30 31 32 33 35 37 38 39 39 39 39 40
58 60 61 61 61 62 62 61 60 58 51 50 48 45 43 43 38 34 34 31 29 28 27 28 28 27 26 26 32 33 31 29 30 31 34 35 36 35 36 36 36 37 37
55 56 59 59 60 60 60 60 59 58 55 51 50 49 47 43 40 38 36 32 30 29 31 33 34 31 29 27 30 29 31 30 29 29 31 33 33 33 34 34 34 35 36
53 54 54 57 59 59 59 59 58 58 56 53 52 50 45 42 41 39 40 39 38 33 29 30 31 32 32 31 33 30 28 27 28 27 29 31 32 32 32 33 33 33 34
49 52 53 54 55 57 57 57 56 55 54 52 50 48 43 39 39 38 37 38 39 37 33 32 32 33 35 34 34 34 32 33 33 33 32 31 30 30 31 33 33 33 33
50 50 51 51 52 52 52 52 51 51 49 46 45 43 40 38 36 35 36 36 36 37 35 32 32 33 33 33 34 34 33 33 30 31 29 29 30 31 31 31 32 31 32
49 49 49 49 49 49 49 48 46 45 44 42 40 39 38 37 37 36 36 35 36 37 35 33 32 32 32 33 33 33 32 29 28 28 29 30 30 29 29 28 28 29 30
45 44 43 43 43 43 44 42 41 41 40 39 39 38 37 36 35 34 34 34 34 34 34 33 32 32 32 32 32 32 30 30 29 29 28 24 24 25 26 27 29 30 30
35 35 35 35 35 35 36 37 37 37 37 37 36 36 36 35 35 34 33 32 32 32 32 31 31 31 31 32 31 28 27 26 26 24 24 24 24 24 24 25 25 26 26
35 35 35 35 35 36 36 35 35 35 35 34 34 35 35 35 35 34 33 32 32 31 31 31 30 30 28 27 26 26 25 24 24 24 23 23 22 23 23 25 25 23 24
38 38 37 37 37 37 37 36 34 33 33 33 32 32 34 35 36 36 35 35 33 31 29 30 29 27 26 22 22 24 24 22 20 24 22 22 22 22 23 23 24 25 25
36 36 37 37 37 37 37 36 34 32 32 31 31 32 32 33 32 31 34 34 33 32 31 30 28 25 22 23 24 23 23 23 23 24 23 22 22 21 23 22 23 24 25
33 33 33 34 35 36 36 35 32 30 30 30 30 30 28 28 29 29 26 26 26 25 26 26 26 25 25 25 25 24 24 23 23 23 22 20 21 21 22 22 24 24 25
31 31 31 31 32 34 34 32 30 30 29 29 28 27 26 26 25 26 25 26 25 24 24 26 24 23 23 24 25 25 23 22 20 20 22 21 21 21 22 22 22 24 24
30 31 31 31 30 30 30 29 29 28 26 24 24 22 21 24 24 25 26 24 23 21 20 19 19 20 20 18 18 19 20 17 18 20 21 22 22 22 21 23 22 22 23

GFSMA_sfc_30mbdewp_039.txt.gz
Dewpoint
59 61 61 62 63 63 62 60 58 54 49 39 36 35 38 39 55 57 59 60 60 58 57 56 55 55 54 52 53 52 52 52 51 51 51 51 50 50 50 50 50 50 51
61 61 62 59 59 61 61 60 57 51 43 39 36 34 36 40 49 56 58 58 58 57 55 55 54 54 52 51 52 51 50 51 49 50 49 49 49 49 49 49 49 49 49
62 62 62 63 61 61 60 59 55 49 42 39 36 33 35 38 48 55 54 54 55 54 54 53 52 53 53 51 49 49 49 49 48 48 48 48 47 47 47 47 47 48 48
62 62 62 62 63 63 62 60 56 50 45 39 37 34 35 38 42 53 52 51 51 50 52 53 52 51 51 50 47 47 48 46 45 44 45 45 45 46 46 46 46 46 46
59 60 60 61 62 63 63 62 59 51 45 41 37 36 34 37 40 42 51 49 48 47 47 52 52 51 50 48 44 44 47 45 43 42 42 42 42 44 44 45 45 45 46
60 59 59 59 62 62 62 62 60 53 46 42 39 36 34 36 39 40 42 48 47 46 45 48 48 47 46 44 43 44 45 44 40 41 41 41 42 42 43 45 45 45 46
62 61 60 59 61 61 61 62 60 57 48 43 38 35 34 33 36 38 39 40 43 45 44 44 43 42 43 43 42 42 40 40 40 40 40 41 42 43 44 44 45 45 45
65 64 62 60 61 61 61 61 59 54 51 43 39 33 30 32 31 32 38 37 38 42 42 42 41 39 39 41 40 37 35 37 39 39 41 41 42 42 43 44 44 44 45
64 64 64 63 62 61 61 60 60 56 51 46 41 39 35 35 33 32 32 37 36 37 38 39 39 37 36 37 37 35 36 37 39 41 41 41 41 42 42 43 44 44 44
63 63 63 63 63 62 61 61 61 58 53 48 42 40 43 38 35 35 33 34 37 34 36 35 35 33 33 32 35 37 35 38 39 38 38 39 40 40 42 43 43 44 44
63 63 63 62 62 62 62 61 60 57 53 51 46 43 43 41 36 34 35 34 36 34 33 33 30 29 29 32 35 36 38 37 34 35 37 37 38 39 41 42 43 43 43
58 62 62 62 62 61 61 61 61 59 56 52 48 47 43 41 41 36 35 34 35 35 32 31 30 28 27 31 34 38 39 36 34 34 35 36 37 39 39 40 40 39 40
56 59 61 61 60 60 60 61 60 60 57 54 50 48 47 47 44 40 38 35 33 33 33 34 33 29 27 29 32 37 35 33 32 32 34 38 38 38 37 37 38 38 38
53 57 58 59 59 59 59 59 59 59 57 55 53 50 48 48 46 43 41 39 35 32 33 34 35 34 31 33 38 37 36 35 37 37 38 37 36 36 36 36 36 36 36
51 53 54 54 55 57 58 58 58 58 57 55 53 52 50 48 46 44 43 42 41 38 32 34 35 37 37 38 39 35 35 38 39 40 39 39 38 39 39 35 34 35 36
51 52 52 52 53 54 56 56 55 54 54 52 51 51 47 44 43 42 42 41 42 40 37 35 35 36 38 38 39 37 37 38 38 39 38 38 39 36 32 32 33 34 34
49 49 49 50 50 50 51 51 51 51 50 48 47 47 44 41 40 39 38 39 40 40 39 34 34 34 35 36 37 36 36 36 36 36 37 38 34 31 32 32 33 33 32
43 44 45 44 44 46 46 46 45 45 45 44 42 41 40 38 37 37 37 37 38 38 37 35 32 32 32 33 34 34 34 35 34 33 32 30 31 32 31 29 29 29 30
36 36 36 36 37 39 40 41 41 40 40 40 39 39 38 37 36 36 36 35 35 35 35 34 32 32 32 33 32 33 33 32 30 30 31 31 27 26 27 27 28 29 29
35 35 35 35 36 36 37 37 37 37 37 36 37 36 36 36 35 35 34 33 33 34 34 34 32 31 32 32 32 30 28 28 28 27 26 26 26 26 25 25 27 27 27
37 36 36 37 37 37 36 35 35 35 34 34 35 35 35 36 35 35 34 33 33 32 32 31 30 30 30 29 27 27 27 25 24 25 23 23 22 22 23 25 25 25 25
38 38 37 37 37 38 37 36 34 33 33 33 32 33 34 35 37 37 36 35 34 32 31 30 30 29 26 26 23 23 24 22 20 23 23 22 23 22 23 23 25 26 26
35 35 35 36 36 37 37 35 34 32 32 32 32 32 32 32 32 32 34 35 35 36 33 30 27 26 23 23 24 23 23 22 22 23 24 21 22 21 22 22 24 25 26
33 33 33 34 35 36 35 34 32 31 30 30 30 29 28 28 29 29 28 27 27 26 25 26 26 26 25 25 25 24 24 23 23 23 22 19 21 21 22 22 24 25 26
30 31 32 32 32 33 32 32 30 28 27 26 27 27 26 25 24 25 25 25 25 23 22 26 24 23 23 24 25 25 23 21 19 19 22 21 21 21 22 22 23 25 25
31 30 29 29 29 27 28 29 27 26 23 23 24 21 23 25 26 27 24 23 22 21 21 21 20 19 19 18 19 18 19 16 15 17 21 21 21 23 20 22 22 22 22

GFSMA_sfc_30mbdewp_042.txt.gz
Dewpoint
59 61 62 63 64 64 62 60 59 57 53 49 39 36 36 39 56 60 60 61 61 60 59 58 57 56 55 53 54 53 53 52 52 52 52 52 51 51 51 51 51 51 51
60 60 61 61 63 63 63 61 59 57 52 47 39 36 35 38 49 58 58 60 61 60 58 57 56 55 55 53 53 52 53 52 52 52 51 51 50 50 50 50 50 50 50
61 60 60 60 60 61 62 61 60 57 52 45 39 36 34 36 43 56 57 58 59 59 58 56 55 54 54 52 53 52 52 51 50 50 50 49 49 49 49 49 49 48 49
62 61 61 62 61 60 60 60 58 55 50 43 39 37 34 36 40 53 55 55 55 55 56 56 55 54 54 52 51 51 50 50 49 48 48 47 47 47 47 47 47 47 47
62 62 62 62 63 63 62 60 59 54 51 46 41 38 35 35 38 45 53 53 52 52 52 54 56 54 54 53 51 50 50 48 47 45 45 45 46 46 46 46 46 46 46
60 60 61 61 62 62 62 62 61 56 52 49 42 38 37 35 38 41 47 52 50 50 49 49 54 53 53 52 51 47 48 48 46 44 44 43 44 44 44 45 45 45 46
63 61 60 59 60 61 61 62 61 60 54 47 43 38 36 35 35 38 41 46 49 48 47 47 51 49 51 51 47 46 46 48 45 43 42 43 43 43 44 45 45 46 46
65 64 62 61 60 60 60 60 60 58 57 48 47 38 39 38 34 33 37 39 43 46 46 45 46 45 45 46 45 45 44 44 43 43 42 42 43 44 44 45 45 45 46
64 64 64 63 61 61 60 60 60 59 57 51 47 47 39 41 37 34 32 37 38 40 44 44 44 42 42 42 44 45 43 39 39 42 43 43 44 43 43 44 44 45 45
62 63 63 62 62 61 61 60 60 60 57 54 49 46 46 40 39 41 34 34 37 37 39 43 43 41 39 39 41 40 39 39 39 41 43 43 42 42 42 43 44 44 45
57 61 62 62 61 61 61 60 61 60 59 58 51 46 44 45 39 38 40 37 39 38 37 38 40 39 36 35 36 38 39 38 38 41 40 40 41 41 41 42 43 44 43
48 55 60 62 61 61 60 60 60 60 58 56 55 52 48 45 46 40 39 40 41 40 38 38 36 35 35 38 39 40 40 39 37 37 38 38 38 40 42 42 42 42 41
51 54 59 60 60 61 60 60 59 59 59 57 56 52 51 49 49 47 46 44 40 39 37 37 37 36 35 36 38 40 43 39 37 36 36 37 42 44 44 44 43 43 41
49 54 57 58 57 58 59 58 57 57 58 57 56 53 51 50 49 48 46 44 40 37 35 36 37 37 38 39 42 44 42 41 40 39 39 41 43 44 44 42 43 44 41
50 52 53 52 53 54 56 57 56 56 57 56 55 54 52 50 49 48 48 47 45 43 38 34 34 38 39 40 42 40 40 41 42 42 42 43 43 42 42 42 42 40 39
50 50 50 50 51 51 53 53 53 52 52 51 51 52 50 46 45 45 44 44 43 43 41 36 35 37 39 40 41 39 39 41 41 41 42 42 41 41 41 42 38 36 35
45 47 47 47 47 47 47 47 47 46 47 46 45 46 44 42 41 40 40 41 41 41 40 37 35 35 37 38 40 38 39 39 38 40 40 40 40 41 40 36 34 34 33
37 38 39 40 42 43 43 43 43 42 43 42 41 41 39 39 38 38 38 38 38 38 38 36 33 33 33 36 35 35 36 37 36 37 39 40 38 35 33 33 32 31 30
35 35 36 36 37 38 39 39 39 39 39 38 38 38 38 37 36 36 36 36 35 35 36 35 32 32 32 33 32 33 33 34 35 37 35 32 33 33 29 28 29 29 29
35 36 36 36 36 36 36 37 36 36 36 36 36 36 36 36 35 35 34 34 34 34 34 34 32 32 32 32 32 31 31 32 30 28 28 28 27 28 28 27 27 27 28
37 37 37 37 37 37 36 35 35 35 35 34 35 36 37 37 36 36 34 33 33 32 32 32 31 31 31 30 30 29 28 26 25 25 24 23 22 22 23 25 26 26 26
36 36 36 36 35 36 36 36 34 33 34 33 33 33 34 34 36 37 37 36 35 32 31 31 30 29 27 26 24 24 23 22 20 23 22 22 24 23 23 23 25 26 28
35 34 35 35 35 36 36 35 34 32 31 31 31 31 31 32 32 32 33 34 34 35 33 30 27 26 24 23 23 23 23 22 21 22 24 21 22 20 22 22 25 26 27
33 33 33 34 35 36 35 34 32 30 29 28 27 27 26 27 28 27 27 26 26 26 25 26 26 26 25 25 24 24 24 23 23 23 24 19 21 20 21 22 24 26 27
31 31 32 31 30 30 29 29 27 25 24 24 25 24 23 23 24 27 24 24 25 22 22 26 25 25 24 24 26 25 23 22 19 19 21 20 21 21 22 22 23 25 27
30 29 28 27 28 25 28 27 25 24 21 21 20 21 26 25 26 28 24 22 21 21 21 22 20 19 19 17 20 20 20 15 15 16 20 21 21 22 19 20 22 21 21

GFSMA_sfc_30mbdewp_045.txt.gz
Dewpoint
59 60 61 62 63 64 63 60 59 58 55 51 48 42 37 38 43 58 61 62 63 62 60 59 58 57 56 55 54 53 54 53 53 53 53 52 53 52 52 52 52 52 52
59 59 60 61 62 63 63 62 60 59 57 54 48 40 36 37 40 56 59 60 62 62 61 59 58 57 56 55 54 53 54 53 53 53 52 52 51 51 51 51 51 51 51
60 59 59 60 61 62 63 62 61 59 58 54 47 42 37 35 39 49 57 58 60 61 61 59 58 57 55 54 54 53 53 52 52 52 51 51 50 50 50 50 50 50 50
62 60 59 60 60 60 61 61 60 59 58 55 50 44 38 35 36 43 53 56 57 59 59 60 58 56 55 54 53 53 52 52 51 50 50 49 49 49 48 48 48 48 48
62 62 61 61 61 60 59 60 59 58 57 54 51 45 40 36 35 38 48 53 55 56 56 56 58 57 56 54 53 53 52 52 50 49 49 48 48 47 47 47 47 46 47
61 62 62 62 62 62 62 61 59 58 56 55 51 47 42 38 36 37 41 51 53 53 53 52 53 56 56 55 54 53 52 51 49 48 46 46 46 46 46 46 46 46 46
61 60 60 60 61 61 61 62 61 60 58 52 50 48 42 39 37 36 39 43 50 51 51 50 50 53 54 56 55 53 50 50 50 47 45 45 45 45 45 46 46 46 46
64 64 62 61 60 60 60 60 61 59 58 52 53 44 48 46 38 36 36 39 42 49 49 49 48 49 51 52 53 54 49 48 50 48 45 44 44 44 45 46 46 46 46
63 64 64 63 61 60 60 60 60 59 58 54 50 52 46 45 42 39 34 35 38 42 47 47 47 47 48 48 50 49 49 47 46 46 45 45 44 45 45 44 45 45 46
56 60 62 62 62 61 60 60 60 59 58 58 52 49 48 43 46 46 38 35 35 37 41 45 46 46 45 45 46 46 47 44 43 41 42 45 45 45 44 44 44 44 45
46 50 57 60 61 61 61 60 60 59 59 59 56 52 48 47 43 42 46 44 42 40 41 40 43 44 44 42 42 44 45 43 40 38 40 44 45 44 43 42 43 44 45
49 50 55 58 60 60 60 60 59 59 59 58 57 54 52 50 47 45 43 45 44 44 44 43 43 43 43 41 42 44 45 45 46 48 48 45 42 42 42 46 47 47 47
47 52 55 58 59 60 60 59 59 59 58 57 56 55 53 52 51 49 47 46 44 42 38 38 39 39 39 41 43 45 46 46 46 46 45 45 46 46 46 45 45 44 45
46 51 55 54 54 55 56 57 56 56 56 56 55 55 54 52 51 49 48 47 44 41 38 40 38 39 40 40 43 46 46 47 47 46 46 45 45 44 44 44 45 45 45
51 51 51 51 51 53 54 55 54 53 53 53 53 53 53 51 50 49 49 48 46 43 42 39 36 37 39 41 43 45 44 46 45 44 44 43 43 43 44 44 44 44 44
47 48 48 48 48 48 49 49 48 48 48 47 47 47 46 44 44 43 43 44 44 43 41 39 36 37 39 41 43 42 42 45 43 43 43 43 43 44 42 42 42 43 42
41 43 44 45 45 44 45 45 44 46 45 44 43 43 41 41 40 40 40 41 41 41 39 39 36 36 37 39 40 39 40 41 40 42 43 42 42 42 41 41 41 40 40
37 37 38 39 40 41 41 41 41 41 41 41 40 40 39 39 38 38 38 38 38 38 38 36 34 33 34 36 36 37 38 38 37 38 39 39 40 40 40 39 37 35 35
36 36 36 36 37 37 37 37 37 37 38 37 37 37 37 37 36 36 36 36 35 36 36 35 33 33 32 33 32 32 33 34 36 37 38 39 39 37 34 34 32 31 31
36 37 37 37 36 35 36 35 35 35 35 35 36 36 36 36 35 35 34 34 34 34 34 33 33 32 32 32 32 32 31 32 32 32 30 30 30 29 29 30 30 29 28
37 37 36 36 36 36 36 34 34 34 35 34 34 35 37 38 37 36 34 34 34 33 33 32 31 31 31 31 30 30 30 28 25 25 24 23 22 22 22 25 25 25 26
35 35 35 35 35 36 36 36 34 34 34 33 33 33 34 35 35 36 36 36 34 32 31 30 30 28 26 26 24 24 24 22 20 23 22 21 23 22 23 23 25 26 27
34 35 36 36 36 36 36 35 33 31 30 29 28 28 28 30 29 29 30 30 29 30 31 29 26 26 24 23 23 23 22 21 21 22 23 21 22 20 21 22 25 26 27
33 33 33 34 34 35 34 33 30 27 25 25 25 24 24 25 26 27 25 26 25 22 26 25 25 25 25 24 24 23 23 23 23 23 24 20 21 20 21 22 24 26 27
31 31 30 28 27 27 28 27 24 23 21 21 21 24 23 25 27 28 24 23 24 22 22 26 25 25 25 26 26 25 22 22 20 18 21 20 21 21 22 22 23 27 28
29 27 26 26 28 25 27 25 22 22 19 18 18 20 25 25 26 26 23 22 20 21 21 22 20 18 17 15 19 22 21 16 15 15 19 21 21 21 18 19 21 21 22

GFSMA_sfc_30mbdewp_048.txt.gz
Dewpoint
60 60 61 61 63 63 63 62 60 58 56 54 51 48 43 38 39 47 59 61 63 64 62 60 60 58 57 56 55 54 54 53 53 54 54 53 53 53 53 53 53 53 53
59 59 59 60 61 62 62 62 61 59 59 57 55 51 44 37 37 42 54 59 61 62 62 60 59 58 56 56 55 55 54 53 53 53 53 52 52 52 52 52 52 52 52
60 59 59 59 60 61 62 62 61 60 59 58 55 51 45 40 37 39 48 56 58 61 62 61 59 59 58 55 55 54 54 54 53 53 52 52 51 51 51 51 51 51 51
61 60 59 59 59 60 61 61 61 60 59 58 57 55 50 43 38 36 43 52 56 58 60 62 61 59 58 56 55 53 54 53 52 52 51 51 50 50 49 49 49 49 48
63 62 61 60 60 60 59 59 60 60 59 58 57 55 51 47 41 37 38 46 52 56 57 59 60 60 59 57 55 54 53 52 53 51 50 50 49 49 48 48 47 47 47
63 62 62 61 61 61 60 59 59 58 58 58 56 53 50 47 44 39 38 43 49 53 55 56 56 57 58 58 55 54 53 53 53 51 50 49 49 48 47 47 47 47 47
60 61 62 62 61 61 61 61 61 60 59 55 55 55 53 47 44 42 40 39 43 50 52 53 53 53 54 58 57 55 53 52 53 52 49 47 47 46 47 46 47 47 47
64 62 61 60 60 60 60 60 60 59 59 55 57 50 52 50 45 40 38 38 39 45 48 50 50 51 51 52 56 57 54 52 51 52 50 48 47 46 46 46 47 46 47
63 63 64 63 62 60 60 59 59 59 58 55 53 56 49 48 45 45 38 36 36 39 44 48 48 49 49 50 52 54 56 54 51 49 52 48 47 46 46 46 45 46 46
45 51 58 61 62 61 61 60 59 59 58 58 53 52 51 47 49 48 43 39 38 37 38 43 46 47 47 48 49 50 52 52 50 50 49 47 48 47 46 46 45 45 46
48 49 48 53 57 59 60 60 59 59 58 58 56 53 51 48 45 46 47 48 45 43 41 40 42 45 45 46 46 47 50 50 50 49 46 45 49 52 49 47 45 46 46
46 50 53 56 58 58 59 59 59 59 59 58 58 56 54 51 49 48 46 45 46 46 44 44 43 42 44 44 45 47 50 50 50 49 48 48 49 52 52 50 50 49 47
45 46 54 56 57 58 59 59 58 58 58 57 56 55 54 53 51 49 48 48 46 44 42 40 39 40 40 42 43 46 48 49 50 50 50 51 50 50 50 49 49 48 48
49 50 52 51 52 54 55 56 56 56 56 55 54 54 53 53 52 50 49 47 45 43 40 41 39 38 39 39 41 44 46 48 50 50 51 51 50 49 47 46 45 44 44
48 49 49 50 50 51 52 53 52 52 51 50 50 50 50 47 47 48 48 48 46 42 42 41 39 37 38 40 41 42 45 46 48 49 50 49 46 45 45 45 44 45 45
44 45 46 47 47 47 47 48 48 48 47 47 46 45 44 44 43 43 44 44 44 44 41 41 37 37 38 41 42 42 44 46 46 49 47 46 45 45 44 45 43 43 43
39 40 42 43 42 43 43 44 44 46 45 44 43 42 41 41 41 41 41 41 41 41 40 39 36 36 37 39 39 40 40 41 41 43 44 44 44 44 44 43 42 42 42
36 37 38 39 39 39 39 39 40 39 40 39 39 39 38 39 38 38 37 37 37 38 38 36 34 34 34 36 37 37 38 38 38 39 40 40 40 40 41 41 41 41 40
37 37 36 36 36 36 36 36 36 36 36 36 36 36 36 36 35 35 35 35 35 35 36 35 34 33 33 33 33 33 34 34 36 37 38 39 40 41 40 39 39 39 35
37 36 36 36 35 35 35 35 35 35 35 36 36 37 36 35 35 35 34 34 34 34 34 34 33 32 33 32 33 32 31 33 33 34 34 33 32 31 31 31 31 31 31
36 36 36 36 36 36 35 34 35 35 35 35 35 35 37 38 37 36 34 34 33 33 32 32 31 31 31 30 30 30 29 27 25 25 24 24 23 22 22 25 25 25 24
35 35 35 35 35 35 36 36 34 34 33 32 31 31 33 33 33 36 36 36 34 30 29 29 28 26 25 24 24 24 23 21 20 23 22 21 23 22 22 23 25 26 27
35 35 36 36 35 36 35 34 32 29 27 25 25 26 27 29 27 26 28 28 28 29 30 28 26 25 24 23 23 22 22 21 21 22 23 21 22 20 20 21 25 26 28
33 33 32 32 32 33 33 31 28 24 23 23 23 22 23 24 28 25 24 25 24 24 26 25 25 24 24 24 24 23 23 23 24 23 24 19 21 19 21 22 25 26 28
31 30 27 26 27 27 27 26 23 21 20 20 21 25 25 25 28 27 23 22 21 23 23 26 25 25 25 25 25 25 23 21 20 18 21 21 20 21 22 22 22 27 27
29 26 25 24 28 25 27 24 21 19 16 17 18 20 24 26 25 25 23 21 18 18 21 21 18 16 15 15 20 23 21 17 15 14 19 21 20 20 17 19 20 21 21

GFSMA_sfc_30mbdewp_051.txt.gz
Dewpoint
60 61 61 62 63 64 64 63 62 60 59 58 56 53 50 45 40 41 49 58 61 64 65 62 61 60 58 57 56 55 54 54 53 54 54 53 53 53 53 53 54 54 54
60 60 59 60 61 62 63 62 62 61 60 60 59 57 53 47 41 40 43 49 58 62 63 63 60 60 58 57 57 55 55 54 53 54 53 53 52 52 52 52 52 52 52
61 60 59 59 59 61 61 62 62 62 61 60 59 58 56 51 45 41 41 46 52 58 61 63 61 60 59 58 56 55 55 53 53 53 53 52 52 52 51 51 51 52 52
62 61 60 60 60 60 60 61 61 60 60 60 59 59 58 56 53 48 42 42 47 52 56 61 62 61 59 58 57 56 55 53 54 53 53 52 51 51 51 50 50 50 49
63 62 62 62 61 60 60 60 60 60 59 59 59 59 58 57 56 53 48 44 43 48 52 56 60 62 62 59 57 55 55 56 54 53 52 51 51 50 50 49 48 48 48
63 63 63 63 62 61 61 60 60 60 59 59 59 58 57 56 55 53 52 48 46 47 49 52 54 57 60 60 58 56 54 54 55 54 52 50 50 50 49 48 48 48 47
62 62 63 62 62 61 61 61 61 60 60 59 57 58 57 56 54 52 50 47 46 45 47 49 51 54 56 58 59 57 55 54 55 55 53 51 50 49 49 48 47 47 47
64 63 62 61 61 61 61 61 61 60 60 58 58 53 54 52 50 48 45 43 42 42 43 46 47 49 52 54 55 58 57 54 53 56 55 52 49 48 48 48 47 47 47
56 63 64 63 63 61 61 61 61 60 59 57 57 57 51 49 48 51 45 41 40 40 41 44 46 48 49 51 52 53 55 57 54 53 56 56 51 49 48 47 47 47 47
46 47 52 58 61 62 61 61 61 60 59 58 55 54 54 51 51 49 49 43 44 44 42 42 43 45 46 48 49 50 52 53 55 54 56 55 58 54 48 48 50 47 46
47 51 53 51 53 56 59 60 60 60 59 59 57 54 53 51 50 50 47 49 49 49 47 45 43 43 44 45 47 48 50 52 53 54 55 54 53 52 54 53 51 50 50
46 48 52 55 57 58 58 58 59 59 59 58 58 56 54 53 50 49 47 47 47 49 47 46 46 45 45 45 46 46 47 48 51 53 53 54 51 50 49 53 53 52 51
46 48 51 54 55 56 58 59 59 59 58 58 57 56 55 53 53 51 50 48 47 47 46 45 43 41 41 41 42 44 45 47 48 50 52 55 52 50 49 51 52 52 50
49 51 51 51 52 53 55 56 56 56 57 55 54 54 54 53 52 51 50 48 46 44 44 45 40 39 40 41 41 42 43 46 46 48 50 53 54 52 51 52 49 48 48
47 48 48 49 49 50 52 53 53 52 52 51 51 52 50 48 49 49 49 49 46 43 42 43 41 39 40 41 42 42 43 44 45 46 47 50 49 49 48 47 47 46 46
42 44 45 46 46 46 47 49 49 49 48 48 47 46 45 45 44 45 45 46 46 45 42 41 39 38 39 40 41 41 42 44 46 46 48 46 46 46 46 45 46 46 44
38 40 42 42 42 42 43 45 45 46 45 44 43 43 42 42 42 41 42 42 41 42 40 38 37 36 37 39 39 40 40 40 40 44 44 43 43 43 43 44 44 43 42
37 38 38 39 39 39 39 40 40 40 40 39 39 39 38 38 38 38 38 38 38 38 38 37 35 35 35 36 37 37 38 38 38 39 40 40 41 40 40 40 40 42 41
37 37 36 36 36 37 37 36 36 37 37 36 36 36 36 36 36 36 36 36 36 37 37 37 35 35 35 34 34 35 35 36 37 38 38 38 39 39 41 40 40 40 40
37 36 36 36 35 35 36 36 36 37 36 37 37 37 36 36 36 36 35 35 35 35 35 35 34 34 34 34 34 33 32 34 33 31 31 32 33 32 33 33 33 32 31
36 36 36 36 36 36 35 35 36 36 35 35 35 36 37 38 37 36 35 34 34 33 33 33 32 31 31 30 29 28 28 25 25 25 24 24 24 24 24 25 26 26 26
36 36 35 36 36 36 36 36 35 34 33 33 32 32 32 32 32 35 35 35 33 32 31 30 28 25 25 24 24 24 24 22 21 24 23 21 23 20 20 20 22 25 25
36 36 36 36 36 35 35 34 31 28 27 26 27 28 28 28 27 26 28 27 29 29 30 28 24 24 23 24 24 25 24 23 21 23 23 19 21 18 19 20 24 26 28
34 33 32 33 33 33 33 31 27 25 24 24 24 24 26 27 28 24 24 25 24 26 27 25 25 25 25 26 25 25 25 24 22 22 23 19 20 19 21 22 25 27 28
31 29 28 28 27 28 27 26 23 22 22 22 24 26 25 26 27 27 23 22 19 22 23 26 24 24 24 24 24 26 24 22 18 16 19 20 19 20 21 21 21 27 27
30 27 26 26 28 26 26 24 22 19 18 17 19 20 26 26 25 25 23 20 17 18 22 21 16 14 15 17 23 22 23 19 18 17 18 21 20 20 21 19 20 21 21

GFSMA_sfc_30mbdewp_054.txt.gz
Dewpoint
59 57 55 55 56 58 58 59 60 58 58 58 57 56 55 53 49 44 44 51 56 61 64 64 62 61 60 58 56 56 55 54 53 54 54 53 54 54 53 54 54 54 54
60 59 58 56 55 57 59 59 59 60 60 60 59 59 57 56 52 49 47 47 50 55 61 63 62 60 61 59 58 56 56 55 54 54 54 53 52 52 53 53 53 51 53
61 60 60 60 59 58 59 60 60 61 60 60 60 59 59 58 57 54 51 49 49 52 55 60 61 61 60 60 59 58 56 55 55 52 54 53 52 52 52 52 52 52 52
62 62 61 61 61 60 60 60 60 60 60 60 60 59 59 59 59 58 58 54 51 50 52 56 60 61 60 59 59 58 57 56 55 53 53 53 52 52 51 51 51 50 51
62 62 62 62 62 61 61 61 60 60 60 60 60 59 59 59 59 58 58 57 55 52 50 50 56 59 63 62 59 58 56 57 56 55 54 53 52 51 51 50 49 49 49
62 63 62 63 63 62 62 61 61 61 61 60 59 59 59 59 59 58 57 55 55 53 52 51 51 51 56 60 61 59 57 55 57 56 55 53 51 51 50 50 49 49 48
62 63 63 63 63 63 62 62 61 61 61 62 60 59 59 57 57 55 55 53 51 51 50 50 49 49 49 56 59 60 59 56 55 58 56 54 52 52 50 49 49 48 48
65 65 65 64 64 64 63 62 62 61 61 61 59 56 53 49 51 52 51 49 48 47 46 46 47 46 47 48 50 57 59 58 56 55 57 57 54 52 51 50 48 48 48
55 61 64 65 64 64 62 63 63 62 61 60 60 58 52 45 50 51 51 48 47 45 46 46 46 47 47 47 49 51 54 55 56 56 56 56 59 56 54 52 51 49 50
47 47 47 50 55 59 61 61 61 61 61 58 58 58 58 56 53 51 51 49 51 49 49 49 47 47 46 47 47 48 50 52 53 54 55 55 57 55 56 54 52 50 50
47 49 52 53 51 50 53 55 56 57 59 58 59 56 56 54 53 52 50 48 49 48 49 49 48 47 47 47 48 48 48 48 49 51 53 53 54 55 56 55 55 53 51
46 47 48 53 55 56 57 57 58 58 58 59 60 58 55 54 53 51 50 49 48 48 49 49 47 45 44 44 44 44 44 46 48 50 52 54 54 56 55 54 55 55 53
46 48 51 52 54 56 57 57 58 58 59 59 59 57 56 55 54 52 51 50 48 48 46 47 44 43 42 44 44 43 43 45 46 48 50 52 53 53 55 52 51 52 55
48 50 51 52 52 53 55 57 58 58 57 57 57 56 55 54 54 53 52 49 46 46 45 45 43 43 43 43 43 43 43 43 45 46 47 48 50 52 56 51 52 50 50
47 48 50 50 50 51 53 53 54 53 53 53 53 53 52 51 51 51 51 50 47 42 42 44 43 42 42 42 42 42 42 44 46 46 46 49 49 48 48 48 48 48 48
44 45 47 47 47 48 49 51 50 50 49 49 49 48 48 47 46 47 47 46 47 46 42 43 41 39 40 41 41 41 41 42 43 46 47 47 46 46 46 45 46 46 46
41 42 43 44 44 45 46 48 47 47 46 45 45 45 44 44 44 44 44 44 43 43 42 41 40 38 39 39 39 40 40 40 40 41 43 43 43 43 43 44 44 44 43
39 40 41 41 41 41 42 44 43 43 43 42 42 42 41 41 41 41 41 41 41 40 41 39 39 38 38 37 37 38 37 38 39 39 41 41 41 41 41 41 41 41 42
39 38 39 39 39 39 39 39 40 39 39 39 39 39 39 39 39 39 39 39 39 38 39 39 37 37 36 35 35 36 36 36 36 35 36 37 36 37 38 40 40 40 41
37 37 37 37 37 38 38 38 38 38 38 38 38 37 37 37 37 37 37 37 37 38 37 37 36 35 35 34 35 33 33 33 31 29 28 27 29 32 32 33 34 32 32
37 37 37 37 37 37 37 37 37 37 36 37 37 37 38 37 37 36 36 36 36 35 35 35 34 33 32 30 29 28 26 24 24 24 23 22 22 23 24 26 27 28 28
36 36 37 36 37 36 37 37 36 36 35 35 34 34 34 34 34 35 35 34 33 32 33 32 32 28 26 24 23 23 23 22 21 24 21 18 19 18 17 18 18 24 25
37 36 36 36 36 36 36 35 33 33 32 32 32 32 30 29 28 29 29 28 30 30 29 26 22 21 20 22 25 26 24 23 20 20 21 17 17 16 18 18 23 27 28
36 36 35 35 35 35 34 31 29 28 27 26 26 26 27 27 27 23 23 24 24 25 26 24 24 25 25 26 25 25 24 23 20 18 20 18 18 18 20 21 23 27 28
34 33 33 32 32 30 29 26 25 25 27 26 25 24 24 26 28 27 23 23 17 21 24 26 24 23 23 24 24 23 24 20 18 13 17 19 19 19 20 20 21 26 27
32 31 31 30 30 29 26 25 24 18 18 15 16 19 26 25 26 26 24 19 14 16 20 21 15 12 14 16 22 19 20 22 19 21 19 21 21 21 23 21 20 21 22

GFSMA_sfc_30mbdewp_057.txt.gz
Dewpoint
57 54 52 52 53 54 56 56 58 57 57 58 57 57 56 55 54 50 48 51 50 55 60 63 63 63 61 60 58 56 56 55 54 54 55 53 54 54 54 54 54 53 53
59 58 56 54 52 54 56 57 58 59 59 59 58 58 58 58 57 54 52 51 48 50 55 60 61 60 60 61 59 58 57 56 55 54 54 53 53 52 53 53 53 51 52
60 59 59 59 58 56 57 58 59 59 59 59 59 59 59 59 58 58 57 55 53 51 52 55 57 59 60 59 60 60 58 57 56 54 53 54 53 52 53 52 52 51 52
61 61 61 61 61 60 60 59 59 59 59 59 59 59 59 59 58 58 58 58 57 54 55 54 56 57 59 60 59 60 60 58 57 56 53 54 53 52 52 52 51 51 50
61 61 61 61 61 61 61 61 60 60 60 60 60 60 59 59 58 58 58 58 58 57 55 55 56 56 58 61 60 58 58 59 58 57 56 55 54 53 52 52 51 51 50
62 62 62 61 61 62 62 62 60 61 61 60 59 59 59 60 59 58 57 56 54 55 55 54 54 54 54 56 57 59 58 58 58 59 57 56 55 53 52 51 50 50 49
62 62 63 62 62 62 61 61 61 60 61 61 61 60 60 58 56 56 54 53 51 51 51 50 51 51 51 56 56 56 58 58 58 58 59 58 56 54 53 52 50 49 49
64 64 65 64 64 64 64 62 62 62 62 62 60 58 55 51 52 53 52 51 50 49 48 48 48 48 49 49 52 53 56 58 58 58 58 58 59 58 55 53 51 50 49
58 62 64 65 65 65 64 64 63 62 61 61 61 58 53 48 50 51 52 51 49 49 50 49 48 48 49 48 49 50 51 51 53 55 56 56 56 58 59 57 54 51 50
47 47 47 48 50 57 61 60 61 61 61 59 60 60 59 57 52 50 52 51 50 48 49 49 48 48 48 49 49 49 48 49 51 52 52 54 54 56 58 57 55 53 51
47 47 50 52 53 52 51 52 54 56 58 57 56 56 57 56 54 53 50 50 49 48 47 50 48 48 47 47 45 45 46 47 49 51 52 53 53 54 55 57 55 53 53
45 47 48 49 53 54 55 57 57 57 57 56 56 56 56 54 53 52 51 51 49 49 48 48 46 45 45 45 45 45 45 46 47 49 50 51 52 54 55 55 56 54 53
45 46 50 50 51 54 55 55 55 56 57 57 57 57 58 56 54 53 51 51 50 48 46 47 44 44 44 44 44 44 45 45 46 47 48 49 50 50 52 54 55 56 54
46 48 49 50 51 52 54 55 57 57 57 58 58 57 56 55 54 54 52 51 48 47 45 44 44 43 43 43 43 43 43 44 46 46 46 46 49 51 53 54 54 53 52
46 47 49 50 50 51 52 53 54 53 53 53 53 53 52 51 52 52 52 51 48 43 42 44 44 43 42 42 42 42 41 44 46 48 48 49 49 48 50 53 52 50 50
44 45 47 48 48 49 49 51 51 50 50 50 49 49 49 48 48 48 48 48 48 47 43 44 43 41 40 41 41 41 41 42 43 44 45 45 46 47 47 47 47 47 47
42 43 44 45 45 45 46 49 48 48 47 47 47 46 45 46 46 45 46 45 45 45 43 43 41 40 40 39 39 39 39 39 41 41 43 43 43 43 43 43 44 44 44
40 41 41 42 42 43 43 45 45 45 45 44 44 44 43 42 43 42 43 42 42 41 42 41 39 38 38 38 37 37 37 37 38 38 40 40 40 41 42 42 41 41 42
39 39 39 40 40 40 41 41 42 41 41 41 41 40 40 41 40 40 40 40 40 40 40 40 38 38 38 36 35 36 36 36 36 34 32 34 35 36 37 38 39 39 40
38 38 38 38 38 39 39 39 39 39 39 38 38 38 38 38 38 39 38 38 38 39 38 38 37 37 36 35 35 34 32 33 30 28 27 27 28 29 31 33 34 33 33
37 37 37 37 38 37 38 38 38 38 38 38 38 38 38 38 37 37 37 36 35 35 35 36 35 35 33 32 29 28 26 25 25 25 24 23 21 23 23 25 28 29 28
37 37 37 37 37 36 38 38 37 37 37 36 35 35 35 34 36 36 35 34 33 32 32 32 32 31 28 24 22 24 24 24 23 24 22 20 20 19 18 18 24 25 27
37 37 37 36 36 35 37 36 36 35 35 35 35 34 31 29 29 30 30 29 30 29 27 26 23 21 21 24 27 27 26 24 23 22 21 19 18 18 20 19 22 26 28
37 37 37 36 34 35 34 32 31 30 29 28 28 28 28 27 26 22 23 23 24 25 27 25 25 26 26 27 26 25 25 24 23 21 20 19 20 20 22 22 26 26 30
35 35 35 34 34 33 31 28 27 27 28 27 25 24 24 26 30 27 24 24 18 20 25 26 24 23 22 23 23 24 25 23 22 14 19 20 22 21 22 22 23 24 28
34 33 32 32 31 30 27 25 25 20 19 16 17 22 26 26 26 26 25 20 15 16 19 22 19 18 17 16 21 20 20 23 23 23 22 22 24 23 24 24 22 23 24

GFSMA_sfc_30mbdewp_060.txt.gz
Dewpoint
56 56 54 55 55 57 58 58 58 58 57 57 58 57 57 56 56 54 50 51 51 52 56 60 64 63 62 61 59 57 56 56 54 54 55 54 54 54 54 55 54 54 53
59 58 56 53 53 55 57 57 58 59 59 59 59 59 59 58 58 57 54 53 50 50 52 54 58 59 60 62 62 60 58 57 56 54 55 54 53 52 53 53 53 53 52
60 60 59 58 56 55 56 58 59 59 59 60 59 59 59 59 59 59 58 55 54 51 52 55 55 57 59 60 60 61 61 58 57 56 54 54 54 53 53 53 53 51 51
61 61 60 61 61 60 59 59 60 60 60 60 58 59 59 59 59 59 59 59 59 56 54 54 56 57 57 58 60 60 60 61 58 58 56 55 55 54 53 52 52 52 50
60 61 62 62 62 62 61 61 60 59 59 60 60 60 60 59 59 59 58 58 58 58 56 56 56 56 57 57 57 59 59 60 60 59 58 56 55 55 53 52 52 51 50
62 62 62 62 60 61 61 61 61 61 61 61 59 60 61 61 60 60 58 58 56 53 54 54 56 55 54 55 57 56 57 58 59 59 59 59 57 56 54 53 52 51 51
62 63 63 61 62 62 62 62 61 60 59 61 60 60 59 60 59 58 58 56 51 50 49 49 50 50 50 55 57 57 58 58 58 58 58 59 59 58 56 54 53 51 50
64 65 65 65 65 64 64 64 63 62 61 62 60 58 54 53 53 57 52 52 49 49 48 48 48 49 49 50 54 53 53 54 54 56 57 58 58 58 58 57 55 52 51
55 58 62 64 64 64 64 64 63 62 61 61 61 57 52 50 52 52 52 51 49 49 50 49 48 48 49 50 49 48 50 51 53 53 53 55 56 56 58 58 57 54 52
48 48 48 48 49 53 60 62 61 61 60 58 60 60 58 57 53 48 52 51 49 48 48 49 49 48 48 47 45 47 48 50 51 52 53 54 54 54 55 57 57 55 53
47 48 50 50 53 53 52 51 52 57 58 57 56 55 55 55 55 53 50 50 50 49 48 48 46 45 45 45 45 45 47 48 49 51 52 52 52 54 56 56 56 56 54
46 47 48 50 51 53 55 56 56 56 56 56 56 54 53 54 53 53 52 51 50 50 49 46 45 44 45 45 44 45 46 46 47 48 50 51 51 51 52 54 55 55 58
45 47 50 50 51 52 54 55 55 54 55 54 54 54 56 56 55 53 52 51 50 50 47 44 44 44 44 44 43 44 44 46 47 48 48 48 48 49 50 51 52 56 55
47 48 49 50 51 52 52 55 56 56 56 55 56 57 57 56 55 54 53 51 49 49 46 44 43 43 43 43 43 43 42 45 47 49 49 50 49 51 53 53 53 54 55
46 46 48 49 50 50 51 51 53 53 53 53 53 54 53 53 53 53 52 51 49 45 44 43 42 42 41 42 42 41 41 44 45 46 46 47 48 49 50 53 53 52 52
44 44 46 47 47 48 48 50 51 51 51 50 50 50 49 49 49 49 49 48 48 46 43 43 41 39 40 41 41 40 40 41 42 44 44 44 44 45 47 48 48 49 49
42 42 43 44 45 45 45 48 48 48 47 47 47 47 45 46 46 46 45 45 45 43 43 41 41 39 39 38 38 38 38 38 40 41 42 43 43 43 43 43 43 44 45
40 40 41 41 42 42 43 43 46 45 45 44 44 44 43 43 42 42 42 42 42 41 41 40 39 38 37 37 36 36 37 37 37 37 37 39 39 39 40 42 42 42 42
40 40 39 40 40 40 40 40 42 41 41 40 40 41 40 41 40 40 40 40 39 40 40 39 38 38 37 35 34 35 35 36 37 34 30 30 31 34 37 38 38 38 40
39 38 38 38 38 39 39 39 39 39 38 38 38 38 39 39 39 38 38 38 38 38 38 38 36 36 36 35 34 33 27 30 27 25 26 26 25 28 30 31 34 33 34
37 38 38 38 38 38 38 38 39 39 38 38 38 38 37 38 38 38 37 36 36 35 35 35 35 33 33 31 26 26 24 24 25 24 23 22 21 22 21 25 28 28 28
37 37 37 37 37 37 38 39 38 38 38 37 36 36 36 37 37 36 35 34 34 33 32 32 32 31 25 23 26 25 24 24 22 24 20 18 21 18 19 18 23 24 27
37 37 37 37 36 37 38 38 37 37 36 36 35 33 31 30 30 31 32 32 30 28 27 25 23 22 24 25 26 26 26 24 23 23 20 16 20 19 22 22 24 26 27
37 37 37 36 35 35 35 34 33 31 30 30 30 30 30 27 24 23 25 24 25 27 27 27 26 26 26 27 26 25 24 24 24 23 20 17 21 21 22 22 27 27 30
36 36 36 35 34 33 33 31 28 27 26 25 25 25 26 28 28 26 24 21 20 23 26 25 24 22 21 21 21 23 22 22 21 17 21 20 22 23 23 24 25 24 28
35 34 34 33 33 30 29 26 26 25 23 22 22 25 26 28 27 27 26 21 16 17 19 22 20 21 18 16 20 21 20 20 22 22 22 20 23 24 21 25 25 25 25

GFSMA_sfc_30mbdewp_063.txt.gz
Dewpoint
57 57 59 60 60 61 62 62 61 59 58 57 57 56 56 56 56 55 50 51 51 53 54 56 62 63 62 62 60 58 57 57 55 54 55 54 54 54 54 55 55 54 54
56 56 55 55 55 56 57 57 57 59 59 59 59 59 59 58 58 57 56 53 53 52 54 55 56 58 60 61 62 62 59 58 57 55 55 54 53 52 53 53 53 53 52
58 58 58 55 54 54 55 57 58 59 59 60 59 59 59 59 59 59 58 56 55 54 53 56 57 57 58 59 60 60 61 60 58 57 55 55 55 53 53 53 53 52 51
60 60 60 60 59 57 57 58 59 59 59 60 59 59 60 60 60 59 59 59 59 57 54 56 57 57 58 58 58 59 60 60 60 59 57 55 56 54 54 53 53 53 52
61 61 61 61 62 61 61 60 60 60 59 59 60 60 60 60 60 60 59 58 58 58 57 56 57 57 56 57 57 57 58 59 59 60 60 58 56 56 54 53 53 52 51
60 61 61 62 62 61 61 61 61 61 61 59 60 59 60 60 60 60 60 59 56 54 53 53 54 54 54 57 57 57 57 58 58 59 60 60 59 57 56 54 54 52 51
62 61 62 62 62 62 61 62 61 61 60 61 59 59 59 59 59 58 59 56 50 49 49 49 49 50 52 56 56 56 56 56 56 57 59 59 59 59 58 56 55 53 52
65 64 64 63 64 63 63 63 63 62 61 61 58 58 56 53 53 54 54 50 49 49 48 48 49 49 51 50 51 51 52 53 54 55 54 55 56 57 58 59 58 55 53
55 57 61 63 64 64 63 63 63 62 59 60 61 58 54 49 52 52 52 50 49 49 49 48 48 49 48 46 47 48 50 51 53 54 54 54 54 55 55 57 58 56 54
50 49 49 49 49 50 54 59 61 60 59 58 59 60 59 56 52 49 52 52 50 48 50 48 48 47 45 44 45 48 48 49 51 52 53 53 53 53 54 56 57 57 55
48 48 49 49 51 53 53 51 51 52 58 57 56 56 56 55 54 52 50 50 50 49 49 47 46 45 45 44 44 47 47 48 49 50 51 52 52 51 54 54 55 56 57
47 47 48 50 50 52 54 56 56 55 55 55 55 56 53 52 52 52 51 51 50 50 47 45 45 45 45 43 45 46 46 47 49 50 49 50 49 50 51 51 53 53 55
46 49 50 50 50 51 53 54 55 55 54 54 53 53 53 53 54 53 52 51 51 50 45 44 44 43 43 43 44 43 45 45 47 51 51 50 48 50 53 51 51 51 54
47 49 49 49 50 51 52 53 54 55 55 55 54 55 55 56 55 54 53 51 50 50 46 43 43 42 43 42 43 42 42 45 46 47 47 48 49 50 52 54 52 54 55
46 46 47 48 49 50 50 51 51 52 53 53 53 54 53 53 54 54 53 52 50 46 47 42 42 40 41 41 41 40 41 43 44 45 45 45 46 47 49 50 52 52 53
44 44 45 46 47 47 48 49 50 51 51 51 51 50 50 50 49 49 49 49 48 47 44 42 40 39 40 40 39 39 40 40 41 42 44 44 44 44 45 46 47 48 49
42 42 43 43 44 44 44 45 48 48 48 48 47 48 46 47 47 46 45 45 44 44 43 41 40 39 39 37 37 38 38 37 38 39 40 41 41 41 43 43 43 44 46
41 41 41 41 42 42 42 43 46 46 46 45 45 45 43 43 43 43 42 42 42 41 41 41 39 37 37 36 35 36 36 37 36 35 36 37 38 38 40 41 41 42 42
40 40 39 40 40 40 40 40 43 43 42 42 42 42 41 42 41 40 41 40 39 39 39 39 37 38 37 36 34 34 35 34 36 31 30 29 30 31 34 38 38 38 38
39 38 38 38 39 39 39 39 39 39 38 38 38 39 39 40 39 38 38 38 38 38 38 37 36 36 36 36 33 30 26 26 27 24 25 28 27 27 29 29 33 32 32
38 38 38 38 38 38 39 39 39 39 38 38 38 38 38 39 39 39 37 37 37 36 35 35 35 34 34 32 26 25 23 24 24 22 21 20 20 20 21 27 29 29 28
37 37 37 37 37 37 39 40 39 38 38 37 37 38 38 38 37 37 36 35 34 33 33 33 33 31 26 23 25 24 24 23 19 24 20 17 20 18 21 19 24 26 27
36 37 37 37 36 38 39 40 39 38 37 36 36 34 32 33 33 33 33 33 29 28 30 27 25 23 23 24 24 25 24 23 22 23 21 13 21 20 22 22 26 26 29
36 36 37 37 36 36 37 37 36 35 35 34 34 31 29 25 25 26 26 26 26 27 27 26 25 26 26 27 26 25 24 24 24 22 20 15 21 22 23 23 27 27 30
37 37 37 35 34 34 34 34 30 28 28 28 27 26 28 25 26 26 23 21 20 24 26 26 25 23 22 22 23 22 22 22 20 19 22 19 22 23 23 25 24 26 27
36 36 35 35 34 33 33 30 27 25 23 23 24 25 29 29 31 28 25 23 16 18 20 22 19 22 18 17 20 20 20 19 21 21 22 21 22 23 19 23 25 25 24

GFSMA_sfc_30mbdewp_066.txt.gz
Dewpoint
62 62 61 61 60 61 61 61 61 60 60 59 57 57 56 56 55 55 53 51 53 54 55 56 61 64 63 62 61 59 58 57 56 55 55 54 54 54 55 55 55 54 54
58 58 57 60 59 59 61 60 61 60 59 59 59 59 59 58 58 57 57 54 53 54 56 56 57 58 59 60 61 62 61 59 58 56 56 55 54 53 53 54 53 53 53
56 56 56 54 56 55 57 57 57 59 59 59 59 59 59 60 59 59 59 58 57 56 56 57 58 57 58 58 59 60 60 60 60 59 57 57 55 54 53 53 53 53 52
58 58 58 58 56 55 55 56 58 59 59 59 59 59 60 60 60 60 59 59 59 58 57 57 59 58 58 58 57 57 58 60 60 61 60 58 56 55 54 53 53 53 52
60 60 60 60 61 60 58 58 59 60 59 58 59 59 60 59 60 60 60 60 59 58 57 57 57 56 56 57 57 57 57 58 59 59 60 60 58 57 56 55 54 53 52
61 61 61 61 62 62 61 61 60 61 61 60 60 59 58 60 59 58 59 60 56 55 54 53 52 56 59 59 59 59 58 57 57 58 60 60 59 59 58 56 55 54 52
60 60 61 61 62 61 61 61 61 60 60 61 59 57 58 58 59 58 57 58 52 50 49 49 50 53 54 54 55 55 55 55 56 56 55 56 58 59 59 59 56 55 54
62 62 62 62 63 63 62 62 62 61 61 61 57 57 54 53 53 53 53 50 49 49 48 49 49 51 49 50 51 52 52 54 54 55 54 54 55 55 57 58 58 58 55
64 64 64 64 64 64 63 63 63 62 59 59 60 57 53 50 52 52 50 49 49 49 48 49 49 48 47 47 48 49 50 50 52 53 53 53 53 54 54 55 56 57 57
53 53 51 51 51 52 53 55 60 59 58 56 57 59 59 57 52 50 51 52 50 50 48 48 48 45 44 45 48 49 48 49 50 51 52 52 52 52 52 56 56 56 57
53 53 52 51 51 52 53 52 51 51 55 57 56 55 55 55 55 53 49 49 50 49 48 46 45 45 44 45 46 47 48 48 50 51 50 51 51 51 53 53 53 56 56
50 50 49 49 50 51 52 54 55 55 55 55 55 55 55 52 51 51 50 50 49 48 45 45 45 44 43 45 45 46 47 46 49 52 51 51 50 50 51 53 51 52 53
48 49 50 49 50 51 52 53 54 54 54 53 53 52 53 53 53 52 52 51 51 47 44 44 44 43 43 43 43 44 45 45 47 49 50 50 50 51 54 53 52 52 52
47 49 49 49 50 51 51 52 53 54 55 54 54 54 54 54 54 54 53 52 50 50 44 43 42 42 42 43 42 42 42 44 46 46 46 47 47 49 51 54 54 54 55
47 47 47 48 49 49 50 50 51 51 52 52 52 53 53 54 55 55 54 53 52 48 47 42 41 40 41 41 41 40 40 43 44 45 45 45 45 46 48 49 51 51 53
45 45 45 46 47 47 47 48 49 51 51 51 51 51 51 51 50 50 50 50 49 49 46 42 40 39 40 39 40 38 39 40 41 41 43 43 43 43 45 45 47 48 49
44 43 43 44 44 44 44 45 46 48 48 49 48 49 48 48 47 46 46 46 45 45 45 41 40 39 38 37 37 37 37 37 37 39 40 40 41 41 42 43 44 44 45
42 41 42 42 42 42 42 42 43 46 46 46 46 46 45 45 44 44 43 43 42 42 42 40 39 38 37 37 35 35 36 36 35 36 34 32 35 37 40 40 41 42 42
40 40 40 40 40 40 40 40 41 44 44 44 44 44 43 42 42 41 41 40 40 39 39 40 37 37 37 36 33 32 35 30 32 27 29 30 29 31 32 37 38 38 38
39 39 38 39 39 39 39 39 40 40 39 39 39 40 41 41 40 39 39 39 38 38 38 37 36 36 36 35 33 28 26 25 26 23 24 25 27 28 28 29 32 30 32
38 38 38 38 38 38 38 39 39 39 39 38 38 38 39 39 39 39 38 37 37 37 37 36 35 35 34 33 29 25 23 23 23 23 21 19 21 19 21 28 29 27 26
37 37 37 37 37 37 38 40 39 39 39 38 37 38 39 40 39 38 37 36 35 35 34 34 33 32 28 25 25 24 24 22 16 24 21 17 20 20 22 19 25 26 27
36 36 37 37 36 38 39 40 40 38 37 37 37 36 34 35 34 34 35 32 30 32 32 31 30 28 24 24 24 24 24 23 21 23 21 13 21 20 22 22 28 27 30
36 36 36 37 36 37 38 39 38 37 36 35 35 33 31 28 29 29 28 26 27 26 26 25 24 24 25 26 26 25 23 23 23 22 20 14 21 22 23 24 28 27 29
36 37 37 36 35 36 37 36 34 33 33 32 31 30 28 25 26 27 24 23 23 25 28 28 27 27 28 28 26 24 24 21 18 19 22 20 21 22 23 24 24 29 29
37 37 36 35 35 34 36 34 30 28 28 27 25 26 30 26 29 28 23 21 17 19 23 23 22 20 18 18 23 19 22 19 20 20 22 22 22 22 18 22 25 24 24

GFSMA_sfc_30mbdewp_069.txt.gz
Dewpoint
62 63 62 61 61 60 61 60 60 60 60 59 58 57 56 56 56 55 55 53 54 56 56 57 59 62 63 62 62 61 60 59 57 56 56 54 54 54 54 55 54 54 54
62 62 61 60 59 59 60 61 60 61 60 58 58 59 58 59 59 58 58 57 56 56 58 57 58 58 59 59 60 60 61 61 60 58 57 56 55 53 53 54 53 54 53
60 60 58 57 59 59 58 59 58 58 58 59 59 59 59 60 60 60 59 59 59 58 57 58 58 59 58 58 59 59 59 60 60 61 59 58 57 55 53 53 53 53 53
57 56 56 56 55 55 55 56 57 58 59 59 59 59 59 60 60 60 60 59 59 59 58 58 60 59 58 58 57 58 58 59 60 60 61 59 58 57 55 55 53 53 52
57 58 58 58 59 56 55 55 57 58 59 58 58 59 58 59 59 59 58 59 59 59 58 57 58 56 56 57 57 58 59 59 58 60 60 60 60 58 57 56 55 53 54
60 59 60 60 61 60 60 60 59 60 60 60 59 59 60 59 60 59 58 59 59 56 56 55 57 59 59 59 59 57 57 57 56 56 56 57 59 59 60 58 56 55 54
61 60 61 61 62 61 61 61 61 60 60 60 59 57 57 57 57 56 54 56 54 52 51 50 55 54 56 55 55 55 55 56 55 55 55 55 55 56 58 58 58 57 56
61 61 61 61 62 62 61 61 61 60 60 61 58 56 54 54 52 52 52 52 50 49 49 49 51 50 50 50 52 52 52 53 54 54 53 54 53 54 55 56 57 58 58
63 62 62 63 63 64 62 63 62 62 60 59 59 57 52 50 51 52 50 49 48 49 49 49 48 47 47 48 48 49 50 50 51 52 53 53 52 52 52 54 56 57 58
58 58 58 58 57 55 56 56 60 60 59 58 56 57 58 56 51 49 50 51 50 49 48 49 46 45 45 47 48 49 49 50 51 51 51 51 51 51 52 54 55 55 57
56 56 56 55 54 53 53 52 50 50 54 54 54 54 54 55 56 54 50 50 49 49 47 47 45 44 44 46 46 48 48 49 51 51 51 51 51 51 51 52 53 54 55
55 55 53 51 50 50 51 52 53 54 54 54 54 55 54 53 51 51 51 50 48 47 45 45 45 43 44 45 46 47 47 48 49 50 52 51 51 50 52 52 53 52 52
51 50 50 50 49 50 51 52 53 53 53 53 52 52 52 53 53 52 51 49 49 45 45 44 44 43 43 43 44 44 45 46 46 48 48 48 49 51 53 53 51 50 50
50 50 50 49 49 50 51 51 52 52 53 54 53 53 53 53 53 52 52 49 49 49 44 43 42 42 43 43 43 42 42 45 45 45 45 46 47 48 50 52 52 53 54
49 49 49 48 49 49 50 50 50 50 51 51 51 51 52 52 53 54 54 54 52 48 46 42 41 41 41 41 41 40 40 43 43 44 44 44 44 45 47 49 50 51 52
47 47 46 47 47 47 47 47 48 49 50 50 50 50 51 51 51 50 50 51 51 51 47 42 41 40 40 39 40 38 39 40 42 40 41 42 42 42 44 46 47 48 49
45 44 44 44 44 44 44 44 45 45 48 48 49 49 49 48 48 47 46 46 46 46 46 40 40 39 38 37 37 37 37 37 37 38 40 38 38 41 42 43 44 44 46
42 42 42 42 42 42 42 42 42 43 45 46 47 47 47 45 45 44 44 44 43 42 43 41 39 38 38 37 35 35 35 36 35 35 33 33 33 36 40 40 40 42 42
41 41 40 40 40 41 40 40 40 41 43 44 45 45 45 43 43 42 42 41 40 40 40 40 37 38 37 36 33 32 34 30 27 26 30 32 31 31 32 37 37 37 38
39 39 39 39 39 39 39 39 39 39 39 40 40 41 42 42 42 40 40 39 39 39 38 38 37 36 36 35 33 29 27 25 25 23 24 25 27 27 30 31 30 30 30
39 38 38 38 38 38 38 38 39 39 39 39 39 39 40 40 40 39 38 38 38 37 37 36 36 36 35 33 31 27 25 23 23 23 20 20 20 19 22 25 26 26 28
37 37 37 37 37 37 38 39 40 39 39 38 38 39 40 40 40 39 38 38 37 36 35 35 35 33 31 28 26 24 23 21 14 24 21 17 21 20 22 25 28 27 29
36 36 36 37 36 36 39 40 41 39 38 38 37 37 36 37 36 36 36 33 33 34 34 33 32 31 28 26 25 24 24 23 20 23 21 13 21 20 22 23 28 28 31
36 35 36 36 36 37 39 40 40 37 37 36 36 34 33 31 31 31 29 26 26 25 25 25 26 25 25 25 25 24 23 22 23 22 20 13 21 21 23 25 30 28 29
35 35 36 37 36 35 38 38 36 35 35 34 34 32 30 28 28 30 25 24 25 26 29 29 29 29 30 29 27 25 23 22 18 18 22 20 21 21 23 24 25 30 30
36 36 36 37 36 35 37 36 33 31 32 31 27 27 32 26 28 28 23 22 19 22 23 23 22 20 18 19 25 21 23 19 20 19 22 22 22 21 17 22 24 24 24

GFSMA_sfc_30mbdewp_072.txt.gz
Dewpoint
61 62 62 61 60 59 59 58 59 59 59 59 59 58 57 57 56 56 56 56 56 57 58 57 58 61 63 63 62 62 61 61 60 57 57 55 54 54 54 55 54 55 54
62 62 62 61 60 59 59 60 60 60 60 59 58 58 58 59 59 59 59 58 58 58 59 58 57 58 59 59 60 60 60 60 61 61 58 57 56 54 53 54 54 54 53
61 62 61 60 60 59 59 60 60 58 58 59 59 59 59 59 59 60 60 59 59 59 59 61 60 59 59 59 59 58 59 60 61 61 61 59 58 56 54 54 53 54 53
59 60 59 58 56 59 58 57 57 57 58 59 59 59 59 59 60 60 60 59 60 59 59 58 60 59 59 58 58 58 60 60 60 61 61 60 60 59 57 55 54 53 53
57 58 57 56 56 55 54 55 56 57 58 58 58 59 59 59 59 59 59 58 59 59 59 58 58 57 57 57 58 60 59 57 57 57 58 59 60 60 59 57 56 54 54
57 57 57 58 59 58 57 56 56 58 59 59 60 59 59 59 59 58 58 58 59 57 57 56 57 59 60 59 58 57 56 57 56 56 56 56 57 57 59 59 58 56 55
61 59 59 59 60 60 60 61 61 60 60 61 59 57 56 57 57 53 53 55 56 54 54 55 56 56 56 56 55 55 55 55 55 54 54 54 54 55 56 57 58 59 57
62 61 60 60 61 61 61 61 61 60 60 61 57 55 52 53 52 53 50 51 51 50 50 52 51 50 50 52 52 52 51 52 52 53 53 52 54 53 52 54 56 57 58
62 61 61 61 62 62 62 62 62 61 59 59 58 57 52 49 51 52 50 49 48 48 49 49 48 48 48 48 48 49 50 51 51 52 52 52 52 51 51 51 55 57 57
62 62 62 62 61 60 60 59 61 60 60 58 56 57 57 55 52 47 50 50 49 48 48 48 46 45 47 48 48 49 49 51 51 52 51 51 51 52 53 53 54 55 57
59 59 59 58 58 57 54 53 51 50 54 53 52 53 54 54 54 53 50 50 49 48 48 47 45 44 45 46 46 48 48 50 51 53 53 52 52 52 51 52 53 53 54
57 58 57 57 55 54 53 52 52 53 52 52 53 53 53 51 50 51 50 50 49 47 46 45 45 44 45 45 47 47 47 49 49 49 50 50 49 51 55 52 50 52 52
55 55 54 52 51 51 51 51 52 52 53 52 52 52 52 53 53 52 50 49 48 46 45 45 44 43 43 43 44 44 46 46 47 47 47 48 48 50 52 54 54 54 52
55 54 54 53 51 50 51 51 51 51 52 52 52 53 53 53 52 52 51 50 48 48 45 44 43 43 43 42 44 43 43 45 45 45 46 45 46 48 49 51 51 52 54
55 54 53 51 49 49 49 50 49 49 50 51 50 50 51 51 52 52 52 52 49 47 46 43 42 42 43 42 42 40 40 43 43 43 43 43 43 44 47 48 49 50 51
51 51 48 48 48 48 47 47 47 48 49 50 50 50 50 50 51 50 51 51 51 50 48 43 41 41 41 41 42 38 39 40 42 40 41 41 41 42 44 46 47 48 49
46 46 46 45 45 45 44 44 44 44 45 47 48 48 48 49 49 48 47 47 47 47 46 40 40 40 39 39 38 37 37 37 37 39 39 37 38 41 42 42 44 45 46
44 43 43 43 42 42 42 41 41 41 42 43 45 46 46 46 46 46 45 44 44 43 44 42 39 38 38 37 36 35 36 35 34 34 34 33 34 37 40 40 41 42 43
42 41 41 40 40 40 40 40 40 40 41 42 43 44 45 45 44 43 43 42 41 41 41 41 37 38 37 36 34 33 32 31 27 27 31 33 33 32 33 36 36 37 38
40 40 39 39 39 39 39 39 39 39 39 39 40 40 43 44 43 42 41 41 40 39 39 39 38 37 36 35 33 31 29 25 25 23 24 26 28 27 32 32 30 29 30
39 38 38 38 38 38 38 38 38 38 38 38 39 39 40 41 42 41 40 39 39 38 38 37 37 36 35 33 32 28 27 24 23 24 21 20 19 20 23 26 27 29 29
38 37 37 37 37 38 38 39 40 38 38 38 38 39 40 41 41 41 40 39 39 38 37 36 36 35 34 31 27 26 24 21 15 24 21 16 21 21 22 24 28 29 30
36 36 36 36 36 36 38 40 40 39 38 38 38 38 38 39 38 38 37 35 36 36 35 34 34 32 30 28 26 25 23 22 18 22 21 13 21 20 23 23 30 30 31
36 36 36 36 36 36 39 39 41 38 37 37 37 37 36 34 33 33 29 28 26 24 25 26 29 28 26 26 25 25 23 22 23 22 20 13 21 21 23 25 30 30 30
35 35 35 36 36 36 38 38 38 36 36 35 35 34 32 30 32 33 28 25 24 27 29 30 29 29 29 28 27 24 22 20 17 19 22 19 21 21 23 24 27 30 30
35 35 35 36 37 36 37 38 37 34 34 33 31 31 34 29 29 31 24 22 21 23 24 23 22 21 21 27 28 23 24 19 18 17 22 22 21 21 19 22 24 24 25

GFSMA_sfc_30mbdewp_075.txt.gz
Dewpoint
61 61 61 61 60 59 58 58 59 59 59 60 59 59 58 58 58 58 58 57 57 58 59 58 58 59 61 61 61 62 62 61 61 59 58 56 55 54 54 54 54 55 54
61 62 62 62 61 59 59 59 60 61 61 60 59 59 59 59 59 60 60 60 59 59 60 61 60 59 59 60 60 60 60 61 61 62 61 59 57 55 53 54 54 54 53
62 62 62 62 61 59 58 60 60 60 59 59 59 60 60 60 60 60 60 60 60 59 59 61 61 60 59 59 59 58 60 61 61 61 61 61 59 58 55 55 53 54 53
62 61 62 61 60 60 59 58 58 58 58 58 59 59 59 59 59 60 60 60 60 60 60 59 60 61 60 59 58 58 61 59 58 59 60 60 60 60 58 56 55 54 54
61 60 60 60 58 57 58 58 56 57 58 59 59 59 59 59 59 59 59 59 59 59 60 59 58 60 58 58 59 60 58 57 57 57 57 58 59 60 60 59 57 55 54
60 58 58 58 57 56 55 55 55 57 58 59 59 59 59 59 59 58 58 57 58 59 58 58 57 58 60 59 58 57 57 56 56 55 54 55 56 56 57 59 59 57 56
61 59 58 58 59 59 57 57 57 57 59 61 59 57 57 57 56 54 53 55 56 56 56 57 58 57 57 56 56 55 55 54 54 55 53 52 53 53 54 56 57 59 57
63 60 58 58 60 60 61 61 61 61 60 61 57 56 52 52 53 53 51 52 52 52 53 54 53 52 52 52 53 52 51 52 52 52 52 53 52 52 52 53 54 57 58
64 63 61 61 61 61 62 62 62 61 58 59 59 56 53 50 52 53 52 50 50 50 50 51 50 49 49 49 49 50 51 52 52 52 51 52 52 51 53 54 54 56 57
62 63 63 63 63 63 62 62 61 61 60 58 58 58 58 56 52 47 51 50 50 49 49 49 48 47 48 48 49 49 50 51 52 52 53 53 53 53 52 51 52 54 56
61 61 60 60 60 60 58 57 54 53 57 55 55 53 54 54 54 52 47 50 50 49 49 48 46 46 47 46 47 48 49 50 50 51 52 52 51 51 53 55 54 53 53
59 59 59 59 59 58 57 56 55 53 52 52 52 53 52 50 51 51 50 49 50 50 48 47 45 45 46 46 47 48 48 48 49 49 50 50 49 51 54 55 52 53 52
57 57 57 56 55 55 54 53 53 53 53 53 53 53 54 53 52 51 51 49 48 49 47 46 46 44 45 44 45 45 47 48 47 47 48 49 48 50 52 53 53 54 55
57 57 56 55 55 54 53 53 52 52 52 52 52 52 52 52 52 52 51 49 48 48 47 47 45 44 44 43 45 44 45 46 46 46 46 46 45 47 49 51 51 52 53
56 56 56 55 53 52 52 51 50 50 51 51 51 51 51 51 52 53 52 52 50 44 46 47 44 43 44 44 43 41 42 44 44 43 43 43 44 45 47 48 49 50 52
55 54 52 51 50 49 49 48 48 48 49 50 50 50 50 50 51 51 52 51 51 50 46 45 43 43 43 42 43 40 41 42 42 41 41 41 42 43 45 46 47 48 49
49 50 48 48 47 46 46 45 45 45 45 47 48 49 49 49 49 49 49 49 48 48 47 42 41 41 41 41 40 38 38 38 39 39 39 38 40 41 42 42 44 46 46
46 46 45 45 44 43 43 42 42 42 42 42 44 46 47 47 47 48 47 46 46 45 45 43 39 38 39 39 38 36 36 35 34 35 35 34 35 38 40 40 41 42 43
43 43 43 42 41 41 41 41 41 40 41 41 42 43 45 46 45 45 45 44 43 42 42 42 38 38 38 36 35 35 33 32 27 31 33 34 33 33 36 36 37 37 39
41 41 41 40 40 40 40 39 39 39 39 39 40 40 41 43 44 44 43 43 41 41 40 40 39 37 37 36 34 33 30 29 27 23 25 27 28 31 33 32 29 29 31
40 40 39 39 39 39 39 39 39 38 38 38 39 39 41 41 42 43 42 41 40 40 39 39 37 37 35 34 33 31 31 26 24 25 22 21 20 21 26 28 29 30 30
39 38 38 38 38 38 39 40 39 38 38 38 38 39 40 41 41 42 41 40 40 39 38 37 37 36 35 34 30 29 28 26 25 25 22 18 22 21 23 27 29 30 30
38 38 37 37 37 38 39 40 40 39 39 39 39 38 39 39 40 39 39 38 38 37 37 36 35 35 33 31 29 28 27 25 20 23 21 15 21 20 23 23 31 31 31
37 37 37 37 37 37 39 40 40 40 38 38 38 38 37 36 35 33 31 30 27 26 26 28 32 31 30 30 30 29 26 24 23 22 20 17 20 21 23 28 31 31 31
36 36 36 36 36 36 39 39 39 37 37 37 37 36 35 33 35 35 30 28 25 27 30 30 29 30 30 29 27 25 23 22 19 19 22 18 21 20 23 27 29 31 30
36 36 35 36 36 36 38 39 38 36 35 35 34 33 35 31 33 35 28 26 23 24 26 26 28 27 29 30 28 25 26 21 20 19 21 23 21 21 22 23 25 25 28

GFSMA_sfc_30mbdewp_078.txt.gz
Dewpoint
58 57 56 55 54 53 51 51 51 52 54 57 57 57 57 57 57 57 58 58 58 59 61 60 59 59 61 62 61 61 62 62 62 61 59 57 56 54 54 54 54 54 54
59 57 57 56 56 54 53 53 55 57 57 58 58 58 58 58 58 57 57 57 59 60 61 62 62 60 60 60 61 60 61 61 61 62 61 60 58 56 55 54 54 54 53
61 60 59 59 58 57 53 55 57 59 58 58 58 58 58 57 56 56 57 56 58 59 60 62 62 62 60 60 60 59 61 61 60 61 61 61 61 59 57 55 54 54 53
63 60 59 60 59 58 56 56 58 58 56 56 57 57 57 56 56 56 57 57 57 57 59 60 60 61 61 60 58 60 60 59 58 58 58 59 60 61 60 58 56 55 54
63 61 59 60 60 58 58 57 56 55 55 57 57 56 56 55 56 56 56 56 57 58 58 59 59 60 60 58 59 60 58 57 57 57 56 57 58 58 60 60 58 57 55
60 60 59 59 59 58 56 57 55 55 56 57 56 58 59 56 55 55 55 54 54 57 58 59 58 58 60 60 58 57 57 56 56 56 53 54 55 56 56 58 59 59 57
63 62 61 59 59 58 56 55 55 55 57 59 59 57 55 54 55 54 53 53 54 55 56 57 58 58 57 57 56 56 55 54 53 53 54 54 52 53 53 54 56 58 59
63 62 63 62 59 59 58 56 57 58 59 60 56 55 51 50 52 52 52 52 53 54 55 56 56 55 55 53 53 52 52 52 52 52 52 52 53 51 52 52 53 55 58
63 64 63 63 61 61 61 60 61 60 58 59 60 55 50 46 50 50 52 51 51 52 53 54 53 52 51 51 50 50 51 52 52 52 51 51 52 53 53 53 54 55 57
63 63 64 63 63 62 62 62 63 61 59 57 59 59 57 55 49 42 49 50 51 50 51 51 50 50 49 49 49 49 50 52 53 53 54 53 53 52 53 52 52 52 53
62 61 62 62 62 62 62 61 59 59 59 58 57 55 53 53 52 48 41 42 50 50 50 50 49 48 49 48 48 48 50 51 51 51 51 52 51 50 52 55 52 53 54
61 61 61 61 61 60 58 58 57 56 55 54 53 52 51 49 48 48 46 45 45 47 50 50 49 48 48 47 47 48 48 49 48 49 50 51 50 50 52 54 55 55 54
59 60 60 60 59 58 57 57 56 55 54 53 53 53 53 52 51 49 48 46 46 46 48 49 49 48 47 47 46 46 48 48 48 48 49 49 48 48 51 53 52 52 54
59 59 59 59 57 56 55 55 54 53 54 54 53 53 52 52 52 52 50 48 46 46 46 47 48 47 47 46 46 45 47 47 47 47 47 46 45 46 49 50 50 50 52
59 58 58 57 56 56 55 54 53 52 53 53 53 52 52 52 51 51 51 51 48 46 44 46 48 47 46 45 45 43 44 45 45 44 44 43 44 45 47 48 49 50 51
57 57 57 56 55 54 53 52 51 51 50 51 51 50 50 50 50 51 51 51 51 50 47 48 47 45 45 44 44 41 42 44 43 42 42 41 42 43 45 46 47 47 48
54 54 53 53 52 51 50 49 48 48 47 48 49 49 49 49 48 48 49 49 49 48 47 46 43 43 43 42 41 39 40 40 41 40 40 39 41 41 42 43 44 45 46
51 51 50 49 48 47 46 45 44 44 44 44 45 47 48 48 47 48 48 47 48 49 47 45 41 40 40 41 39 38 37 36 37 38 36 36 36 40 40 40 41 42 43
47 48 47 46 45 44 43 42 42 42 42 42 43 43 44 45 45 45 46 45 47 45 44 44 40 39 39 37 36 36 35 32 29 37 35 35 34 34 37 37 36 37 39
44 44 44 43 42 42 41 40 40 40 40 40 41 41 42 43 44 44 44 45 45 43 43 42 40 38 38 37 36 35 32 32 27 25 27 28 29 33 33 32 29 30 32
42 42 42 41 41 40 40 40 40 40 40 40 40 40 41 42 42 43 44 44 43 42 41 40 39 38 37 35 34 33 33 30 28 29 28 24 22 22 28 28 29 30 30
41 41 40 40 40 39 39 40 40 40 39 39 39 40 40 41 41 42 42 41 41 40 40 39 38 37 37 35 33 31 30 29 29 28 26 23 20 20 21 27 30 30 30
41 40 40 39 39 39 40 41 40 40 39 40 40 40 40 40 41 42 40 40 39 38 38 39 37 37 36 34 32 30 30 32 31 24 24 19 20 19 22 21 31 31 31
40 40 40 39 39 39 40 41 41 40 40 39 40 39 40 39 39 37 35 33 30 28 29 32 35 35 33 33 33 34 33 30 24 22 22 19 19 19 22 27 31 32 31
40 40 39 39 39 39 39 40 41 40 39 39 39 39 38 37 37 36 33 31 28 29 30 29 30 31 32 32 31 30 28 26 21 19 21 18 19 20 22 27 31 32 31
40 40 39 39 39 39 39 40 40 38 37 37 37 37 37 35 37 37 33 31 29 27 26 28 30 31 31 30 28 27 29 29 22 20 20 22 20 20 22 25 28 27 31

GFSMA_sfc_30mbdewp_081.txt.gz
Dewpoint
58 56 55 55 55 53 52 52 50 48 49 50 52 53 55 55 55 55 56 57 58 60 61 61 62 60 61 62 63 62 62 62 61 62 61 59 57 55 54 54 54 54 54
57 55 54 53 53 52 52 50 49 50 51 54 55 56 56 56 56 55 55 58 59 60 61 63 63 63 61 61 61 62 61 61 61 61 61 62 60 58 56 55 54 54 53
57 55 55 56 56 55 51 51 51 53 54 54 55 56 56 55 55 55 54 55 57 59 60 62 62 62 62 61 61 61 61 60 59 60 60 61 61 61 59 57 56 54 53
60 59 59 59 58 56 55 51 53 54 56 55 55 55 55 55 54 53 54 54 55 55 59 60 60 61 61 62 60 61 60 59 58 58 58 58 59 60 60 60 58 56 55
63 61 57 58 58 58 56 54 55 56 55 54 55 55 55 55 53 53 53 54 54 56 57 60 59 59 61 61 59 61 59 57 57 56 55 56 56 57 58 59 60 58 56
63 61 59 60 60 59 58 57 55 55 54 54 55 55 56 55 56 53 53 52 51 53 55 56 59 59 59 60 60 58 57 56 56 55 55 54 53 54 55 56 57 59 59
61 61 61 61 61 60 58 57 56 54 54 57 56 56 56 55 54 54 53 50 49 53 55 56 57 59 58 58 57 56 55 54 53 53 53 53 54 53 52 54 54 56 58
62 62 63 63 62 61 60 60 55 55 55 57 57 55 53 52 52 53 50 50 50 53 54 56 57 57 57 55 55 53 53 52 52 53 53 52 52 53 52 52 52 54 56
62 62 63 63 63 62 61 61 61 57 58 59 60 56 51 49 50 51 53 49 49 51 53 55 55 54 54 53 52 50 51 53 53 52 52 52 53 53 53 52 52 53 54
62 63 64 64 63 63 62 61 62 62 60 58 59 58 57 56 49 45 50 50 49 49 51 53 52 52 51 51 50 49 50 52 54 54 54 53 52 52 51 52 55 55 54
61 61 61 62 63 63 63 62 61 60 60 60 59 57 54 54 53 51 44 44 50 50 49 50 50 50 50 50 50 49 49 51 51 51 51 52 51 51 51 54 55 53 51
60 60 61 61 62 62 61 60 59 58 57 56 55 54 52 48 47 47 47 46 44 46 50 50 50 50 50 49 48 49 49 49 49 49 50 51 50 50 50 54 54 54 54
60 60 61 60 61 60 60 59 58 57 56 55 54 54 53 52 53 51 49 47 46 46 48 50 50 50 48 48 48 47 48 48 48 48 50 50 48 48 49 51 52 51 52
60 60 61 61 61 60 59 58 57 56 56 55 54 54 53 54 54 52 49 48 46 46 46 46 49 49 48 48 47 46 47 47 48 49 48 46 46 46 47 50 50 51 51
60 60 60 60 59 58 57 56 56 55 54 54 54 54 52 53 53 52 52 51 48 44 44 46 48 48 47 46 46 45 45 47 46 45 45 44 44 44 46 47 48 49 49
57 59 59 58 57 56 56 55 54 54 53 53 53 53 52 51 51 51 52 51 51 49 45 49 48 47 46 45 44 43 43 45 44 43 43 42 42 43 44 45 46 47 47
55 56 57 56 55 55 55 54 53 52 51 50 51 51 50 50 50 50 50 50 49 49 47 47 46 44 45 44 42 41 41 41 42 42 42 39 41 41 42 42 43 44 45
51 53 53 53 53 53 52 50 49 48 48 48 48 49 49 48 48 48 48 48 48 48 47 44 44 41 41 42 40 39 38 37 38 39 38 37 37 40 40 40 41 42 43
46 50 50 50 50 50 48 47 46 45 45 44 44 45 46 47 47 47 47 46 46 46 47 45 42 40 39 39 37 37 36 34 32 40 37 36 35 35 37 37 35 36 38
44 46 47 48 48 47 45 44 43 42 42 42 42 43 43 44 45 45 45 45 45 44 44 44 41 39 38 38 37 35 34 33 30 30 32 31 31 33 34 32 30 31 32
42 44 44 44 43 43 43 42 41 41 41 41 41 41 42 42 42 43 43 44 44 43 43 42 40 39 37 36 35 35 34 32 31 30 27 25 25 25 31 29 28 30 30
42 42 42 42 41 41 41 41 41 41 41 40 40 41 41 41 41 42 43 43 43 43 41 40 40 38 38 37 35 34 32 30 31 30 29 29 22 23 22 27 31 30 30
42 42 42 41 41 41 40 41 41 41 40 40 41 40 41 41 42 42 42 41 41 40 40 40 39 38 37 36 34 32 31 32 33 28 29 27 22 21 23 22 31 31 32
41 42 41 41 41 41 41 42 42 40 40 40 41 41 40 39 40 40 40 38 35 33 34 35 37 36 36 35 34 33 32 31 26 23 25 22 21 21 23 26 30 33 32
41 41 42 41 41 41 40 42 42 41 40 40 40 40 39 39 39 39 36 34 31 30 30 29 30 34 33 35 33 33 31 29 26 23 23 21 20 22 23 28 32 32 31
40 40 41 41 41 41 41 41 42 41 39 39 38 38 39 39 38 39 35 33 31 30 28 30 32 33 33 33 33 32 32 30 26 21 22 22 21 22 22 27 30 30 33

GFSMA_sfc_30mbdewp_084.txt.gz
Dewpoint
59 59 60 60 59 58 57 56 55 52 50 49 49 50 53 55 55 56 56 56 58 60 61 62 62 63 61 62 63 63 63 62 61 62 62 61 59 57 55 55 54 54 54
58 57 56 56 56 55 54 53 51 50 49 50 53 54 55 56 56 56 58 57 59 60 61 62 63 63 63 62 62 62 62 61 61 61 61 61 62 60 58 56 55 54 53
58 56 55 55 54 54 53 51 50 50 53 54 55 56 56 56 56 56 56 58 59 59 60 62 63 62 63 62 62 62 62 60 59 59 59 59 60 61 61 59 57 55 54
57 56 56 55 56 57 54 52 51 52 56 56 56 56 56 57 56 55 54 55 58 59 60 61 62 61 61 62 62 62 61 59 58 58 57 57 58 58 59 60 60 58 56
60 60 60 60 60 58 56 55 53 55 56 56 55 56 56 56 55 53 53 54 55 57 58 60 60 59 59 62 61 62 59 58 57 56 55 54 55 56 56 57 58 60 59
63 62 60 59 60 59 58 57 56 56 56 56 55 54 57 56 55 56 54 53 52 53 55 58 59 59 60 61 60 60 58 57 56 55 55 54 54 53 54 55 55 56 58
64 62 61 62 61 60 59 58 57 56 55 55 57 56 56 56 55 55 53 52 52 54 55 56 59 59 60 60 59 58 57 55 53 53 53 53 53 53 53 52 53 54 56
62 62 62 62 62 61 60 60 60 58 56 56 56 56 54 55 56 54 52 50 50 54 55 56 58 58 57 56 56 55 54 53 53 53 53 52 52 53 53 53 52 53 55
63 63 63 63 63 62 61 60 60 60 59 59 59 56 53 50 52 52 51 51 50 51 54 55 56 56 56 54 53 52 52 53 53 52 53 54 53 53 52 52 52 54 54
62 63 63 63 63 63 62 61 62 61 61 58 59 59 59 57 48 49 52 50 49 49 53 54 54 53 52 52 51 50 50 51 54 54 55 54 53 52 52 52 54 55 54
61 61 62 62 63 63 63 62 61 61 61 60 59 59 57 56 53 51 46 48 50 50 50 52 52 52 51 51 50 48 49 51 51 52 52 52 51 52 51 52 54 54 55
60 61 61 61 61 62 62 62 62 60 58 58 57 56 54 52 50 49 48 48 47 47 50 50 50 50 50 49 49 49 49 50 50 50 50 52 51 50 50 51 52 53 53
59 60 60 60 60 61 61 60 59 58 57 57 56 55 55 53 53 53 52 50 47 47 49 51 51 50 49 48 48 48 48 49 48 49 50 51 49 48 49 50 51 51 51
59 60 60 60 60 60 60 59 58 57 57 56 56 55 54 54 53 53 52 50 46 47 46 46 50 49 48 48 47 47 47 48 48 50 50 47 46 46 47 48 50 51 50
60 61 60 60 60 60 59 58 57 56 56 56 55 55 54 54 54 53 53 51 48 43 44 47 47 48 46 46 46 45 46 48 48 47 46 44 44 45 46 47 47 48 48
56 58 59 60 59 59 58 57 56 55 55 54 54 54 53 52 53 52 52 51 51 49 46 48 47 46 46 45 45 43 44 46 46 44 44 42 42 44 44 44 45 46 46
53 55 56 57 57 57 56 55 55 54 54 54 53 53 52 52 51 51 51 51 50 50 48 47 46 45 45 44 42 41 42 42 43 43 43 40 41 42 42 42 42 43 44
47 52 53 54 55 55 55 55 54 53 52 51 51 51 50 50 50 50 50 50 49 49 48 46 45 42 42 43 41 40 39 39 40 42 41 39 38 41 40 40 40 40 42
44 46 51 51 52 53 53 53 51 50 49 49 49 48 49 48 48 48 48 48 48 47 46 46 43 41 40 39 38 38 37 35 35 41 38 37 36 36 38 36 34 34 36
42 44 47 49 50 50 49 49 48 47 46 45 45 45 46 46 46 46 46 46 46 46 45 44 42 40 39 38 37 36 35 34 31 34 34 33 33 34 35 32 31 31 32
42 42 43 45 47 47 47 46 45 44 43 42 42 43 43 43 44 45 45 44 44 43 43 43 41 39 38 36 36 36 36 34 33 30 30 29 29 26 33 31 29 31 30
41 42 42 42 43 43 43 44 43 43 42 41 41 41 41 42 42 42 43 44 44 42 42 41 40 39 39 38 36 35 34 32 33 32 30 29 26 24 25 27 30 30 30
42 41 42 42 41 42 41 41 42 42 41 41 41 41 41 41 41 41 43 43 43 43 42 41 40 39 38 38 36 34 33 33 33 30 30 28 23 22 23 25 30 31 32
40 41 42 42 42 41 42 41 41 41 41 40 40 41 40 40 41 41 41 40 38 37 38 38 39 38 38 37 36 35 34 32 25 25 27 24 21 21 23 24 30 33 33
38 39 41 41 41 41 42 42 42 41 39 40 40 41 40 40 40 41 39 37 34 31 31 31 32 36 36 37 35 35 32 29 26 24 23 21 20 22 23 28 32 32 31
37 37 39 40 41 41 42 42 42 40 39 39 39 39 40 39 40 40 37 35 33 32 30 30 32 33 34 35 35 34 32 31 28 24 22 20 21 21 20 28 30 31 32

GFSMA_sfc_30mbdewp_087.txt.gz
Dewpoint
63 63 63 63 63 62 60 59 58 55 52 51 49 49 49 52 54 55 53 55 56 59 60 61 62 62 63 62 63 63 63 63 61 62 61 62 61 58 57 55 54 55 53
62 62 62 62 61 59 59 58 56 55 52 50 49 50 52 54 55 56 56 56 57 59 61 62 62 63 63 63 63 63 62 61 61 61 60 61 61 62 60 58 56 55 54
59 59 59 59 58 57 55 55 53 51 50 50 51 53 55 56 56 56 57 57 58 59 61 63 63 63 62 62 62 63 62 61 59 59 59 59 59 60 59 61 59 57 55
58 57 56 56 55 54 53 52 51 51 53 54 55 55 56 57 56 56 56 57 59 59 60 61 63 62 61 61 63 62 62 59 58 58 56 57 57 57 57 58 60 59 57
57 56 56 55 55 55 54 53 52 52 54 56 56 56 56 56 56 55 54 55 57 58 59 60 61 59 59 61 63 62 61 58 57 56 55 54 54 54 55 56 57 58 60
58 57 59 58 58 58 57 56 53 55 56 55 55 55 56 56 55 55 54 53 54 55 58 59 59 60 62 63 62 62 59 58 56 55 54 54 54 54 54 53 54 55 56
62 61 60 60 61 59 58 57 56 55 55 56 56 56 56 56 55 54 55 51 53 54 56 58 59 59 61 61 62 61 59 56 54 54 54 54 54 53 53 53 53 53 54
63 62 61 61 61 60 60 60 59 58 56 56 54 56 54 55 56 56 53 50 53 54 55 57 59 58 59 58 58 58 56 54 53 54 53 53 54 54 53 53 52 52 53
63 63 62 62 62 61 61 61 61 60 58 59 58 55 54 53 53 53 51 50 52 53 55 56 58 58 57 56 55 54 54 54 54 53 53 54 54 53 53 52 54 56 55
61 62 62 62 62 62 60 60 60 60 60 58 60 60 59 58 53 51 52 51 50 50 54 55 55 55 55 53 51 50 50 51 54 54 55 54 53 53 52 52 53 55 56
60 60 61 62 62 62 62 61 61 60 60 59 58 58 58 58 56 53 50 49 50 50 51 54 54 52 52 51 50 50 49 51 52 54 53 53 52 52 52 52 53 54 54
60 60 60 61 61 62 62 62 61 61 60 60 59 58 56 55 54 53 50 50 50 51 51 52 52 51 51 50 49 49 49 51 51 51 51 52 52 50 50 51 51 51 51
58 58 59 60 60 60 61 61 61 60 59 58 57 57 56 55 53 53 52 52 51 51 50 51 51 50 50 49 49 48 49 49 49 50 50 53 50 48 49 50 50 50 50
58 58 59 59 59 59 60 60 59 59 58 58 57 56 55 54 55 54 53 52 49 48 47 47 49 50 49 48 48 48 48 48 48 50 52 49 46 46 47 48 49 49 49
60 59 59 59 60 59 60 59 58 58 57 57 56 56 55 54 54 55 54 52 50 45 45 46 47 47 47 47 47 47 46 48 49 49 47 46 44 45 46 46 47 47 47
54 56 57 59 59 59 59 58 58 58 57 56 56 55 54 54 54 54 53 52 50 47 42 48 46 46 46 45 45 45 45 47 47 47 46 43 43 44 44 44 44 45 45
46 51 53 54 56 57 57 57 57 56 55 55 55 54 54 53 52 52 52 51 50 50 47 46 45 45 45 44 43 42 44 44 44 44 43 42 42 42 42 42 42 42 43
44 45 50 51 53 55 56 56 55 54 54 54 53 53 53 52 51 51 51 50 50 49 48 47 45 43 43 43 42 41 40 40 41 42 44 41 40 42 41 40 40 39 41
42 43 46 49 50 52 54 54 54 54 54 53 53 52 51 51 50 49 49 49 49 48 48 46 44 42 41 40 39 39 38 37 35 39 43 39 38 38 40 37 34 33 35
42 42 43 45 48 49 51 51 51 51 51 51 51 50 49 49 48 48 48 47 47 46 46 45 43 41 40 39 38 38 37 36 34 38 37 36 37 35 36 34 31 30 31
42 42 42 43 44 47 48 48 48 47 47 47 46 46 47 47 47 47 46 46 46 45 44 43 42 40 39 37 37 37 37 36 34 33 33 33 33 30 34 34 29 31 30
40 41 41 42 42 42 43 45 46 45 45 45 44 44 43 44 44 45 45 45 45 43 42 42 41 40 39 38 38 37 36 34 34 34 31 31 28 26 25 27 30 30 30
39 39 40 41 41 42 42 42 43 43 43 43 43 42 42 42 42 42 43 44 44 44 42 42 40 40 39 39 37 35 34 34 34 32 31 30 24 24 24 27 30 31 31
37 37 39 40 41 41 42 43 43 41 41 41 41 41 41 41 41 41 42 41 41 42 42 42 41 41 40 39 38 36 35 33 28 29 30 28 23 22 23 23 28 32 34
35 36 37 38 40 40 42 42 43 41 39 39 40 40 40 40 41 42 40 39 38 38 36 37 37 39 39 38 37 35 33 30 27 25 25 23 21 21 23 25 29 33 32
34 36 35 36 37 39 41 42 43 41 39 39 39 40 41 40 41 42 39 38 37 35 31 31 31 34 36 37 38 36 33 32 27 26 24 21 20 21 19 27 31 31 31

GFSMA_sfc_30mbdewp_090.txt.gz
Dewpoint
62 62 63 63 64 63 62 61 59 56 53 51 50 49 48 47 53 52 53 56 58 61 62 62 62 62 63 63 63 63 62 62 62 61 61 62 62 60 58 56 55 55 53
63 63 62 63 63 63 61 60 58 55 52 51 50 49 49 49 53 55 53 54 58 58 61 62 62 62 63 62 63 63 63 63 61 60 60 60 61 61 61 60 58 56 55
64 62 62 62 62 61 60 58 57 56 53 51 50 49 51 53 54 55 56 55 57 58 60 62 63 63 63 62 62 63 63 61 60 59 58 58 59 59 58 60 60 59 57
63 62 61 61 60 59 57 56 56 53 52 51 50 51 54 56 56 56 56 57 57 58 60 61 63 64 62 61 61 63 62 60 59 58 56 56 56 56 57 57 58 60 59
60 61 60 59 58 57 55 54 53 52 52 53 54 55 56 56 57 56 56 56 58 59 58 59 61 62 60 61 61 63 62 59 58 56 55 55 55 54 54 54 56 57 58
59 58 57 57 56 56 54 54 52 53 53 54 55 55 56 56 56 56 55 54 57 58 58 59 60 59 59 60 62 62 61 58 57 56 54 54 54 54 54 53 53 54 54
58 57 57 56 56 56 55 54 53 53 55 56 55 56 56 56 55 55 55 53 55 56 58 58 58 59 60 62 63 62 60 58 56 54 54 54 54 54 53 54 53 52 52
59 58 59 59 59 59 57 56 56 56 55 56 55 55 53 55 56 56 54 52 53 55 56 58 58 58 59 60 62 61 60 58 55 54 54 53 54 54 53 53 53 55 56
60 61 61 61 61 60 59 59 58 58 56 58 56 55 53 52 53 53 53 51 53 54 55 57 58 58 58 57 57 56 56 55 54 54 54 54 54 53 54 53 53 56 56
61 61 62 62 61 61 60 60 61 60 59 57 59 59 58 55 51 51 53 52 52 52 55 56 58 57 57 55 54 53 53 52 53 54 54 55 54 53 53 53 53 54 55
61 61 61 60 61 62 61 61 60 60 60 58 58 58 59 58 57 54 52 51 52 53 53 55 55 56 55 54 51 50 50 50 52 55 56 56 53 53 52 52 52 53 53
59 59 59 60 61 61 61 61 61 60 60 60 59 58 57 56 55 54 52 51 51 53 54 53 54 53 53 52 50 50 50 50 52 52 53 53 53 51 51 51 51 51 51
58 59 59 60 60 60 60 61 61 60 60 59 59 59 58 56 55 55 52 51 51 52 53 54 54 54 51 50 49 49 49 50 50 51 51 52 52 49 49 49 50 50 51
58 59 59 59 59 59 60 60 60 60 60 59 58 57 57 57 55 55 54 52 50 51 50 50 50 50 50 49 49 49 49 49 49 49 52 52 48 46 47 48 49 49 49
58 59 59 58 58 58 58 59 58 58 58 58 58 57 56 55 55 55 55 54 52 49 49 47 47 47 48 48 49 47 47 48 50 50 48 47 45 45 47 47 47 47 47
49 53 55 57 58 59 59 59 58 58 58 57 57 57 56 56 55 55 55 53 52 48 45 48 46 46 46 47 47 46 46 48 49 48 47 45 44 44 45 44 44 44 44
43 45 50 51 53 55 57 58 58 57 57 57 56 56 55 55 54 54 54 53 52 49 45 46 45 45 45 44 44 44 45 45 45 46 46 45 42 43 43 42 43 43 43
42 43 45 49 50 51 54 55 55 56 55 55 55 54 54 54 53 53 52 51 51 50 48 46 44 43 44 44 42 42 42 41 42 44 45 44 42 43 43 41 40 39 39
42 42 42 43 46 48 50 53 54 54 54 54 54 54 54 53 52 51 51 50 50 49 48 46 43 42 41 41 40 40 39 38 37 39 42 44 41 40 41 40 36 34 33
41 41 42 42 43 45 47 49 51 51 52 52 52 53 53 52 52 50 49 49 48 48 47 45 43 41 40 39 40 39 38 37 37 37 41 39 39 37 38 38 33 31 31
40 40 41 41 42 42 44 45 47 48 48 48 48 49 50 50 50 49 48 48 47 47 45 44 42 40 39 37 38 38 38 37 36 35 36 35 35 33 32 36 32 30 31
38 38 39 39 40 41 42 43 44 45 45 45 46 46 47 48 48 48 48 47 47 46 45 43 41 41 40 39 38 38 37 36 35 35 33 33 32 32 28 30 30 31 31
35 36 37 38 39 40 42 43 43 43 43 43 44 44 44 44 45 46 47 46 46 46 45 43 42 41 40 39 38 36 36 35 36 33 32 32 29 28 26 24 30 31 30
33 34 35 36 37 38 40 42 43 43 42 41 41 41 42 42 42 43 43 43 43 44 44 43 42 41 40 39 38 38 37 35 31 31 32 32 25 24 24 23 28 29 33
30 32 34 35 35 36 38 39 41 42 41 40 39 40 40 41 41 43 41 40 40 40 40 41 41 41 41 41 38 36 34 34 30 28 29 27 23 22 23 23 26 33 33
27 31 32 34 32 32 36 39 40 41 40 40 40 39 40 40 41 43 40 39 38 37 36 35 36 38 40 40 39 37 35 34 30 27 26 25 21 21 19 25 29 31 31

GFSMA_sfc_30mbdewp_093.txt.gz
Dewpoint
64 64 64 64 64 64 63 62 61 58 55 53 50 49 48 46 48 50 54 55 60 64 64 63 63 63 63 63 63 63 62 62 62 61 61 61 62 61 60 58 57 55 54
63 64 64 64 63 63 62 62 60 58 55 52 50 49 49 49 48 52 53 53 58 60 63 63 63 62 62 63 62 63 63 63 61 61 60 60 60 60 60 61 60 58 56
63 63 64 64 63 63 62 60 59 57 54 52 50 50 49 49 50 53 55 53 54 57 60 62 63 63 63 62 61 63 64 63 61 59 58 58 58 58 58 58 59 60 59
63 63 63 63 63 62 62 59 58 56 54 52 50 50 50 51 53 55 55 56 55 56 58 62 63 64 63 62 61 63 63 62 59 58 57 56 55 55 56 56 57 58 59
63 63 63 63 61 61 60 58 56 55 53 53 52 51 51 54 55 56 56 57 57 57 58 59 61 62 63 62 61 62 62 61 59 57 55 55 55 55 54 54 54 55 56
63 63 62 62 61 60 58 56 55 54 53 52 52 52 54 56 56 57 56 56 57 58 58 58 60 61 61 60 61 61 62 60 58 56 55 54 54 54 54 54 54 54 53
62 62 62 61 59 58 57 55 53 53 53 54 54 55 56 56 56 56 56 55 55 57 58 58 59 59 59 61 62 63 63 60 58 55 54 54 54 54 54 54 53 53 56
61 60 60 60 59 57 56 55 54 53 53 56 54 55 53 54 56 56 55 53 54 56 58 58 58 58 59 60 62 63 61 60 58 55 54 54 54 54 54 54 54 56 56
61 60 59 59 58 57 56 56 55 55 53 55 56 54 53 52 54 54 54 53 52 54 56 57 57 58 58 58 60 60 60 59 57 55 55 54 55 54 54 54 54 55 56
61 61 60 60 60 60 58 58 58 58 57 55 57 58 58 55 52 50 53 52 52 53 55 56 57 58 57 57 57 56 56 55 55 55 54 55 55 53 54 54 53 54 54
61 61 60 60 60 61 60 60 60 59 59 58 57 57 58 58 57 52 50 51 52 52 54 56 57 57 57 56 55 54 54 53 53 53 55 56 56 53 53 53 53 52 52
59 59 59 59 59 59 60 60 60 60 59 59 59 58 57 55 56 55 53 51 51 52 53 55 55 56 56 55 53 52 51 51 52 53 54 55 55 53 52 51 52 51 52
58 58 59 59 59 59 59 60 60 60 59 59 59 58 59 57 56 56 54 52 51 52 53 54 54 54 54 53 52 51 51 51 52 52 53 53 54 51 50 49 50 50 50
58 59 59 59 59 59 60 60 59 60 60 59 59 59 59 58 57 56 55 54 51 51 52 51 51 53 52 51 50 50 50 50 50 51 51 53 50 48 47 48 49 49 48
53 56 58 58 59 59 59 59 58 59 59 58 58 58 57 57 57 56 56 55 53 49 49 50 49 49 50 50 50 48 48 49 49 51 51 48 47 46 47 47 47 47 47
47 50 52 53 54 57 58 58 58 58 57 58 58 57 57 57 56 56 55 55 54 52 49 48 47 47 48 48 48 47 47 49 51 50 49 47 45 44 45 45 44 44 45
42 43 45 49 50 51 54 55 57 57 57 57 57 56 56 57 56 55 55 55 53 50 48 46 45 45 45 46 45 45 46 46 48 48 48 46 44 43 44 43 43 43 43
42 42 42 43 45 48 50 52 54 55 55 55 56 56 55 55 55 55 54 54 53 52 49 45 43 44 44 44 43 43 43 43 44 45 45 45 44 43 44 43 42 40 38
41 41 42 42 42 43 46 48 50 52 53 54 54 54 54 54 53 53 53 52 52 50 49 46 43 42 42 42 41 41 41 40 40 41 44 45 44 43 43 42 40 35 33
39 40 40 41 41 42 43 44 46 47 50 51 52 52 53 53 53 52 51 51 50 49 47 45 43 42 41 40 41 40 40 39 39 36 40 42 44 40 41 41 37 32 31
36 38 38 38 39 40 41 43 43 43 44 46 47 48 49 51 52 52 50 49 49 47 46 44 42 40 40 38 39 39 39 38 37 36 38 37 39 37 36 38 35 32 32
33 35 34 36 36 38 41 42 43 42 42 43 44 45 46 47 48 49 50 49 49 47 46 44 42 42 40 39 38 38 37 36 36 36 36 36 35 35 33 33 35 32 32
30 30 32 34 35 36 36 38 40 42 41 41 41 42 43 44 45 47 48 48 48 48 47 46 44 44 41 40 38 36 36 36 37 35 34 34 32 33 31 27 30 32 31
27 28 28 32 33 34 33 36 38 40 41 41 40 40 40 41 42 43 44 45 46 46 47 46 46 44 43 40 39 38 37 36 33 33 33 34 28 30 26 25 30 31 30
25 25 28 29 29 32 32 32 35 36 37 39 41 40 40 39 41 43 42 42 42 42 43 44 44 43 43 41 39 37 36 35 33 31 32 31 25 24 24 23 24 32 33
23 24 24 25 29 28 31 32 31 35 36 36 36 39 41 41 41 42 42 40 39 40 40 39 40 42 42 42 40 38 36 36 32 31 29 28 23 23 24 24 27 28 32

GFSMA_sfc_30mbdewp_096.txt.gz
Dewpoint
64 64 64 63 64 65 64 64 63 62 59 55 51 49 47 46 46 47 51 55 60 64 64 63 63 64 64 64 64 64 63 62 62 61 60 60 62 61 61 60 58 57 56
65 64 64 64 64 64 64 63 62 60 58 55 51 50 48 47 46 48 50 53 56 61 64 65 64 63 63 63 63 62 64 63 62 61 60 59 60 59 60 61 61 60 59
64 64 64 64 64 64 63 62 61 59 57 54 52 50 49 49 49 49 52 52 53 56 59 62 64 63 63 62 62 61 64 63 62 60 58 58 57 57 57 57 58 59 60
64 63 63 64 64 64 63 62 61 59 57 54 52 50 49 50 50 50 52 54 54 54 56 59 62 64 63 63 62 61 64 64 61 59 57 56 55 55 55 55 56 56 57
63 63 63 63 63 61 61 61 60 58 56 54 52 51 50 50 51 52 54 55 55 56 56 57 58 62 63 64 62 61 63 63 60 58 56 55 55 55 55 54 54 54 54
60 62 62 62 62 60 58 60 60 57 56 53 52 52 52 52 53 54 55 56 57 57 57 58 59 60 62 63 62 61 63 62 60 57 56 55 55 54 54 54 54 53 54
61 61 61 62 59 59 57 58 58 57 54 54 53 53 54 55 55 56 56 56 56 57 58 58 58 60 61 61 61 61 63 62 60 57 55 55 54 54 54 54 53 56 57
62 62 61 61 60 57 55 56 57 56 54 55 53 54 51 54 56 56 56 55 55 56 57 58 58 59 59 59 60 62 64 62 59 57 55 55 54 54 54 54 54 56 56
61 62 62 61 60 60 59 58 57 54 52 55 55 53 52 51 53 55 55 55 53 54 56 58 58 58 58 59 61 63 62 62 60 57 56 55 55 54 54 54 54 55 55
61 61 61 60 60 60 58 58 57 55 55 53 56 56 57 54 52 51 53 54 53 53 55 56 57 57 57 58 60 61 61 61 60 58 57 56 55 55 54 54 53 54 54
60 61 61 60 60 60 60 58 58 56 57 55 54 55 57 57 56 52 50 52 52 53 54 55 57 57 57 58 58 58 58 58 58 57 56 56 56 55 54 53 52 52 52
59 59 59 59 59 59 60 60 59 59 58 57 58 57 55 55 55 55 53 52 51 52 52 55 56 57 57 56 56 56 56 56 57 56 55 56 57 56 53 52 52 51 52
58 58 59 58 58 58 59 59 59 59 59 58 58 58 58 58 57 56 55 54 52 52 52 53 54 55 56 56 55 54 54 54 54 54 55 55 55 55 52 51 50 50 50
53 57 59 59 58 59 59 59 58 59 59 59 58 58 58 58 58 57 56 55 53 52 52 52 53 54 54 54 53 52 52 52 53 53 53 53 54 51 50 49 49 49 49
49 51 53 55 58 59 59 59 58 58 58 59 58 58 58 58 58 58 57 57 55 51 51 51 51 51 52 52 53 52 51 52 52 51 53 52 50 49 48 48 48 47 47
44 45 47 50 52 52 55 56 57 58 58 58 58 57 57 58 57 57 56 56 56 54 51 50 49 48 50 51 51 51 50 50 50 53 51 49 48 47 47 47 46 45 45
42 42 42 43 45 48 49 51 53 55 56 57 57 57 56 57 57 56 56 56 55 54 52 47 46 45 46 48 47 48 48 49 51 51 50 48 46 46 46 45 44 44 43
40 41 41 42 42 43 45 47 48 50 52 53 54 55 55 56 55 56 55 54 54 53 51 47 44 44 45 46 45 46 46 46 47 49 48 47 45 45 45 44 43 42 40
38 39 39 39 40 41 42 43 44 45 47 50 52 53 54 54 54 54 54 54 53 52 51 47 43 43 42 43 42 42 43 42 43 44 46 46 46 44 44 44 43 39 35
34 35 36 36 37 39 41 43 43 42 42 44 46 49 50 51 52 53 53 52 52 51 49 47 43 42 41 41 42 41 40 40 40 38 42 44 46 44 43 44 42 36 31
31 32 33 34 35 35 37 39 40 42 42 41 42 44 46 48 48 50 51 51 50 49 47 45 43 42 41 40 40 40 41 40 39 37 38 40 42 41 41 42 40 34 33
28 29 28 31 32 34 35 33 36 39 40 41 40 41 42 44 45 47 48 50 50 49 46 45 43 43 42 41 40 40 39 38 37 37 37 38 38 37 36 36 37 35 33
25 24 25 28 28 29 34 33 32 36 37 38 40 40 40 41 42 43 45 47 48 49 49 47 45 44 42 41 40 38 38 38 38 35 36 36 35 36 35 32 35 36 33
24 24 24 26 27 27 32 32 32 33 35 35 36 38 40 40 40 41 42 43 45 46 48 47 47 45 44 41 41 40 39 36 34 34 35 36 31 33 30 29 31 32 33
23 22 24 24 24 25 30 29 31 31 32 34 36 35 36 39 41 42 41 41 42 43 44 46 47 46 44 43 40 38 36 37 35 34 33 34 28 28 26 25 25 32 31
22 22 21 21 23 25 26 28 28 30 30 31 32 34 37 34 38 41 42 41 40 40 41 41 42 44 44 44 42 41 38 38 34 33 32 31 25 26 26 24 26 26 32

GFSMA_sfc_30mbdewp_099.txt.gz
Dewpoint
64 65 65 64 63 64 64 65 63 63 63 63 58 54 52 50 51 52 54 58 61 64 65 64 64 64 64 64 64 64 63 62 61 61 60 60 62 61 61 61 60 59 57
64 65 65 64 64 64 64 65 65 64 62 60 56 52 50 48 48 49 49 50 55 60 63 65 64 64 64 64 63 64 64 63 62 61 60 59 59 59 60 60 60 60 61
62 64 65 64 64 65 64 64 63 62 61 58 56 53 50 48 47 47 47 50 52 56 59 62 64 64 64 63 63 63 63 64 63 61 59 58 57 57 57 56 57 58 58
60 62 63 64 65 64 64 63 62 61 61 58 56 54 51 50 49 49 49 50 53 53 55 58 60 64 64 63 63 62 63 65 63 60 58 57 56 55 55 55 55 55 55
59 60 62 62 63 64 64 63 62 61 60 58 56 54 52 50 49 49 50 51 52 55 55 55 57 59 62 64 63 62 62 64 63 60 57 56 55 55 55 55 54 54 54
60 60 61 61 62 63 62 62 61 61 60 59 57 56 55 53 50 50 51 52 53 56 56 57 57 57 58 63 64 62 61 64 62 60 57 56 55 55 55 54 54 54 57
60 60 61 61 61 61 60 61 61 58 58 58 56 55 54 53 53 53 53 54 55 57 57 58 58 59 58 61 63 63 61 61 62 59 57 56 55 55 55 55 54 57 57
60 60 61 61 61 61 60 59 59 58 56 57 54 52 49 50 54 54 55 55 55 57 57 58 58 58 59 61 62 62 62 61 62 60 58 56 55 55 55 54 54 56 56
61 61 62 61 61 61 59 58 58 56 55 56 55 53 51 49 51 55 56 56 56 56 56 57 58 58 59 59 60 60 61 63 62 61 58 56 55 55 55 54 54 56 55
60 61 61 62 62 61 59 58 58 57 55 54 56 55 54 55 52 49 54 55 56 54 55 57 58 58 59 59 59 60 60 62 63 61 58 57 56 56 55 54 54 55 54
60 61 61 61 61 60 60 59 58 57 57 55 54 54 55 55 56 53 50 53 54 54 55 56 58 58 58 58 59 60 61 62 62 61 59 58 57 57 55 55 53 53 52
60 60 61 60 60 60 59 59 58 58 57 57 57 55 53 52 52 54 53 53 53 54 55 56 56 57 58 58 58 59 60 61 62 60 58 58 58 57 56 55 53 52 52
52 54 59 58 58 59 59 59 59 57 57 56 55 55 56 55 56 56 54 53 53 54 54 54 55 56 57 58 57 57 57 59 59 59 59 58 57 58 56 53 53 52 51
48 50 53 57 58 58 58 58 58 58 58 57 57 57 57 57 57 56 55 55 53 54 53 53 54 55 56 57 57 55 56 56 57 57 56 56 57 57 54 53 51 51 50
46 47 48 50 52 53 55 57 58 58 58 58 57 57 58 58 58 58 58 57 55 51 51 53 53 53 55 56 55 55 55 55 55 55 56 56 55 53 52 51 50 49 49
42 43 44 45 47 49 50 52 53 54 56 58 58 57 57 58 58 58 57 57 57 55 52 53 52 50 51 52 53 53 53 54 54 54 54 53 52 51 50 49 49 48 47
39 40 41 41 42 43 45 47 48 49 50 52 54 56 57 57 57 57 57 56 56 55 53 51 48 47 48 50 50 51 51 52 52 53 53 51 50 49 49 48 47 46 46
34 34 35 37 39 41 42 43 43 43 45 46 49 51 52 55 55 56 55 55 55 55 54 51 47 45 47 48 48 48 49 50 51 53 52 50 48 47 48 47 46 45 44
32 32 33 33 34 37 40 41 41 42 42 42 43 44 47 49 51 53 54 54 54 54 53 50 46 44 43 44 44 44 45 46 47 50 50 49 47 46 47 46 45 43 41
29 29 31 32 33 34 35 34 36 38 39 40 41 42 43 45 46 48 50 52 53 52 51 49 45 43 43 42 44 43 42 42 42 43 46 47 47 46 45 45 45 41 37
27 27 26 28 29 29 33 33 33 35 35 36 39 40 41 41 42 44 46 47 49 50 49 48 44 42 40 40 42 41 42 40 41 39 40 42 44 46 45 45 43 38 35
25 25 24 26 27 25 30 33 33 33 34 34 33 37 39 40 41 42 43 45 47 47 48 47 46 44 44 44 43 42 40 39 39 39 39 39 42 42 41 42 42 38 36
24 24 24 24 24 25 28 31 31 32 32 32 34 34 34 36 39 40 41 42 43 45 48 48 47 45 45 44 43 41 41 42 41 39 40 39 38 40 38 36 40 39 37
23 23 22 22 23 21 26 29 28 31 32 32 32 33 34 34 34 38 40 41 41 42 44 47 48 47 46 44 42 43 42 40 36 36 39 37 36 37 36 35 38 38 37
23 23 23 22 21 21 25 25 26 28 29 30 31 32 31 32 35 34 35 37 40 41 42 44 46 47 46 44 44 41 39 39 35 35 35 36 32 32 30 31 31 36 35
23 23 22 22 21 21 22 25 25 27 27 29 31 29 29 27 28 33 35 37 35 37 40 40 42 44 45 44 43 43 39 39 35 33 35 35 29 29 30 26 27 30 34

GFSMA_sfc_30mbdewp_102.txt.gz
Dewpoint
65 66 66 62 63 64 62 62 60 59 61 61 57 54 55 54 53 53 55 59 61 63 65 64 64 63 63 63 64 64 63 62 61 62 60 60 62 61 61 61 60 59 59
60 62 65 66 65 62 62 61 61 60 60 60 60 58 53 51 51 52 52 53 58 61 63 64 63 63 64 63 64 64 64 64 62 62 60 59 60 59 60 60 60 59 59
56 58 60 62 64 65 62 62 63 62 63 62 61 59 57 52 48 47 50 51 51 53 57 61 63 64 63 63 64 64 64 64 64 63 60 58 58 57 57 57 56 57 58
55 56 58 59 60 63 64 64 64 64 64 62 61 60 58 52 48 46 45 48 49 50 54 57 61 63 64 62 63 63 63 64 65 63 60 58 56 56 55 55 55 55 55
56 56 57 58 59 62 64 64 63 63 62 62 61 61 57 54 49 47 46 46 48 50 52 53 57 58 61 63 63 63 63 64 65 63 60 58 56 55 55 55 55 55 54
57 58 57 58 58 59 61 63 62 63 62 62 61 59 57 55 52 51 48 48 48 50 52 54 55 56 57 59 62 63 63 63 65 63 60 58 56 55 55 55 55 54 57
57 57 58 58 59 58 58 59 59 60 60 62 60 59 57 56 53 53 52 50 50 50 52 54 56 57 57 58 59 63 62 62 64 63 61 58 56 56 55 55 55 57 57
58 58 58 58 58 60 59 58 59 59 60 60 58 56 53 53 53 52 52 52 51 52 53 54 56 57 59 59 59 61 62 62 61 62 61 58 57 56 55 56 54 57 56
59 59 59 59 59 60 60 59 60 59 58 59 59 55 50 48 47 47 51 51 52 53 53 54 57 58 58 59 59 60 62 62 61 61 62 59 57 56 56 55 55 56 56
57 58 59 60 61 61 61 60 60 59 58 57 57 56 54 52 47 47 55 54 54 54 54 56 56 57 58 60 60 59 61 61 62 61 63 60 58 57 56 56 55 56 55
57 59 59 60 60 61 61 60 60 59 59 58 56 55 54 54 55 52 49 53 55 56 56 56 57 59 60 60 61 60 60 60 61 61 62 61 59 57 57 56 55 55 55
53 53 55 60 60 60 60 60 59 59 58 57 57 56 55 53 52 52 52 52 53 53 56 58 58 59 60 60 60 60 60 61 61 61 61 61 59 58 57 57 56 54 54
49 49 52 53 58 60 60 59 58 58 57 57 56 56 56 56 56 55 54 52 51 52 55 56 57 57 58 59 59 59 59 60 61 62 60 61 60 59 59 58 56 54 53
46 47 49 50 51 52 55 59 59 58 58 57 56 55 55 55 55 55 54 53 52 53 53 54 56 56 57 58 58 57 58 58 59 62 61 61 59 59 59 59 55 54 52
43 45 46 46 47 49 50 52 53 54 57 57 56 56 56 56 56 56 56 55 53 50 49 52 54 55 56 57 57 57 57 57 58 60 61 59 58 58 58 56 55 53 52
37 39 41 43 44 45 46 48 49 49 51 52 54 56 56 56 56 57 56 56 56 54 51 53 54 53 54 55 56 56 57 57 57 58 57 57 57 57 56 54 53 52 51
27 28 30 35 39 41 43 44 44 44 45 46 48 50 52 54 56 56 56 57 56 56 53 53 53 51 50 51 51 53 54 54 55 56 56 55 55 54 53 52 51 50 49
23 24 25 26 27 32 35 37 39 40 41 42 43 44 46 48 50 52 54 54 54 55 54 52 51 49 48 49 50 50 50 52 53 54 55 54 53 52 51 50 49 48 47
21 21 22 23 23 25 27 26 26 28 30 34 38 40 42 43 45 47 48 49 53 54 54 53 51 47 46 45 45 46 47 48 50 53 53 52 51 51 50 49 48 47 46
19 19 19 21 23 24 27 30 29 28 28 29 31 35 37 40 41 42 43 45 47 48 51 51 50 46 44 44 45 44 43 44 46 48 51 51 50 49 49 48 47 46 44
20 20 19 19 20 19 20 30 30 28 28 28 28 29 33 38 40 42 42 42 43 44 45 48 47 44 43 41 43 44 45 44 43 44 45 47 48 47 46 47 46 44 41
20 20 19 19 19 17 24 28 30 27 27 26 25 27 30 32 33 36 39 41 42 42 42 43 46 45 45 44 45 43 43 40 39 41 43 43 45 45 45 46 46 44 40
19 19 18 17 16 16 20 24 27 25 24 24 26 27 27 27 33 32 32 36 39 41 43 43 42 43 46 46 46 43 43 42 43 41 43 40 42 43 44 44 45 43 41
19 19 19 18 18 17 20 23 24 22 22 23 25 26 26 25 25 31 32 31 33 36 39 41 43 44 45 48 47 46 44 43 40 40 43 39 40 40 42 40 43 43 40
21 21 21 20 19 19 19 22 22 21 22 22 20 23 26 26 25 27 27 30 30 31 35 38 41 43 44 46 47 45 42 38 37 36 40 36 36 36 38 38 39 41 41
20 20 20 20 20 20 19 19 22 21 20 19 20 22 24 26 26 29 28 26 25 27 29 33 37 38 41 44 46 45 43 40 40 34 36 35 33 33 33 30 32 37 39

GFSMA_sfc_30mbdewp_105.txt.gz
Dewpoint
65 65 66 66 64 64 64 63 62 61 62 61 57 52 54 54 53 54 54 59 61 63 63 65 64 64 63 63 63 63 63 62 62 61 61 59 60 61 61 61 60 60 59
59 60 62 62 62 63 63 62 61 61 59 61 60 56 53 53 53 52 52 57 60 61 63 63 65 64 63 63 63 63 64 64 63 62 62 59 60 61 59 60 61 60 59
57 58 59 60 59 60 61 63 61 60 61 62 60 59 57 54 50 50 50 51 56 59 61 62 62 64 64 63 63 63 64 65 65 64 63 60 58 58 58 57 57 56 58
57 56 56 57 58 59 59 60 62 63 63 63 62 61 59 58 54 51 47 47 50 51 55 57 61 62 64 64 63 63 63 64 65 65 64 61 58 57 56 56 56 55 55
57 55 54 55 56 58 60 62 63 63 63 63 63 62 61 60 56 51 47 46 46 49 50 54 55 58 61 63 62 62 63 64 64 65 64 62 59 57 56 55 55 55 55
55 55 55 55 56 57 58 60 60 62 62 62 62 62 62 61 59 53 49 47 46 47 50 52 56 57 57 60 61 61 62 62 64 64 65 63 59 57 56 55 55 55 55
56 56 56 56 56 56 56 57 58 60 60 62 61 60 61 60 59 56 53 51 48 49 50 52 53 55 57 58 59 60 60 61 63 64 64 63 60 57 56 56 55 55 57
58 57 58 57 58 57 57 57 58 58 59 59 58 57 55 57 58 57 55 52 50 49 50 51 52 54 56 57 60 60 61 60 61 63 64 63 61 58 57 56 56 55 57
58 58 59 59 59 59 58 59 59 58 57 58 59 56 54 52 53 55 55 53 51 50 50 51 52 53 55 57 60 60 60 61 61 62 63 63 61 59 57 56 56 55 57
56 57 58 59 59 60 60 60 60 59 59 58 59 60 59 56 51 50 53 53 52 50 50 53 53 54 56 58 59 59 60 60 62 61 61 63 62 60 58 57 57 55 56
53 52 52 54 58 59 59 59 60 60 60 59 58 57 58 58 56 53 48 50 53 50 50 52 54 55 56 59 61 61 61 61 63 62 61 61 62 61 59 58 57 56 56
50 49 50 52 52 55 59 59 60 59 59 59 59 58 56 55 54 53 53 53 53 55 57 57 57 59 60 60 60 60 60 60 62 63 63 62 61 62 61 59 58 57 56
47 47 48 48 49 50 52 54 59 59 59 59 59 58 57 56 55 54 53 52 52 53 54 57 58 58 58 60 60 60 59 60 61 62 62 62 61 62 62 60 59 58 56
44 44 45 46 47 48 48 50 51 53 57 57 57 57 56 56 57 56 54 53 51 52 52 52 55 58 58 59 59 59 59 59 59 61 61 62 60 61 61 61 60 60 56
34 37 41 44 45 46 46 47 48 47 49 51 53 55 56 56 56 56 55 54 52 48 50 51 52 56 57 58 58 58 58 58 58 58 59 60 60 60 61 61 60 60 57
25 26 27 31 37 41 44 45 45 45 45 47 47 48 50 51 55 56 56 55 54 52 49 51 53 54 56 56 57 57 57 57 57 57 57 58 59 60 60 59 59 58 55
21 21 22 23 25 27 28 30 35 39 40 43 44 45 46 48 49 51 52 55 55 54 52 52 54 54 53 54 53 54 55 56 56 56 57 57 58 58 58 58 57 55 54
19 20 21 22 22 24 27 27 26 27 27 29 32 37 41 44 46 48 48 48 50 52 54 52 54 51 51 51 51 51 51 52 53 54 55 56 58 57 56 56 54 53 52
18 18 18 18 20 20 21 25 27 27 27 27 28 31 34 37 40 41 43 45 47 48 48 51 51 51 49 47 47 48 48 49 50 52 55 55 55 54 54 53 52 51 50
18 18 17 17 17 17 18 24 26 26 26 27 26 28 29 33 34 38 40 42 43 44 45 46 47 48 47 45 46 45 45 45 47 49 53 53 53 53 52 51 50 49 48
17 17 17 17 17 16 17 25 25 25 24 25 25 24 26 31 33 37 36 38 39 41 41 43 44 45 44 44 44 45 45 45 45 46 49 50 50 50 51 50 49 47 47
17 17 17 16 16 14 17 23 25 24 22 22 23 25 26 27 28 30 32 35 35 37 39 40 40 41 44 44 45 45 45 42 41 43 45 46 49 47 48 48 47 46 45
17 17 17 17 16 16 17 22 24 22 20 20 22 24 24 23 28 25 27 29 33 34 35 38 40 39 41 43 46 45 44 42 44 43 45 45 45 46 47 47 47 46 44
18 18 18 19 19 18 20 21 22 22 20 21 23 23 21 21 24 25 27 27 28 30 31 34 36 38 40 41 42 43 45 44 43 42 44 42 42 43 45 46 47 46 44
20 21 20 20 20 21 20 22 21 22 22 20 18 19 20 22 24 27 28 28 26 25 26 30 34 36 37 39 42 42 41 42 40 38 41 39 38 39 41 41 46 45 44
20 21 20 21 20 20 18 17 20 22 20 18 18 19 20 21 24 26 28 27 26 26 26 29 29 31 33 36 39 41 41 40 41 37 37 39 36 36 36 35 40 44 43

GFSMA_sfc_30mbdewp_108.txt.gz
Dewpoint
64 65 65 65 65 65 65 64 64 63 63 62 61 57 56 58 56 56 59 61 62 62 62 64 65 64 63 63 62 62 62 62 62 61 61 61 59 61 60 60 60 60 60
62 63 62 62 62 63 64 64 64 64 63 64 63 62 53 54 55 54 54 60 61 62 63 62 64 65 64 63 63 63 64 63 63 63 62 62 59 61 61 60 60 61 60
59 59 61 60 60 60 60 61 63 63 63 62 62 62 62 55 53 53 53 56 60 61 62 62 62 64 65 64 63 63 64 65 65 65 64 63 61 60 59 59 58 57 57
59 58 58 58 59 59 59 60 61 61 62 62 62 62 62 62 56 52 50 50 56 58 60 61 63 63 63 64 64 63 64 64 64 65 65 64 62 59 58 57 57 56 56
58 58 57 56 56 57 58 59 61 62 62 62 62 62 62 62 60 56 53 50 48 52 55 57 60 62 63 64 63 63 63 63 64 64 65 65 63 60 58 57 56 56 55
57 56 56 55 56 56 57 59 60 61 61 62 62 62 62 62 62 60 57 53 48 47 50 52 55 57 59 61 62 62 62 64 63 63 65 65 64 61 58 57 56 56 55
57 57 57 57 57 56 56 57 57 59 59 61 61 60 61 62 62 61 60 55 50 47 47 49 53 56 56 59 61 62 61 61 63 64 64 65 64 62 59 57 56 56 55
59 59 58 58 58 58 57 57 57 57 58 59 58 57 55 57 61 61 60 57 53 49 49 50 51 53 55 58 59 61 61 60 61 62 64 64 64 63 60 58 57 56 56
56 56 56 57 58 59 58 58 58 57 57 58 59 56 54 52 53 58 59 58 56 54 51 49 51 53 54 55 58 59 59 61 62 61 62 64 64 63 61 59 57 57 56
53 52 52 53 54 55 57 59 59 58 58 56 57 59 58 56 52 51 56 57 57 56 53 51 49 50 52 54 57 59 59 60 61 62 61 61 64 63 62 60 58 57 57
50 49 50 51 51 51 52 52 56 58 58 57 57 57 58 58 58 55 52 53 55 55 53 51 51 51 53 55 57 59 59 60 62 63 61 60 61 62 63 62 59 58 57
47 46 47 48 49 49 49 50 51 55 58 58 58 58 57 55 54 56 54 54 53 55 55 53 52 54 56 58 60 60 60 60 61 61 60 59 60 62 63 64 62 59 58
44 44 45 46 47 47 48 48 48 48 49 51 58 58 58 57 57 56 55 54 53 55 55 56 57 58 59 59 59 59 57 58 60 61 60 61 61 62 62 64 64 62 60
39 39 42 44 45 46 46 47 46 46 47 47 48 50 53 58 58 57 55 54 52 52 53 52 57 57 57 57 58 58 58 58 59 60 61 61 61 62 62 62 62 63 62
28 31 30 31 37 41 42 43 42 43 43 44 45 46 48 49 50 55 56 55 53 49 50 52 51 57 58 58 59 59 58 58 58 59 59 60 59 58 59 60 61 62 63
22 24 25 26 27 29 31 34 39 39 39 41 42 43 45 46 48 49 49 51 54 52 49 52 53 54 56 57 57 58 57 57 57 58 58 58 58 58 58 59 60 61 62
20 20 21 23 23 24 27 30 30 30 31 34 37 38 41 44 46 46 47 47 48 49 49 51 52 54 55 56 55 57 57 57 57 57 57 57 57 57 57 58 59 60 60
20 19 19 19 20 22 22 25 27 29 28 29 30 31 34 37 40 40 43 45 46 47 46 46 50 52 53 52 53 53 52 53 54 55 55 56 56 56 56 57 58 59 57
20 19 19 18 18 19 20 24 25 27 26 27 28 27 29 33 34 34 39 39 42 44 45 45 46 49 49 48 48 48 49 49 50 51 52 53 54 55 55 56 57 56 55
19 18 18 18 18 17 22 24 25 25 26 25 26 27 27 30 31 32 35 36 38 39 40 42 43 45 46 46 46 46 46 46 47 48 50 51 53 55 55 56 56 54 53
19 18 18 19 18 17 16 22 24 25 24 23 23 26 26 29 29 32 30 35 35 35 36 38 38 39 41 43 44 45 45 46 45 46 47 49 52 52 53 53 52 51 51
19 18 18 19 18 18 19 20 23 24 23 22 22 24 26 27 27 27 26 29 30 33 33 35 35 38 38 40 43 44 44 43 43 44 45 47 50 49 51 51 51 50 49
19 19 19 20 20 20 21 22 23 23 24 23 22 23 24 23 25 27 27 29 29 28 30 34 34 35 36 39 39 38 40 41 42 44 44 44 46 47 49 50 50 49 48
19 20 21 22 21 21 22 23 24 24 23 23 23 23 22 22 22 24 27 28 29 29 28 29 32 34 35 36 37 38 39 40 42 43 44 42 43 44 46 47 49 48 47
21 22 22 22 21 21 23 21 20 21 23 23 21 20 20 22 23 23 26 27 28 27 27 28 31 30 31 31 32 36 36 36 36 39 41 42 40 41 42 43 46 48 47
21 22 21 21 22 21 21 17 18 22 22 23 24 24 24 23 23 24 25 27 27 27 27 27 28 28 28 29 32 35 36 35 34 35 38 39 38 38 38 37 41 46 46

GFSMA_sfc_30mbdewp_111.txt.gz
Dewpoint
64 65 65 65 65 66 66 65 65 65 65 64 63 62 61 62 61 60 59 61 64 64 64 63 63 64 63 63 62 62 62 62 62 61 61 62 61 60 60 60 60 60 59
62 62 63 63 63 63 65 65 64 64 64 64 63 62 60 59 60 58 57 59 63 64 65 64 64 65 65 64 63 62 63 63 63 63 62 62 62 59 61 60 60 60 61
60 61 61 61 61 60 61 61 63 64 64 64 64 64 64 63 56 57 55 58 61 62 63 64 64 65 66 65 64 63 64 64 64 64 64 63 63 61 60 60 59 59 58
60 60 59 60 60 59 59 59 60 61 62 62 62 62 63 63 63 59 56 54 58 60 61 63 64 64 65 65 65 64 65 65 65 65 64 64 64 63 60 59 59 57 56
61 59 58 58 57 57 58 58 59 60 60 60 61 62 62 62 62 62 59 55 53 58 59 60 62 63 64 65 65 64 64 65 65 65 65 65 65 64 62 59 58 57 56
61 59 58 58 57 56 56 57 58 60 59 59 60 60 62 62 62 62 60 57 54 52 54 56 58 60 62 63 64 64 64 65 65 65 65 65 65 65 63 60 58 57 56
60 59 58 58 58 57 57 57 57 57 58 60 59 59 60 61 62 62 61 60 58 55 51 50 53 55 56 62 63 63 63 64 65 65 65 65 65 65 64 61 58 57 57
58 58 57 57 57 58 58 58 57 57 57 58 57 57 54 53 59 60 61 61 59 57 53 49 49 53 54 55 58 62 62 62 64 65 65 64 65 65 64 62 59 58 57
53 53 53 54 54 54 54 55 57 58 57 57 58 56 52 50 52 58 60 60 60 59 56 54 51 49 50 53 57 58 59 62 62 63 63 65 64 65 64 63 61 59 58
50 50 51 51 52 52 51 52 52 52 54 55 56 57 58 56 52 50 56 58 59 58 57 55 53 50 51 51 54 56 57 59 61 62 61 62 64 63 63 63 62 60 59
47 47 48 48 49 49 49 49 49 49 50 51 55 55 55 56 57 54 52 52 57 58 57 57 55 53 51 52 54 56 57 58 60 62 61 62 62 62 63 63 63 61 60
44 44 45 46 47 47 47 48 48 47 47 47 48 49 54 53 52 54 53 53 53 54 57 57 56 54 53 52 53 56 57 58 60 62 62 62 61 61 61 63 64 63 62
36 37 42 44 45 46 45 47 46 46 46 45 45 46 47 48 52 55 54 53 53 54 55 56 55 54 53 54 54 55 57 59 61 61 61 61 61 61 62 63 63 64 64
32 34 32 34 36 41 44 43 43 43 43 44 43 43 44 46 47 49 48 53 53 54 54 54 57 57 57 57 57 59 59 59 59 59 60 60 59 60 61 61 61 62 62
24 26 28 28 29 31 33 36 40 39 40 41 41 41 43 43 44 47 46 47 47 49 51 53 53 56 58 58 58 58 58 58 58 58 58 56 57 58 59 60 60 60 61
22 22 23 24 25 26 27 32 33 35 34 38 39 38 40 41 43 44 42 44 46 46 47 51 53 54 56 57 58 58 57 57 58 58 57 57 58 58 58 59 58 59 59
20 20 20 20 20 21 23 25 26 28 29 30 31 32 33 35 39 37 41 43 43 45 44 46 49 50 54 55 56 57 57 57 57 57 57 58 57 57 57 57 57 58 59
20 19 19 19 19 19 21 23 23 25 26 27 28 29 29 31 35 34 38 37 40 42 43 42 45 47 48 49 50 52 55 55 56 56 57 57 56 56 56 56 56 56 57
19 18 18 19 19 19 20 24 24 24 25 24 25 26 28 29 30 29 36 35 38 37 40 40 42 45 47 47 47 48 48 49 50 51 52 52 53 54 54 54 55 55 56
19 19 19 19 19 19 18 22 23 24 25 24 23 23 26 27 28 30 31 30 36 35 35 37 38 39 41 44 45 45 45 47 47 48 49 50 50 51 53 54 54 54 55
20 19 19 20 20 19 18 23 24 24 24 24 23 23 24 27 29 29 26 29 31 31 33 34 34 35 37 38 40 43 43 44 45 46 46 47 49 51 52 53 54 54 54
19 19 20 21 21 21 23 24 25 24 24 24 23 23 24 25 25 25 27 28 29 29 28 30 33 32 33 37 37 37 37 39 39 44 44 44 48 48 50 52 52 52 53
19 20 21 22 21 22 22 23 24 24 24 22 23 24 23 21 24 24 27 29 29 29 28 30 30 30 34 34 36 35 35 36 36 39 41 40 45 45 48 50 51 51 51
20 21 21 22 21 21 22 23 23 22 22 23 23 23 22 23 24 26 25 27 28 28 28 28 29 31 31 31 32 34 34 36 36 37 41 38 42 43 45 47 49 50 50
20 20 22 21 21 21 24 20 20 21 22 22 23 23 24 23 24 25 25 26 26 27 28 28 28 29 30 29 28 29 30 30 28 30 36 39 39 41 42 43 46 48 49
20 21 20 20 21 17 20 21 22 22 22 23 23 24 24 23 24 24 25 26 28 28 29 28 28 28 28 27 29 31 31 30 28 28 33 36 37 38 38 39 41 45 48

GFSMA_sfc_30mbdewp_114.txt.gz
Dewpoint
62 64 65 65 66 66 66 66 66 66 65 65 65 65 63 64 64 63 62 60 61 64 65 65 64 64 63 63 62 62 62 62 62 62 61 61 62 61 60 59 59 59 59
61 62 63 63 64 65 66 65 65 65 65 65 64 64 63 61 62 62 61 59 60 62 65 65 65 64 64 63 63 63 63 63 62 62 62 62 62 62 60 60 60 60 60
61 60 61 61 62 62 63 64 64 64 64 64 64 64 63 62 59 61 60 58 58 61 64 64 64 64 65 64 64 63 64 64 64 64 64 63 63 63 62 60 60 59 60
61 60 60 61 61 60 60 60 60 61 62 62 62 63 64 63 64 62 59 59 58 60 62 64 64 64 64 65 63 65 65 64 65 65 65 65 65 64 63 61 61 59 59
62 61 60 60 60 60 59 58 58 59 59 59 60 61 61 61 62 63 62 59 56 57 59 60 62 63 63 64 65 64 65 65 65 65 65 65 65 65 64 62 60 59 58
61 62 60 60 59 58 57 58 57 59 59 59 59 59 59 60 61 62 62 61 60 57 56 58 59 61 63 64 64 64 64 65 65 65 66 65 65 65 65 63 62 59 58
58 60 60 59 59 58 58 58 57 57 57 58 58 57 58 60 60 61 61 61 60 57 55 55 56 57 58 62 63 63 64 65 65 65 66 65 65 65 65 64 62 60 58
54 55 56 56 56 57 56 56 56 56 56 57 56 55 51 52 57 59 61 61 61 60 59 55 52 52 53 54 59 62 63 63 64 65 66 66 65 65 65 64 63 62 59
51 52 52 54 53 53 52 52 52 52 53 53 54 54 50 48 51 54 58 59 60 60 60 59 57 54 52 53 54 57 61 61 63 63 65 66 66 65 64 64 63 63 61
49 49 50 50 50 50 49 50 49 50 50 50 52 54 55 55 51 49 50 54 57 59 60 59 58 55 52 51 52 54 56 59 60 61 62 64 66 64 63 63 64 63 62
45 45 46 46 47 48 48 48 47 47 47 47 47 48 48 50 53 52 50 50 52 55 59 59 58 57 55 52 52 52 54 57 59 60 59 60 64 64 63 63 64 63 63
38 39 42 44 45 44 44 46 47 46 46 45 45 45 46 46 45 46 47 49 51 52 56 58 58 57 56 55 52 52 53 56 58 58 58 59 61 63 63 63 63 64 63
33 32 33 34 36 40 44 43 42 41 42 43 43 43 43 44 45 45 45 43 44 48 54 56 57 57 57 57 55 53 54 56 58 59 57 58 57 59 61 62 63 64 64
29 30 30 30 30 32 35 37 40 40 41 40 41 40 42 43 42 44 43 41 41 43 51 53 56 57 57 56 55 54 54 55 57 58 59 57 57 57 59 58 61 62 63
23 26 27 27 28 28 30 33 33 36 38 39 40 40 40 40 42 40 38 40 42 40 41 49 53 51 52 57 57 56 56 56 57 57 58 58 59 58 59 58 58 59 60
21 21 21 21 22 22 25 26 26 29 29 32 33 33 33 35 39 38 38 41 39 40 40 44 46 48 49 50 55 58 58 58 58 58 58 57 58 57 57 58 58 59 59
20 19 19 19 19 19 22 24 24 25 24 25 27 28 30 31 35 34 35 38 37 39 36 38 42 44 46 47 49 50 54 57 57 57 58 58 57 57 57 58 58 58 59
20 19 19 19 19 19 20 23 23 24 24 24 23 25 24 28 30 31 32 35 34 37 36 34 36 40 41 47 47 47 49 50 50 52 56 57 57 57 57 57 57 57 57
19 19 19 19 20 20 19 22 23 24 24 24 24 23 23 27 27 27 30 32 33 36 35 34 35 37 40 42 43 45 46 47 48 49 50 51 52 54 55 55 55 56 56
20 19 19 20 21 20 19 21 24 24 24 24 25 24 24 25 26 28 29 27 32 31 30 31 32 34 35 36 40 41 39 41 43 46 48 49 50 50 51 52 53 53 53
19 20 20 21 22 21 21 25 25 25 24 24 23 23 24 26 25 26 26 28 29 29 29 28 29 31 31 33 34 34 34 35 38 44 44 45 46 48 50 51 52 52 52
19 20 20 21 21 21 24 25 25 24 24 24 22 23 24 23 25 25 28 28 28 28 28 28 29 29 29 34 34 34 34 33 32 41 38 38 43 45 47 48 50 51 52
19 20 20 21 21 21 23 24 24 23 23 22 23 23 23 23 25 25 26 28 28 30 29 27 26 28 30 31 31 30 30 31 31 33 34 33 38 40 44 46 47 49 50
18 20 20 21 21 20 23 22 22 22 22 23 23 23 23 24 24 25 25 26 27 27 28 29 28 28 29 30 30 28 29 30 31 32 33 33 37 39 42 43 45 47 49
18 19 21 20 19 20 22 23 24 23 23 23 23 24 25 24 24 24 24 25 26 27 29 28 29 29 29 29 29 28 27 29 27 27 30 30 32 36 37 38 41 45 47
19 20 19 19 19 18 23 23 24 24 23 23 24 24 24 23 23 24 26 25 25 26 27 29 30 30 29 28 28 27 28 28 26 24 32 30 34 35 35 38 38 40 44

GFSMA_sfc_30mbdewp_117.txt.gz
Dewpoint
62 63 63 64 65 65 65 65 66 66 66 66 65 65 64 64 64 64 63 63 62 63 62 63 65 65 65 64 63 63 63 62 62 62 61 61 61 61 61 60 59 59 59
61 61 62 62 63 65 65 66 65 65 65 65 65 65 65 64 63 63 63 62 61 62 63 62 64 64 64 65 63 63 64 63 62 62 62 62 62 62 62 61 60 59 59
61 61 61 61 61 63 63 64 64 64 64 64 64 64 64 64 63 63 63 62 61 60 61 62 63 64 65 63 64 64 62 64 64 64 64 63 63 63 63 62 61 60 60
59 61 61 61 61 61 61 61 61 61 62 62 62 63 63 64 64 62 61 61 61 60 60 61 63 63 64 64 62 63 64 64 65 65 64 64 64 64 64 63 62 61 60
59 61 61 61 60 60 60 59 59 59 59 59 60 60 60 61 61 62 62 62 60 59 58 59 61 63 63 64 64 64 64 65 65 65 65 65 65 65 65 64 63 62 61
58 59 60 61 60 59 59 58 58 58 58 58 58 59 59 59 60 60 61 61 62 60 58 57 58 61 62 63 63 64 64 64 65 65 66 66 65 65 65 65 64 62 61
55 55 56 57 58 58 58 58 57 57 57 58 57 56 56 57 58 59 60 60 61 61 60 59 57 58 58 61 63 63 63 63 64 65 66 66 66 66 66 65 65 63 62
52 52 54 54 54 55 54 53 52 55 56 57 55 53 50 50 54 57 59 59 60 60 60 58 57 56 57 57 58 62 63 63 63 63 64 66 66 66 65 65 65 64 63
49 50 50 51 52 52 51 50 51 50 50 52 52 53 49 48 50 51 54 57 58 59 60 60 59 57 54 54 55 56 60 62 62 62 62 64 66 66 66 65 65 65 64
44 45 46 47 48 49 49 49 49 48 49 47 50 49 49 50 47 47 50 51 53 54 56 58 59 59 58 57 54 54 54 58 60 60 61 61 62 65 65 65 65 65 64
37 39 43 44 44 44 46 46 46 46 46 46 45 46 46 47 47 45 44 45 46 48 52 55 56 58 59 57 55 54 53 55 57 59 60 60 61 62 64 65 65 64 64
35 34 35 37 39 42 42 42 40 42 41 43 43 43 43 44 43 43 42 42 43 45 44 47 55 56 57 57 57 55 54 54 56 57 57 59 60 59 61 64 64 64 63
30 31 32 32 32 34 36 40 40 40 40 39 40 40 41 43 41 42 43 40 40 41 46 45 54 55 51 53 55 56 54 54 55 56 56 57 59 60 59 58 63 64 63
28 28 29 29 29 29 32 33 37 34 38 39 39 38 38 40 40 41 36 37 36 40 41 43 48 48 47 47 50 50 55 54 54 55 57 58 58 59 58 59 58 61 63
22 23 22 23 23 24 28 28 30 26 30 31 36 34 34 38 39 38 37 38 38 34 36 40 42 43 44 46 45 49 50 52 55 55 56 58 58 59 59 59 58 58 58
20 20 20 20 20 20 24 24 25 26 24 25 27 28 29 32 35 36 34 37 37 36 34 36 36 39 41 40 43 46 48 50 51 56 56 57 57 58 57 58 58 57 58
20 19 19 19 19 19 20 23 24 25 24 24 24 24 24 27 31 32 33 36 35 35 33 33 34 35 37 39 42 43 47 48 48 49 51 55 57 58 58 58 58 58 58
19 19 19 19 20 20 20 22 22 24 24 24 24 23 22 24 27 28 29 32 33 34 34 31 31 32 34 37 37 40 44 46 43 45 49 51 52 55 57 57 57 57 58
20 19 19 20 21 20 20 20 23 24 24 24 24 23 23 24 25 27 28 30 28 33 31 30 29 30 34 34 35 37 36 38 38 40 47 49 50 50 51 54 56 57 57
19 19 20 20 21 21 21 22 25 25 25 24 24 23 23 24 26 26 27 27 28 30 29 28 28 28 31 32 35 34 33 35 35 38 42 42 43 45 48 50 51 51 53
19 20 20 21 21 21 20 25 26 25 24 24 23 23 24 26 25 26 26 28 29 29 28 28 27 27 28 29 30 32 30 31 32 41 33 33 35 39 45 46 48 49 50
19 20 20 21 20 21 24 25 25 24 24 23 22 23 24 24 26 25 27 27 28 28 29 28 27 26 26 29 30 30 29 27 25 33 30 29 32 36 37 41 46 47 48
19 18 19 20 20 20 24 24 24 22 22 22 23 23 23 24 26 25 26 27 27 27 28 28 27 27 27 28 29 29 28 27 26 28 31 28 31 35 39 42 44 44 46
18 19 19 20 20 19 23 23 25 24 23 23 23 23 24 24 25 24 25 25 26 26 27 28 28 28 29 29 30 30 29 28 29 29 30 27 28 29 33 38 39 43 44
18 19 20 19 18 19 22 23 25 24 23 23 23 24 24 23 24 24 24 25 26 26 27 26 27 28 29 29 30 30 27 25 24 24 26 29 31 30 33 36 39 41 42
18 20 19 18 19 18 22 23 24 24 23 22 23 24 24 23 23 24 24 25 24 26 25 25 26 27 29 29 29 29 26 24 24 22 29 27 26 28 26 31 32 36 37